[[{"header":{"parameterUnit":"m.s-1","parameterCategory":1,"la1":31.0,"la2":29.5877,"lo1":-88.7671,"lo2":-86.6584,"dy":0.0162,"dx":0.0185,"nx":115,"ny":88,"refTime":"2024-09-10T12:00:00:Z","depth":0,"parameterNumber":2,"parameterNumberName":"U-component_of_WINDS"},"data":[0.0,0.0,0.0,0.0,0.0,0.0,0.0,0.0,0.0,0.0,0.0,0.0,0.0,0.0,0.0,0.0,0.0,0.0,0.0,0.0,0.0,0.0,0.0,0.0,0.0,0.0,0.0,0.0,0.0,0.0,0.0,0.0,0.0,0.0,0.0,0.0,0.0,0.0,0.0,0.0,0.0,0.0,0.0,0.0,0.0,0.0,0.0,0.0,0.0,0.0,0.0,0.0,0.0,0.0,0.0,0.0,0.0,0.0,0.0,0.0,0.0,0.0,0.0,0.0,0.0,0.0,0.0,0.0,0.0,0.0,0.0,0.0,0.0,0.0,0.0,0.0,0.0,0.0,0.0,0.0,0.0,0.0,0.0,0.0,0.0,0.0,0.0,0.0,0.0,0.0,0.0,0.0,0.0,0.0,0.0,0.0,0.0,0.0,0.0,0.0,0.0,0.0,0.0,0.0,0.0,0.0,0.0,0.0,0.0,0.0,0.0,0.0,0.0,0.0,0.0,0.0,0.0,0.0,0.0,0.0,0.0,0.0,0.0,0.0,0.0,0.0,0.0,0.0,0.0,0.0,0.0,0.0,0.0,0.0,0.0,0.0,0.0,0.0,0.0,0.0,0.0,0.0,0.0,0.0,0.0,0.0,0.0,0.0,0.0,0.0,0.0,0.0,0.0,0.0,0.0,0.0,0.0,0.0,0.0,0.0,0.0,0.0,0.0,0.0,0.0,0.0,0.0,0.0,0.0,0.0,0.0,0.0,0.0,0.0,0.0,0.0,0.0,0.0,0.0,0.0,0.0,0.0,0.0,0.0,0.0,0.0,0.0,0.0,0.0,0.0,0.0,0.0,0.0,0.0,0.0,0.0,0.0,0.0,0.0,0.0,0.0,0.0,0.0,0.0,0.0,0.0,0.0,0.0,0.0,0.0,0.0,0.0,0.0,0.0,0.0,0.0,0.0,0.0,0.0,0.0,0.0,0.0,0.0,0.0,0.0,0.0,0.0,0.0,0.0,0.0,0.0,0.0,0.0,0.0,0.0,0.0,0.0,0.0,0.0,0.0,0.0,0.0,0.0,0.0,0.0,0.0,0.0,0.0,0.0,0.0,0.0,0.0,0.0,0.0,0.0,0.0,0.0,0.0,0.0,0.0,0.0,0.0,0.0,0.0,0.0,0.0,0.0,0.0,0.0,0.0,0.0,0.0,0.0,0.0,0.0,0.0,0.0,0.0,0.0,0.0,0.0,0.0,0.0,0.0,0.0,0.0,0.0,0.0,0.0,0.0,0.0,0.0,0.0,0.0,0.0,0.0,0.0,0.0,0.0,0.0,0.0,0.0,0.0,0.0,0.0,0.0,0.0,0.0,0.0,0.0,0.0,0.0,0.0,0.0,0.0,0.0,0.0,0.0,0.0,0.0,0.0,0.0,0.0,0.0,0.0,0.0,0.0,0.0,0.0,0.0,0.0,0.0,0.0,0.0,0.0,0.0,0.0,0.0,0.0,0.0,0.0,0.0,0.0,0.0,0.0,0.0,0.0,0.0,0.0,0.0,0.0,0.0,0.0,0.0,0.0,0.0,0.0,0.0,0.0,0.0,0.0,0.0,0.0,0.0,0.0,0.0,0.0,0.0,0.0,0.0,0.0,0.0,0.0,0.0,0.0,0.0,0.0,0.0,0.0,0.0,0.0,0.0,0.0,0.0,0.0,0.0,0.0,0.0,0.0,0.0,0.0,0.0,0.0,0.0,0.0,0.0,0.0,0.0,0.0,0.0,0.0,0.0,0.0,0.0,0.0,0.0,0.0,0.0,0.0,0.0,0.0,0.0,0.0,0.0,0.0,0.0,0.0,0.0,0.0,0.0,0.0,0.0,0.0,0.0,0.0,0.0,0.0,0.0,0.0,0.0,0.0,0.0,0.0,0.0,0.0,0.0,0.0,0.0,0.0,0.0,0.0,0.0,0.0,0.0,0.0,0.0,0.0,0.0,0.0,0.0,0.0,0.0,0.0,0.0,0.0,0.0,0.0,0.0,0.0,0.0,0.0,0.0,0.0,0.0,0.0,0.0,0.0,0.0,0.0,0.0,0.0,0.0,0.0,0.0,0.0,0.0,0.0,0.0,0.0,0.0,0.0,0.0,0.0,0.0,0.0,0.0,0.0,0.0,0.0,0.0,0.0,0.0,0.0,0.0,0.0,0.0,0.0,0.0,0.0,0.0,0.0,0.0,0.0,0.0,0.0,0.0,0.0,0.0,0.0,0.0,0.0,0.0,0.0,0.0,0.0,0.0,0.0,0.0,0.0,0.0,0.0,0.0,0.0,0.0,0.0,0.0,0.0,0.0,0.0,0.0,0.0,0.0,0.0,0.0,0.0,0.0,0.0,0.0,0.0,0.0,0.0,0.0,0.0,0.0,0.0,0.0,0.0,0.0,0.0,0.0,0.0,0.0,0.0,0.0,0.0,0.0,0.0,0.0,0.0,0.0,0.0,0.0,0.0,0.0,0.0,0.0,0.0,0.0,0.0,0.0,0.0,0.0,0.0,0.0,0.0,0.0,0.0,0.0,0.0,0.0,0.0,0.0,0.0,0.0,0.0,0.0,0.0,0.0,0.0,0.0,0.0,0.0,0.0,0.0,0.0,0.0,0.0,0.0,0.0,0.0,0.0,0.0,0.0,0.0,0.0,0.0,0.0,0.0,0.0,0.0,0.0,0.0,0.0,0.0,0.0,0.0,0.0,0.0,0.0,0.0,0.0,0.0,0.0,0.0,0.0,0.0,0.0,0.0,0.0,0.0,0.0,0.0,0.0,0.0,0.0,0.0,0.0,0.0,0.0,0.0,0.0,0.0,0.0,0.0,0.0,0.0,0.0,0.0,0.0,0.0,0.0,0.0,0.0,0.0,0.0,0.0,0.0,0.0,0.0,0.0,0.0,0.0,0.0,0.0,0.0,0.0,0.0,0.0,0.0,0.0,0.0,0.0,0.0,0.0,0.0,0.0,0.0,0.0,0.0,0.0,0.0,0.0,0.0,0.0,0.0,0.0,0.0,0.0,0.0,0.0,0.0,0.0,0.0,0.0,0.0,0.0,0.0,0.0,0.0,0.0,0.0,0.0,0.0,0.0,0.0,0.0,0.0,0.0,0.0,0.0,0.0,0.0,0.0,0.0,0.0,0.0,0.0,0.0,0.0,0.0,0.0,0.0,0.0,0.0,0.0,0.0,0.0,0.0,0.0,0.0,0.0,0.0,0.0,0.0,0.0,0.0,0.0,0.0,0.0,0.0,0.0,0.0,0.0,0.0,0.0,0.0,0.0,0.0,0.0,0.0,0.0,0.0,0.0,0.0,0.0,0.0,0.0,0.0,0.0,0.0,0.0,0.0,0.0,0.0,0.0,0.0,0.0,0.0,0.0,0.0,0.0,0.0,0.0,0.0,0.0,0.0,0.0,0.0,0.0,0.0,0.0,0.0,0.0,0.0,0.0,0.0,0.0,0.0,0.0,0.0,0.0,0.0,0.0,0.0,0.0,0.0,0.0,0.0,0.0,0.0,0.0,0.0,0.0,0.0,0.0,0.0,0.0,0.0,0.0,0.0,0.0,0.0,0.0,0.0,0.0,0.0,0.0,0.0,0.0,0.0,0.0,0.0,0.0,0.0,0.0,0.0,0.0,0.0,0.0,0.0,0.0,0.0,0.0,0.0,0.0,0.0,0.0,0.0,0.0,0.0,0.0,0.0,0.0,0.0,0.0,0.0,0.0,0.0,0.0,0.0,0.0,0.0,0.0,0.0,0.0,0.0,0.0,0.0,0.0,0.0,0.0,0.0,0.0,0.0,0.0,0.0,0.0,0.0,0.0,0.0,0.0,0.0,0.0,0.0,0.0,0.0,0.0,0.0,0.0,0.0,0.0,0.0,0.0,0.0,0.0,0.0,0.0,0.0,0.0,0.0,0.0,0.0,0.0,0.0,0.0,0.0,0.0,0.0,0.0,0.0,0.0,0.0,0.0,0.0,0.0,0.0,0.0,0.0,0.0,0.0,0.0,0.0,0.0,0.0,0.0,0.0,0.0,0.0,0.0,0.0,0.0,0.0,0.0,0.0,0.0,0.0,0.0,0.0,0.0,0.0,0.0,0.0,0.0,0.0,0.0,0.0,0.0,0.0,0.0,0.0,0.0,0.0,0.0,0.0,0.0,0.0,0.0,0.0,0.0,0.0,0.0,0.0,0.0,0.0,0.0,0.0,0.0,0.0,0.0,0.0,0.0,0.0,0.0,0.0,0.0,0.0,0.759,0.0,0.0,0.0,0.0,0.0,0.0,0.0,0.0,0.0,0.0,0.0,0.0,0.0,0.0,0.0,0.0,0.0,0.0,0.0,0.0,0.0,0.0,0.0,0.0,0.0,0.0,0.0,0.0,0.0,0.0,0.0,0.0,0.0,0.0,0.0,0.0,0.0,0.0,0.0,0.0,0.0,0.0,0.0,0.0,0.0,0.0,0.0,0.0,0.0,0.0,0.0,0.0,0.0,0.0,0.0,0.0,0.0,0.0,0.0,0.0,0.0,0.0,0.0,0.0,0.0,0.0,0.0,0.0,0.0,0.0,0.0,0.0,0.0,0.0,0.0,0.0,0.0,0.0,0.0,0.0,0.0,0.0,0.0,0.0,0.0,0.0,0.0,0.0,0.0,0.0,0.0,0.0,0.0,0.0,0.0,0.0,0.0,0.0,0.0,0.0,0.0,0.0,0.0,0.0,0.0,0.0,0.0,0.0,0.0,0.0,0.7864,0.7605,0.7709,0.7753,0.7768,0.0,0.0,0.0,0.0,0.0,0.0,0.0,0.0,0.0,0.0,0.0,0.0,0.0,0.0,0.0,0.0,0.0,0.0,0.0,0.0,0.0,0.0,0.0,0.0,0.0,0.0,0.0,0.0,0.0,0.0,0.0,0.0,0.0,0.0,0.0,0.0,0.0,0.0,0.0,0.0,0.0,0.0,0.0,0.0,0.0,0.0,0.0,0.0,0.0,0.0,0.0,0.0,0.0,0.0,0.0,0.0,0.0,0.0,0.0,0.0,0.0,0.0,0.0,0.0,0.0,0.0,0.0,0.0,0.0,0.0,0.0,0.0,0.0,0.0,0.0,0.0,0.0,0.0,0.0,0.0,0.0,0.0,0.0,0.0,0.0,0.0,0.0,0.0,0.0,0.0,0.0,0.0,0.0,0.0,0.0,0.0,0.0,0.0,0.0,0.0,0.0,0.0,0.0,0.0,0.0,0.0,0.0,0.0,0.0,0.0,0.0,0.0,0.8349,0.8364,0.8349,0.0,0.0,0.0,0.0,0.0,0.0,0.0,0.0,0.0,0.0,0.0,0.0,0.0,0.0,0.0,0.0,0.0,0.0,0.0,0.0,0.0,0.0,0.0,0.0,0.0,0.0,0.0,0.0,0.0,0.0,0.0,0.0,0.0,0.0,0.0,0.0,0.0,0.0,0.0,0.0,0.0,0.0,0.0,0.0,0.0,0.0,0.0,0.0,0.0,0.0,0.0,0.0,0.0,0.0,0.0,0.0,0.0,0.0,0.0,0.0,0.0,0.0,0.0,0.0,0.0,0.0,0.0,0.0,0.0,0.0,0.0,0.0,0.0,0.0,0.0,0.0,0.0,0.0,0.0,0.0,0.0,0.0,0.0,0.0,0.0,0.0,0.0,0.0,0.0,0.0,0.0,0.0,0.0,0.0,0.0,0.0,0.0,0.0,0.0,0.0,0.0,0.0,0.0,0.0,0.0,0.0,0.0,0.0,0.0,0.0,0.8484,0.968,0.9695,0.0,0.9731,0.0,0.0,0.0,0.0,0.0,0.0,0.0,0.0,0.0,0.0,0.0,0.0,0.0,0.0,0.0,0.0,0.0,0.0,0.0,0.0,0.0,0.0,0.0,0.0,0.0,0.0,0.0,0.0,0.0,0.0,0.0,0.0,0.0,0.0,0.0,0.0,0.0,0.0,0.0,0.0,0.0,0.0,0.0,0.0,0.0,0.0,0.0,0.0,0.0,0.0,0.0,0.0,0.0,0.0,0.0,0.0,0.0,0.0,0.0,0.0,0.0,0.0,0.0,0.0,0.0,0.0,0.0,0.0,0.0,0.0,0.0,0.0,0.0,0.0,0.0,0.0,0.0,0.0,0.0,0.0,0.0,0.0,0.0,0.0,0.0,0.0,0.0,0.0,0.0,0.0,0.0,0.0,0.0,0.0,0.0,0.0,0.0,0.0,0.0,0.0,0.0,0.0,0.0,0.0,0.0,0.0,0.0,0.0,0.0,0.0,0.9336,0.989,0.989,0.989,0.0,0.0,0.0,0.0,0.0,0.0,0.0,0.0,0.0,0.0,0.0,0.0,0.0,0.0,0.0,0.0,0.0,0.0,0.0,0.0,0.0,0.0,0.0,0.0,0.0,0.0,0.0,0.0,0.0,0.0,0.0,0.0,0.0,0.0,0.0,0.0,0.0,0.0,0.0,0.0,0.0,0.0,0.0,0.0,0.0,0.0,0.0,0.0,0.0,0.0,0.0,0.0,0.0,0.0,0.0,0.0,0.0,0.0,0.0,0.0,0.0,0.0,0.0,0.0,0.0,0.0,0.0,0.0,0.0,0.0,0.0,0.0,0.0,0.0,0.0,0.0,0.0,0.0,0.0,0.0,0.0,0.0,0.0,0.0,0.0,0.0,0.0,0.0,0.0,0.0,0.0,0.0,0.0,0.0,0.0,0.0,0.0,0.0,0.0,0.0,0.0,0.0,0.0,0.0,0.0,0.0,0.0,0.0,0.0,0.0,0.9576,1.0069,1.0398,1.0413,1.0264,0.9905,0.0,0.0,0.0,0.0,0.0,0.0,0.0,0.0,0.0,0.0,0.0,0.0,0.0,0.0,0.0,0.0,0.0,0.0,0.0,0.0,0.0,0.0,0.0,0.0,0.0,0.0,0.0,0.0,0.0,0.0,0.0,0.0,0.0,0.0,0.0,0.0,0.0,0.0,0.0,0.0,0.0,0.0,0.0,0.0,0.0,0.0,0.0,0.0,0.0,0.0,0.0,0.0,0.0,0.0,0.0,0.0,0.0,0.0,0.0,0.0,0.0,0.0,0.0,0.0,0.0,0.0,0.0,0.0,0.0,0.0,0.0,0.0,0.0,0.0,0.0,0.0,0.0,0.0,0.0,0.0,0.0,0.0,0.0,0.0,0.0,0.0,0.0,0.0,0.0,0.0,0.0,0.0,0.0,0.0,0.0,0.0,0.0,0.0,0.0,0.0,0.0,0.0,0.0,0.0,0.0,0.0,0.0,0.0,1.1401,1.0473,1.0488,1.167,1.1715,1.1147,0.0,0.0,0.0,0.0,0.0,0.0,0.0,0.0,0.0,0.0,0.0,0.0,0.0,0.0,0.0,0.0,0.0,0.0,0.0,0.0,0.0,0.0,0.0,0.0,0.0,0.0,0.0,0.0,0.0,0.0,0.0,0.0,0.0,0.0,0.0,0.0,0.0,0.0,0.0,0.0,0.0,0.0,0.0,0.0,0.0,0.0,0.0,0.0,0.0,0.0,0.0,0.0,0.0,0.0,0.0,0.0,0.0,0.0,0.0,0.0,0.0,0.0,0.0,0.0,0.0,0.0,0.0,0.0,0.0,0.0,0.0,0.0,0.0,0.0,0.0,0.0,0.0,0.0,0.0,0.0,0.0,0.0,0.0,0.0,0.0,0.0,0.0,0.0,0.0,0.0,0.0,0.0,0.0,0.0,0.0,0.0,0.0,0.0,0.0,0.0,0.0,0.0,0.0,0.0,0.0,0.0,0.0,0.0,0.0,0.9261,0.968,1.0922,1.2927,1.1476,1.0743,0.0,0.0,0.0,0.0,0.0,0.0,0.0,0.0,0.0,0.0,0.0,0.0,0.0,0.0,0.0,0.0,0.0,0.0,0.0,0.0,0.0,0.0,0.0,0.0,0.0,0.0,0.0,0.0,0.0,0.0,0.0,0.0,0.0,0.0,0.0,0.0,0.0,0.0,0.0,0.0,0.0,0.0,0.0,0.0,0.0,0.0,0.0,0.0,0.0,0.0,0.0,0.0,0.0,0.0,0.0,0.0,0.0,0.0,0.0,0.0,0.0,0.0,0.0,0.0,0.0,0.0,0.0,0.0,0.0,0.0,0.0,0.0,0.0,0.0,0.0,0.0,0.0,0.0,0.0,0.0,0.0,0.0,0.0,0.0,0.0,0.0,0.0,0.0,0.0,0.0,0.0,0.0,0.0,0.0,0.0,0.0,0.0,0.0,0.0,0.0,0.0,0.0,0.0,0.0,0.0,0.0,0.0,0.0,0.0,0.9173,0.0,1.182,1.3002,1.1446,1.0557,0.0,0.0,0.0,0.0,0.0,0.0,0.0,0.0,0.0,0.0,0.0,0.0,0.0,0.0,0.0,0.0,0.0,0.0,0.0,0.0,0.0,0.0,0.0,0.0,0.0,0.0,0.0,0.0,0.0,0.0,0.0,0.0,0.0,0.0,0.0,0.0,0.0,0.0,0.0,0.0,0.0,0.0,0.0,0.0,0.0,0.0,0.0,0.0,0.0,0.0,0.0,0.0,0.0,0.0,0.0,0.0,0.0,0.0,0.0,0.0,0.0,0.0,0.0,0.0,0.0,0.0,0.0,0.0,0.0,0.0,0.0,0.0,0.0,0.0,0.0,0.0,0.0,0.0,0.0,0.0,0.0,0.0,0.0,0.0,0.0,0.0,0.0,0.0,0.0,0.0,0.0,0.0,0.0,0.0,0.0,0.0,0.0,0.0,0.0,0.0,0.0,0.0,0.0,0.0,0.0,0.0,0.0,0.0,0.9172,1.1625,1.2972,1.3062,1.191,1.1775,1.0625,0.0,0.0,0.0,0.0,0.0,0.0,0.0,0.0,0.0,0.0,0.0,0.0,0.0,0.0,0.0,0.0,0.0,0.0,0.0,0.0,0.0,0.0,0.0,0.0,0.0,0.0,0.0,0.0,0.0,0.0,0.0,0.0,0.0,0.0,0.0,0.0,0.0,0.0,0.0,0.0,0.0,0.0,0.0,0.0,0.0,0.0,0.0,0.0,0.0,0.0,0.0,0.0,0.0,0.0,0.0,0.0,0.0,0.0,0.0,0.0,0.0,0.0,0.0,0.0,0.0,0.0,0.0,0.0,0.0,0.0,0.0,0.0,0.0,0.0,0.0,0.0,0.0,0.0,0.0,0.0,0.0,0.0,0.0,0.0,0.0,0.0,0.0,0.0,0.0,0.0,0.0,0.0,0.0,0.0,0.0,0.0,0.0,0.0,0.0,0.0,0.0,0.0,0.0,0.0,0.0,0.0,0.0,0.0,0.0,1.0503,1.176,1.2882,1.3735,1.167,1.0767,0.0,0.0,0.0,0.0,0.0,0.0,0.0,0.0,0.0,0.0,0.0,0.0,0.0,0.0,0.0,0.0,0.0,0.0,0.0,0.0,0.0,0.0,0.0,0.0,0.0,0.0,0.0,0.0,0.0,0.0,0.0,0.0,0.0,0.0,0.0,0.0,0.0,0.0,0.0,0.0,0.0,0.0,0.0,0.0,0.0,0.0,0.0,0.0,0.0,0.0,0.0,0.0,0.0,0.0,0.0,0.0,0.0,0.0,0.0,0.0,0.0,0.0,0.0,0.0,0.0,0.0,0.0,0.0,0.0,0.0,0.0,0.0,0.0,0.0,0.0,0.0,0.0,0.0,0.0,0.0,0.0,0.0,0.0,0.0,0.0,0.0,0.0,0.0,0.0,0.0,0.0,0.0,0.0,0.0,0.0,0.0,0.0,0.0,0.0,0.0,0.0,0.0,0.0,0.0,0.0,0.0,0.0,0.0,0.0,1.2186,1.3346,1.4363,1.5169,1.2951,1.1743,1.1767,0.0,0.0,0.0,0.0,0.0,0.0,0.0,0.0,0.0,0.0,0.0,0.0,0.0,0.0,0.0,0.0,0.0,0.0,0.0,0.0,0.0,0.0,0.0,0.0,0.0,0.0,0.0,0.0,0.0,0.0,0.0,0.0,0.0,0.0,0.0,0.0,0.0,0.0,0.0,0.0,0.0,0.0,0.0,0.0,0.0,0.0,0.0,0.0,0.0,0.0,0.0,0.0,0.0,0.0,0.0,0.0,0.0,0.0,0.0,0.0,0.0,0.0,0.0,0.0,0.0,0.0,0.0,0.0,0.0,0.0,0.0,0.0,0.0,0.0,0.0,0.0,0.0,0.0,0.0,0.0,0.0,0.0,0.0,0.0,0.0,0.0,0.0,0.0,0.0,0.0,0.0,0.0,0.0,0.0,0.0,0.0,0.0,0.0,0.0,0.0,0.0,0.0,0.0,0.0,0.0,0.0,0.0,0.0,1.5948,1.7251,1.7341,1.6143,1.5216,1.3428,0.0,0.0,0.0,0.0,0.0,0.0,0.0,0.0,0.0,0.0,0.0,0.0,0.0,0.0,0.0,0.0,0.0,0.0,0.0,0.0,0.0,0.0,0.0,0.0,0.0,0.0,0.0,0.0,0.0,0.0,0.0,0.0,0.0,0.0,0.0,0.0,0.0,0.0,0.0,0.0,0.0,0.0,0.0,0.0,0.0,0.0,0.0,0.0,0.0,0.0,0.0,0.0,0.0,0.0,0.0,0.0,0.0,0.0,0.0,0.0,0.0,0.0,0.0,0.0,0.0,0.0,0.0,0.0,0.0,0.0,0.0,0.0,0.0,0.0,0.0,0.0,0.0,0.0,0.0,0.0,0.0,0.0,0.0,0.0,0.0,0.0,0.0,0.0,0.0,0.0,0.0,0.0,0.0,0.0,0.0,0.0,0.0,0.0,0.0,0.0,0.0,0.0,0.0,0.0,0.0,0.0,0.0,0.0,0.0,1.7894,1.972,2.0258,1.939,1.6413,1.4659,0.0,0.0,0.0,0.0,0.0,0.0,0.0,0.0,0.0,0.0,0.0,0.0,0.0,0.0,0.0,0.0,0.0,0.0,0.0,0.0,0.0,0.0,0.0,0.0,0.0,0.0,0.0,0.0,0.0,0.0,0.0,0.0,0.0,0.0,0.0,0.0,0.0,0.0,0.0,0.0,0.0,0.0,0.0,0.0,0.0,0.0,0.0,0.0,0.0,0.0,0.0,0.0,0.0,0.0,0.0,0.0,0.0,0.0,0.0,0.0,0.0,0.0,0.0,0.0,0.0,0.0,0.0,0.0,0.0,0.0,0.0,0.0,0.0,0.0,0.0,0.0,0.0,0.0,0.0,0.0,0.0,0.0,0.0,0.0,0.0,0.0,0.0,0.0,0.0,0.0,0.0,0.0,0.0,0.0,0.0,0.0,0.0,0.0,0.0,0.0,0.0,0.0,0.0,0.0,0.0,0.0,0.0,0.0,1.7176,1.951,2.1485,2.2308,2.1949,1.8627,1.6398,0.0,0.0,0.0,0.0,0.0,0.0,0.0,0.0,0.0,0.0,0.0,0.0,0.0,0.0,0.0,0.0,0.0,0.0,0.0,0.0,0.0,0.0,0.0,0.0,0.0,0.0,0.0,0.0,0.0,0.0,0.0,0.0,0.0,0.0,0.0,0.0,0.0,0.0,0.0,0.0,0.0,0.0,0.0,0.0,0.0,0.0,0.0,0.0,0.0,0.0,0.0,0.0,0.0,0.0,0.0,0.0,0.0,0.0,0.0,0.0,0.0,0.0,0.0,0.0,0.0,0.0,0.0,0.0,0.0,0.0,0.0,0.0,0.0,0.0,0.0,0.0,0.0,0.0,0.0,0.0,0.0,0.0,0.0,0.0,0.0,0.0,0.0,0.0,0.0,0.0,0.0,0.0,0.0,0.0,0.0,0.0,0.0,0.0,0.0,0.0,0.0,0.0,0.0,0.0,0.0,0.0,0.0,0.0,1.8772,2.0797,2.2637,2.3595,2.352,2.1051,1.8253,0.0,0.0,0.0,0.0,0.0,0.0,0.0,0.0,0.0,0.0,0.0,0.0,0.0,0.0,0.0,0.0,0.0,0.0,0.0,0.0,0.0,0.0,0.0,0.0,0.0,0.0,0.0,0.0,0.0,0.0,0.0,0.0,0.0,0.0,0.0,0.0,0.0,0.0,0.0,0.0,0.0,0.0,0.0,0.0,0.0,0.0,0.0,0.0,0.0,0.0,0.0,0.0,0.0,0.0,0.0,0.0,0.0,0.0,0.0,0.0,0.0,0.0,0.0,0.0,0.0,0.0,0.0,0.0,0.0,0.0,0.0,0.0,0.0,0.0,0.0,0.0,0.0,0.0,0.0,0.0,0.0,0.0,0.0,0.0,0.0,0.0,0.0,0.0,0.0,0.0,0.0,0.0,0.0,0.0,0.0,0.0,0.0,0.0,0.0,0.0,0.0,0.0,0.0,0.0,0.0,0.0,0.0,0.0,1.9465,2.144,2.2862,2.3595,2.358,2.1066,1.8882,0.0,0.0,0.0,0.0,0.0,0.0,0.0,0.0,0.0,0.0,0.0,0.0,0.0,0.0,0.0,0.0,0.0,0.0,0.0,0.0,0.0,0.0,0.0,0.0,0.0,0.0,0.0,0.0,0.0,0.0,0.0,0.0,0.0,0.0,0.0,0.0,0.0,0.0,0.0,0.0,0.0,0.0,0.0,0.0,0.0,0.0,0.0,0.0,1.7135,0.0,0.0,0.0,0.0,0.0,0.0,0.0,0.0,0.0,0.0,0.0,0.0,0.0,0.0,0.0,0.0,0.0,0.0,0.0,0.0,0.0,0.0,0.0,0.0,0.0,0.0,0.0,0.0,0.0,0.0,0.0,0.0,0.0,0.0,0.0,0.0,0.0,0.0,0.0,0.0,0.0,0.0,0.0,0.0,0.0,0.0,0.0,0.0,0.0,0.0,0.0,0.0,0.0,0.0,0.0,0.0,0.0,0.0,0.0,2.0139,2.2099,2.3101,2.3595,2.3535,2.1964,2.0034,0.0,0.0,0.0,0.0,0.0,0.0,0.0,0.0,0.0,0.0,0.0,0.0,0.0,0.0,0.0,0.0,0.0,0.0,0.0,0.0,0.0,0.0,0.0,0.0,0.0,0.0,0.0,0.0,0.0,0.0,0.0,0.0,0.0,0.0,0.0,0.0,0.0,0.0,0.0,0.0,0.0,0.0,0.0,0.0,0.0,0.0,0.0,0.0,0.0,0.0,0.0,0.0,0.0,0.0,0.0,0.0,0.0,0.0,0.0,0.0,0.0,0.0,0.0,0.0,0.0,0.0,0.0,0.0,0.0,0.0,0.0,0.0,0.0,0.0,0.0,0.0,0.0,0.0,0.0,0.0,0.0,0.0,0.0,0.0,0.0,0.0,0.0,0.0,0.0,0.0,0.0,0.0,0.0,0.0,0.0,0.0,0.0,0.0,0.0,0.0,0.0,0.0,0.0,0.0,0.0,0.0,0.0,1.8497,2.0617,2.2768,2.3325,2.3595,2.3595,2.2996,2.1111,1.7817,0.0,0.0,0.0,0.0,0.0,0.0,0.0,0.0,0.0,0.0,0.0,0.0,0.0,0.0,0.0,0.0,0.0,0.0,0.0,0.0,0.0,0.0,0.0,0.0,0.0,0.0,0.0,0.0,0.0,0.0,0.0,0.0,0.0,0.0,0.0,0.0,0.0,0.0,1.4995,1.7693,0.0,0.0,0.0,0.0,0.0,0.0,0.0,0.0,1.9473,0.0,0.0,0.0,0.0,0.0,0.0,0.0,0.0,0.0,0.0,0.0,0.0,0.0,0.0,0.0,0.0,0.0,0.0,0.0,0.0,0.0,0.0,0.0,0.0,0.0,0.0,0.0,0.0,0.0,0.0,0.0,0.0,0.0,0.0,0.0,0.0,0.0,0.0,0.0,0.0,0.0,0.0,0.0,0.0,0.0,0.0,0.0,0.0,0.0,0.0,0.0,0.0,0.0,0.0,0.0,0.0,1.8957,1.8927,2.0363,2.3355,2.355,2.3595,2.358,2.3038,2.1126,1.7847,0.0,0.0,0.0,0.0,0.0,0.0,0.0,0.0,0.0,0.0,0.0,0.0,0.0,0.0,0.0,0.0,0.0,0.0,0.0,0.0,0.0,0.0,0.0,0.0,0.0,0.0,0.0,0.0,0.0,0.0,0.0,0.0,0.0,0.0,0.0,0.0,0.0,0.0,0.0,1.9565,2.0869,0.0,0.0,0.0,0.0,0.0,0.0,0.0,0.0,2.0395,0.0,0.0,0.0,0.0,0.0,0.0,0.0,0.0,0.0,0.0,0.0,0.0,0.0,0.0,0.0,0.0,0.0,0.0,0.0,0.0,0.0,0.0,0.0,0.0,0.0,0.0,0.0,0.0,0.0,0.0,0.0,0.0,0.0,0.0,0.0,0.0,0.0,0.0,0.0,0.0,0.0,0.0,0.0,0.0,0.0,0.0,0.0,0.0,0.0,0.0,0.0,0.0,0.0,0.0,0.0,1.8508,2.0034,2.168,2.352,2.3595,2.3595,2.3565,2.2338,2.0423,0.0,0.0,0.0,0.0,0.0,0.0,0.0,0.0,0.0,0.0,0.0,0.0,0.0,0.0,0.0,0.0,0.0,0.0,0.0,0.0,0.0,0.0,0.0,0.0,0.0,0.0,0.0,0.0,0.0,0.0,0.0,0.0,0.0,0.0,0.0,0.0,0.0,0.0,0.0,0.0,2.129,2.2391,2.4025,0.0,0.0,0.0,0.0,0.0,0.0,2.1905,2.0954,0.0,0.0,0.0,0.0,0.0,0.0,0.0,0.0,0.0,0.0,0.0,0.0,0.0,0.0,0.0,0.0,0.0,0.0,0.0,0.0,0.0,0.0,0.0,0.0,0.0,0.0,0.0,0.0,0.0,0.0,0.0,0.0,0.0,0.0,0.0,0.0,0.0,0.0,0.0,0.0,0.0,0.0,0.0,0.0,0.0,0.0,0.0,0.0,0.0,0.0,0.0,0.0,0.0,0.0,0.0,1.7697,2.0737,2.2712,2.355,2.3595,2.3595,2.3565,2.1859,1.9878,0.0,0.0,0.0,0.0,0.0,0.0,0.0,0.0,0.0,0.0,0.0,0.0,0.0,0.0,0.0,0.0,0.0,0.0,0.0,0.0,0.0,0.0,0.0,0.0,0.0,0.0,0.0,0.0,0.0,0.0,0.0,0.0,0.0,0.0,0.0,0.0,0.0,0.0,0.0,0.0,0.0,2.4025,2.5421,2.434,0.0,0.0,0.0,0.0,2.4429,2.3356,0.0,0.0,0.0,0.0,0.0,0.0,0.0,0.0,0.0,0.0,0.0,0.0,0.0,0.0,0.0,0.0,0.0,0.0,0.0,0.0,0.0,0.0,0.0,0.0,0.0,0.0,0.0,0.0,0.0,0.0,0.0,0.0,0.0,0.0,0.0,0.0,0.0,0.0,0.0,0.0,0.0,0.0,0.0,0.0,0.0,0.0,0.0,0.0,0.0,0.0,0.0,0.0,0.0,0.0,0.0,0.0,1.7637,1.9839,2.1799,2.349,2.3595,2.3595,2.358,2.2293,2.0378,0.0,0.0,0.0,0.0,0.0,0.0,0.0,0.0,0.0,0.0,0.0,0.0,0.0,0.0,0.0,0.0,0.0,0.0,0.0,0.0,0.0,0.0,0.0,0.0,0.0,0.0,0.0,0.0,0.0,0.0,0.0,0.0,0.0,0.0,0.0,0.0,0.0,0.0,0.0,0.0,0.0,2.5438,2.6337,2.5109,2.4081,0.0,0.0,2.5076,2.5277,2.6335,0.0,0.0,0.0,0.0,0.0,0.0,0.0,0.0,0.0,0.0,0.0,0.0,0.0,0.0,0.0,0.0,0.0,0.0,0.0,0.0,0.0,0.0,0.0,0.0,0.0,0.0,0.0,0.0,0.0,0.0,0.0,0.0,0.0,0.0,0.0,0.0,0.0,0.0,0.0,0.0,0.0,0.0,0.0,0.0,0.0,0.0,0.0,0.0,0.0,0.0,0.0,0.0,0.0,0.0,0.0,1.5545,1.7712,2.0767,2.2757,2.3565,2.3595,2.3595,2.3595,2.162,1.9675,0.0,0.0,0.0,0.0,0.0,0.0,0.0,0.0,0.0,0.0,0.0,0.0,0.0,0.0,0.0,0.0,0.0,0.0,0.0,0.0,0.0,0.0,0.0,0.0,0.0,0.0,0.0,0.0,0.0,0.0,0.0,0.0,0.0,0.0,0.0,0.0,0.0,0.0,0.0,0.0,0.0,0.0,2.6489,2.5991,0.0,0.0,0.0,2.6245,2.6686,0.0,0.0,0.0,0.0,0.0,0.0,0.0,0.0,0.0,0.0,0.0,0.0,0.0,0.0,0.0,0.0,0.0,0.0,0.0,0.0,0.0,0.0,0.0,0.0,0.0,0.0,0.0,0.0,0.0,0.0,0.0,0.0,0.0,0.0,0.0,0.0,0.0,0.0,0.0,0.0,0.0,0.0,0.0,0.0,0.0,0.0,0.0,0.0,0.0,0.0,0.0,0.0,0.0,0.0,0.0,0.0,0.0,1.7742,2.1605,2.3595,2.3595,2.3595,2.3595,2.3565,2.153,0.0,0.0,0.0,0.0,0.0,0.0,0.0,0.0,0.0,0.0,0.0,0.0,0.0,0.0,0.0,0.0,0.0,0.0,0.0,0.0,0.0,0.0,0.0,0.0,0.0,0.0,0.0,0.9665,0.0,0.0,0.0,0.0,0.0,0.0,0.0,0.0,0.0,0.0,0.0,0.0,0.0,0.0,2.6012,2.6554,2.679,2.72,0.0,0.0,2.7295,2.7989,2.8562,2.7827,0.0,0.0,0.0,0.0,0.0,0.0,0.0,0.0,0.0,0.0,0.0,0.0,0.0,0.0,0.0,0.0,0.0,0.0,0.0,0.0,0.0,0.0,0.0,0.0,0.0,0.0,0.0,0.0,0.0,0.0,0.0,0.0,0.0,0.0,0.0,0.0,0.0,0.0,0.0,0.0,0.0,0.0,0.0,0.0,0.0,0.0,0.0,0.0,0.0,0.0,0.0,0.0,0.0,0.0,1.6413,1.779,2.1605,2.3595,2.3595,2.3595,2.3595,2.3595,2.2877,2.0976,0.0,0.0,0.0,0.0,0.0,0.0,0.0,0.0,0.0,0.0,0.0,0.0,0.0,0.0,0.0,0.0,0.0,0.0,0.0,0.0,0.0,0.0,0.0,0.0,0.0,0.0,0.0,0.0,0.0,0.0,0.0,0.0,0.0,0.0,0.0,0.0,0.0,0.0,0.0,0.0,0.0,2.694,2.6721,2.7289,2.8139,0.0,2.8798,2.8438,2.886,3.0607,3.0171,2.5035,0.0,0.0,0.0,0.0,0.0,0.0,0.0,0.0,0.0,0.0,0.0,0.0,0.0,0.0,0.0,0.0,0.0,0.0,0.0,0.0,0.0,0.0,0.0,0.0,0.0,0.0,0.0,0.0,0.0,0.0,0.0,0.0,0.0,0.0,0.0,0.0,0.0,0.0,0.0,0.0,0.0,0.0,0.0,0.0,0.0,0.0,0.0,0.0,0.0,0.0,0.0,0.0,0.0,1.6428,1.7712,2.1605,2.3595,2.3595,2.3595,2.3595,2.3595,2.3053,2.1306,0.0,0.0,0.0,0.0,0.0,0.0,0.0,0.0,0.0,0.0,0.0,0.0,0.0,0.0,0.0,0.0,0.0,0.0,0.0,0.0,0.0,0.0,0.0,0.0,0.0,0.0,0.0,0.0,1.4685,1.5187,1.5677,0.0,0.0,0.0,0.0,0.0,0.0,0.0,0.0,0.0,0.0,2.7147,2.7946,2.8729,0.0,0.0,3.008,3.0025,3.0418,3.1446,3.072,2.6376,2.4847,0.0,0.0,0.0,0.0,0.0,0.0,0.0,0.0,0.0,0.0,0.0,0.0,0.0,0.0,0.0,0.0,0.0,0.0,0.0,0.0,0.0,0.0,0.0,0.0,0.0,0.0,0.0,0.0,0.0,0.0,0.0,0.0,0.0,0.0,0.0,0.0,0.0,0.0,0.0,0.0,0.0,0.0,0.0,0.0,0.0,0.0,0.0,0.0,0.0,0.0,0.0,0.0,1.6548,1.8014,2.1695,2.3595,2.3595,2.3595,2.3595,2.358,2.3176,2.1799,0.0,0.0,0.0,0.0,0.0,0.0,0.0,0.0,0.0,0.0,0.0,0.0,0.0,0.0,0.0,0.0,0.0,0.0,0.0,0.0,0.0,0.0,0.0,0.0,0.0,0.0,0.0,0.0,1.5987,1.6294,1.6062,0.0,0.0,0.0,0.0,0.0,0.0,0.0,0.0,0.0,0.0,2.7744,2.8483,2.9353,3.0092,3.054,3.0302,3.0242,3.0619,3.1396,3.0748,2.7184,0.0,0.0,0.0,0.0,0.0,0.0,0.0,0.0,0.0,0.0,0.0,0.0,0.0,0.0,0.0,0.0,0.0,0.0,0.0,0.0,0.0,0.0,0.0,0.0,0.0,0.0,0.0,0.9412,0.0,0.0,0.8463,0.0,0.0,0.0,0.0,0.0,0.0,0.0,0.0,0.0,0.0,0.0,0.0,0.0,0.0,0.0,0.0,0.0,0.0,0.0,0.0,0.0,0.0,1.6758,1.8672,2.1934,2.3595,2.3595,2.3595,2.3595,2.3595,2.358,2.2652,2.0677,0.0,0.0,0.0,0.0,0.0,0.0,0.0,0.0,0.0,0.0,0.0,0.0,0.0,0.0,0.0,0.0,0.0,0.0,0.0,0.0,0.0,0.0,0.0,0.0,0.0,0.0,1.2635,1.4344,1.5649,0.0,0.0,0.0,0.0,0.0,0.0,0.0,0.0,0.0,2.3838,2.7023,2.8956,2.8015,2.8801,2.9717,3.0234,2.9278,2.8648,2.9088,3.0383,3.0346,0.0,0.0,0.0,0.0,0.0,0.0,0.0,0.0,0.0,0.0,0.0,0.0,0.0,0.0,0.0,0.0,0.0,0.0,0.0,0.0,0.0,0.0,0.0,0.0,0.0,0.0,0.0,1.2307,1.137,0.0,0.0,0.0,0.0,0.0,0.0,0.0,0.0,0.0,0.0,0.0,1.78,1.8018,0.0,0.0,0.0,0.0,0.0,0.0,0.0,0.0,0.0,0.0,0.0,0.0,1.7163,1.8762,2.1934,2.3595,2.3595,2.3595,2.3595,2.3595,2.3595,2.2514,2.0307,0.0,0.0,0.0,0.0,0.0,0.0,0.0,0.0,0.0,0.0,0.0,0.0,0.0,0.0,0.0,0.0,0.0,0.0,0.0,0.0,0.0,0.0,0.0,0.0,0.0,1.4225,0.0,0.0,0.0,0.0,0.0,0.0,0.0,0.0,0.0,0.0,2.34,2.4468,2.6523,2.7278,2.8032,2.9185,2.9646,3.0398,0.0,0.0,0.0,0.0,0.0,0.0,0.0,0.0,0.0,0.0,0.0,0.0,0.0,0.0,2.8975,2.4709,2.4339,2.4561,2.4109,0.0,0.0,0.0,0.0,0.0,0.0,0.0,0.0,0.0,0.0,0.0,0.0,0.0,0.0,1.4803,1.4172,1.3705,0.0,0.0,0.0,0.0,0.0,0.0,0.0,0.0,1.9126,2.0328,2.0786,2.1182,2.1197,2.0726,2.0091,1.8089,0.0,0.0,0.0,0.0,0.0,0.0,0.0,0.0,1.782,1.9441,2.2158,2.3595,2.3595,2.3595,2.3595,2.3595,2.3595,2.2739,2.1001,1.9178,1.7504,0.0,0.0,0.0,0.0,0.0,0.0,0.0,0.0,0.0,0.0,0.0,0.0,0.0,0.0,0.0,0.0,0.0,0.0,0.0,0.0,0.0,0.0,0.0,1.5291,0.0,0.0,0.0,0.0,0.0,0.0,0.0,0.0,0.0,2.4042,2.4878,2.6169,2.8288,2.8151,2.8433,2.9905,0.0,0.0,0.0,0.0,0.0,0.0,0.0,2.8128,2.9087,3.1537,3.2812,3.1224,3.209,3.2897,3.2607,0.0,0.0,2.8448,2.8172,2.8548,2.8104,2.9129,2.9064,2.6017,2.7129,3.0012,0.0,0.0,0.0,0.0,1.5995,0.0,0.0,0.0,1.7,1.7316,0.0,1.6518,0.0,0.0,0.0,0.0,1.5126,1.758,0.0,0.0,2.3283,2.4587,2.4592,2.4574,2.4594,2.4584,2.3911,2.2622,2.0714,1.8235,0.0,0.0,0.0,0.0,0.0,0.0,1.8778,2.0737,2.2697,2.367,2.3684,2.3684,2.367,2.364,2.361,2.3295,2.2712,2.1684,2.0367,1.873,1.627,0.0,0.0,0.0,0.0,0.0,0.0,0.0,0.0,0.0,0.0,0.0,0.0,0.0,0.0,0.0,0.0,0.0,0.0,0.0,0.0,1.4836,0.0,0.0,0.0,0.0,0.0,0.0,0.0,0.0,0.0,2.3697,2.4138,2.6492,2.8459,2.8979,0.0,0.0,0.0,0.0,3.0386,2.9799,2.9298,2.9062,2.9114,2.7224,2.7206,3.1345,0.0,0.0,3.5031,3.507,3.4877,3.4128,3.5959,3.6817,3.4403,3.3248,3.2816,3.2742,3.2327,3.1744,3.1605,3.1652,3.3169,2.0806,0.0,0.0,0.0,0.0,1.9097,1.9482,2.0147,2.0627,2.0439,1.9792,1.9968,0.0,0.0,0.0,0.0,0.0,0.0,2.153,2.2802,2.4014,2.4837,2.5303,2.5318,2.5334,2.5296,2.5112,2.4747,2.4193,2.343,2.0408,1.5306,0.0,0.0,0.0,0.0,2.0589,2.2134,2.4044,2.5046,2.5046,2.5031,2.4807,2.4343,2.3849,2.352,2.334,2.2613,2.1673,2.0424,1.8546,0.0,0.0,0.0,0.0,0.0,0.0,0.0,0.0,0.0,0.0,0.0,0.0,0.0,0.0,0.0,0.0,0.0,0.0,0.0,1.5615,1.7067,1.7896,0.0,0.0,0.0,0.0,0.0,0.0,0.0,0.0,0.0,2.8133,2.8083,2.8421,0.0,0.0,2.9499,3.004,3.0628,3.1317,3.2168,3.1718,0.0,3.2034,3.0673,3.0333,3.2645,3.4818,3.6256,3.626,3.6968,3.747,3.7263,3.8419,3.917,3.85,3.7593,3.6971,3.6982,3.7202,3.7228,3.6753,3.6608,3.74,2.3282,2.1577,2.1435,2.1363,2.1459,2.1459,2.1856,2.2469,2.2934,2.2998,2.2754,2.3002,2.2658,2.1896,2.1698,0.0,0.0,0.0,2.4343,2.5585,2.5719,2.6141,2.6733,2.6501,2.6411,2.6409,2.6396,2.6258,2.5974,2.5734,2.334,1.9031,0.0,1.8942,1.9141,2.0924,2.2378,2.3443,2.486,2.5586,2.5615,2.56,2.542,2.5031,2.4313,2.3999,2.3999,2.342,2.2697,2.201,2.0622,1.888,0.0,0.0,0.0,0.0,0.0,0.0,0.0,0.0,0.0,0.0,0.0,1.2941,1.0868,0.0,0.0,0.0,1.4988,1.6377,1.8325,1.9307,0.0,0.0,0.0,0.0,0.0,0.0,0.0,2.6115,2.796,2.9499,3.0412,2.9989,3.004,3.1258,3.0768,3.0666,3.1698,0.0,3.2933,3.4117,3.3897,3.3761,3.4201,3.3522,3.3624,3.5548,3.6895,3.7956,3.8284,3.8912,3.939,3.9511,4.0164,4.0727,4.0402,4.0293,4.0145,3.9726,3.985,4.0015,3.9928,3.979,4.0119,2.4946,2.4872,2.4482,2.3867,2.328,2.3267,2.3566,2.4151,2.421,2.4896,2.5939,2.5638,2.5578,2.5609,2.521,0.0,2.5944,2.6557,2.7485,2.8652,2.8008,2.8092,2.8632,2.8011,2.779,2.7739,2.7724,2.7425,2.6841,2.6243,2.5241,2.3939,2.3924,2.3505,2.278,2.3342,2.4006,2.4687,2.5326,2.5692,2.5779,2.5719,2.5659,2.56,2.4925,2.4567,2.4477,2.3939,2.3522,2.3317,2.2442,2.1175,1.9544,0.0,0.0,0.0,0.0,0.0,0.0,0.0,0.0,0.0,0.0,0.0,0.0,0.0,0.0,1.6766,1.8302,0.0,2.1322,2.1475,0.0,0.0,0.0,2.3562,2.5812,2.7266,2.8383,2.9161,0.0,0.0,3.1529,3.2121,3.2848,3.366,3.3017,3.2966,3.4387,3.4573,3.4912,3.5588,3.5757,3.5791,3.5825,3.5802,3.653,3.8681,3.9493,3.9656,4.0217,4.0436,4.0539,4.0471,4.118,4.1488,4.0747,4.1596,4.2318,4.1366,4.0903,4.0881,4.1713,4.1589,4.1479,2.6063,2.6093,2.5955,2.5358,2.4406,2.4406,2.4469,2.4646,2.5218,2.5638,2.5974,2.7116,2.794,2.8551,2.848,2.8487,2.8652,2.8801,2.9041,2.934,2.9175,2.9184,2.9357,2.9214,2.9154,2.9101,2.9154,2.9026,2.8876,2.8712,2.7949,2.6692,2.6681,2.5362,2.2843,2.3804,2.4719,2.536,2.6007,2.6633,2.7081,2.6617,2.6123,2.5615,2.4971,2.4388,2.3864,2.3699,2.3563,2.351,2.3173,2.241,2.1245,1.8389,0.0,0.0,0.0,0.0,0.0,0.0,0.0,0.0,0.0,1.6956,1.2891,0.0,1.7997,0.0,2.0771,2.2716,2.3642,2.3697,0.0,0.0,2.5998,2.6776,2.9533,3.0176,3.0683,3.141,3.1989,3.2892,3.4387,3.4726,3.5318,3.6603,3.5182,3.4303,3.5216,3.5876,3.6299,3.6535,3.7026,3.7364,3.7398,3.7824,3.8362,3.9027,3.958,3.9987,4.0175,4.0209,4.0209,4.0243,4.07,4.0961,4.085,4.1472,4.2078,4.2282,4.2522,4.2818,4.3073,4.2983,4.2947,2.6235,2.6546,2.6716,2.6189,2.5184,2.5435,2.5548,2.5615,2.5972,2.6207,2.6272,2.7515,2.8493,2.9348,2.9348,2.9537,2.9896,2.9896,3.0081,3.0432,3.0133,3.0003,2.9984,2.9732,2.9605,2.9622,2.9605,2.9594,2.9594,2.9594,2.9205,2.8472,2.8472,2.741,2.5437,2.5168,2.5213,2.5615,2.6247,2.6917,2.758,2.7215,2.6587,2.563,2.4971,2.4178,2.3221,2.2921,2.2757,2.2768,2.3057,2.2821,2.1911,1.9996,1.8193,0.0,0.0,0.0,0.0,0.0,0.0,0.0,0.0,0.0,0.0,0.0,1.9908,1.9925,2.2632,2.4678,2.5406,2.6115,2.7249,2.9127,2.9228,3.0108,3.2425,3.2662,3.3068,3.4193,3.4105,3.465,3.6371,3.6835,3.7276,3.8244,3.7297,3.6654,3.7043,3.7516,3.7872,3.8258,3.8616,3.887,3.887,3.9208,3.9478,3.9495,3.98,4.0087,4.0087,4.0087,4.0087,4.0138,4.0358,4.0543,4.0531,4.0995,4.1534,4.1913,4.2799,4.3433,4.3481,4.3479,4.3479,2.5973,2.6703,2.6884,2.6594,2.5963,2.6314,2.6433,2.6319,2.6251,2.6425,2.6625,2.7469,2.8235,2.8989,2.9085,2.9449,3.0133,3.0254,3.0658,3.1306,3.0854,3.0607,3.0585,3.0097,2.9882,2.9856,2.9837,2.9834,2.9834,2.9834,2.9744,2.9594,2.9594,2.9205,2.8427,2.6732,2.5881,2.5834,2.6452,2.6991,2.761,2.741,2.6692,2.542,2.4807,2.3879,2.2607,2.2009,2.1695,2.1734,2.2481,2.2702,2.2216,2.1546,2.0589,0.0,1.7805,0.0,0.0,0.0,0.0,0.0,0.0,0.0,0.0,2.1695,2.1949,2.2023,2.4458,2.6404,2.7317,2.8619,3.0044,3.1444,3.2171,3.3177,3.4573,3.4793,3.5334,3.6755,3.6329,3.6451,3.7773,3.8475,3.8897,3.894,3.8824,3.8706,3.8907,3.9006,3.9276,4.0003,4.0087,3.9901,3.9952,4.002,4.0037,4.0054,4.0054,4.0087,4.0087,4.0087,4.0087,4.0087,4.0138,4.0138,4.0087,4.048,4.0827,4.0995,4.2037,4.2951,4.3286,4.3444,4.3479,2.6099,2.7651,2.596,2.6202,2.7573,2.6846,2.5981,2.5134,2.5134,2.5741,2.6844,2.7933,2.8597,2.9058,2.9449,2.9536,2.9254,2.995,3.0389,3.051,3.1086,3.1302,3.1289,3.1183,3.1168,3.1142,3.1153,3.1165,3.1108,3.1165,3.0627,2.9609,2.9594,2.8981,2.7829,0.0,0.0,0.0,2.7318,2.744,2.753,2.6527,2.5345,2.4044,2.3864,0.0,2.1964,2.1754,2.1695,2.1695,2.1877,0.0,0.0,0.0,0.0,0.0,0.0,0.0,0.0,0.0,0.0,0.0,2.2885,2.2931,2.2243,2.4272,2.5896,2.6522,2.7655,2.9144,3.1021,3.1478,3.2256,3.366,3.3998,3.4675,3.6129,3.6332,3.6705,3.755,3.7554,3.779,3.8584,3.9389,3.953,3.898,3.8887,3.8941,3.8924,3.9428,3.9918,4.007,4.0087,4.0087,4.0087,4.0087,4.0087,4.0087,4.0087,4.0087,4.0087,4.0087,4.0087,4.0087,4.0087,4.0087,4.0087,4.0221,4.04,4.0844,4.085,4.1179,4.2531,4.3214,4.3479,2.553,2.7136,2.5799,2.5538,0.0,2.575,2.4985,2.4082,2.5697,2.6853,2.7533,2.8087,2.8373,2.8581,2.8526,2.8625,2.8754,2.8935,2.9254,2.969,3.0524,3.0911,3.0908,3.1304,3.1467,3.1467,3.1467,3.1467,3.1467,3.1467,3.1195,3.0537,3.0552,3.0208,2.9549,2.9535,2.9064,2.8125,2.8084,2.8083,2.8053,2.7425,2.6288,2.4657,2.4268,0.0,0.0,0.0,0.0,0.0,0.0,0.0,0.0,0.0,0.0,2.2631,2.2141,2.2013,2.2393,2.3343,2.4418,2.563,2.701,2.7182,2.571,2.7638,2.9228,2.9956,3.0395,3.136,3.3136,3.3372,3.3981,3.5402,3.5627,3.6084,3.7094,3.7351,3.7477,3.7769,3.7884,3.8036,3.8352,3.8698,3.8791,3.8421,3.8358,3.8358,3.8414,3.9032,3.961,4.002,4.0087,4.0087,4.0087,4.0087,4.0087,4.0087,4.0087,4.0087,4.0087,4.0087,4.0087,4.0087,4.0087,4.0087,4.0087,4.0087,4.0154,4.0412,4.0283,4.0556,4.1971,4.2903,4.3479,2.4838,2.6422,2.5527,2.4897,2.4448,2.4679,2.4382,2.3902,2.654,0.0,0.0,2.8086,2.8197,2.8084,2.7733,2.7908,2.8412,2.8116,2.8358,2.9127,2.9953,3.0352,3.0364,3.0955,3.1191,3.1191,3.1279,3.1278,3.1278,3.1409,3.1467,3.1467,3.1467,3.1467,3.1467,3.1467,3.0698,2.9178,2.8872,2.8727,2.8607,2.8368,2.735,2.548,2.4866,2.4073,2.2877,2.2323,2.2039,2.2039,2.2337,2.2578,2.274,2.3161,2.3686,2.4318,2.4895,2.5524,2.6181,2.7252,2.8073,2.8485,3.0327,3.0834,2.9516,3.0639,3.1722,3.247,3.2396,3.294,3.4365,3.4622,3.5194,3.646,3.6721,3.7034,3.7599,3.7685,3.7669,3.7801,3.7843,3.7857,3.7842,3.76,3.7455,3.753,3.7573,3.7573,3.7706,3.8358,3.9262,3.9952,4.0087,4.0087,4.0087,4.0087,4.0087,4.0087,4.0087,4.0087,4.0087,4.0087,4.0087,4.0087,4.0087,4.0087,4.0087,4.0087,4.0087,4.007,4.0083,4.042,4.1435,4.2634,4.3466,2.4502,2.6363,2.4268,2.4471,2.6088,2.5153,2.5265,2.5957,2.5943,2.5958,2.6079,2.7928,2.8549,2.8134,2.8511,2.851,2.8201,2.8833,2.9214,2.9422,3.0147,3.0588,3.0571,3.0192,3.0034,3.0057,3.033,3.045,3.0524,3.1161,3.1467,3.1467,3.1467,3.1467,3.1467,3.1467,3.1377,3.1081,2.9988,2.916,2.8607,2.747,2.6198,2.4806,2.4672,2.4268,2.3505,2.337,2.3325,2.334,2.3396,2.3666,2.4236,2.4756,2.5361,2.6013,2.6572,2.6917,2.7041,2.7795,2.8796,3.0025,3.1469,3.1887,3.1021,3.1691,3.2557,3.3218,3.2834,3.3029,3.4385,3.5136,3.558,3.5817,3.6356,3.6768,3.6924,3.6945,3.714,3.7641,3.7785,3.7818,3.762,3.6679,3.6185,3.6625,3.6798,3.6798,3.7024,3.7987,3.9139,3.9901,4.0087,4.0087,4.0087,4.0087,4.0087,4.0087,4.0087,4.0087,4.0087,4.0087,4.0087,4.0087,4.0087,4.0087,4.0087,4.0087,4.0087,4.0104,4.0083,4.0331,4.1046,4.2394,4.3451,2.4049,2.5305,2.38,2.3724,2.4648,2.4135,2.4135,2.4671,2.5017,2.5847,2.6996,2.8028,2.8667,2.9013,2.895,2.88,2.8536,2.8647,2.871,2.8782,2.9521,2.9925,2.9968,3.0119,3.0086,2.9821,2.9945,2.989,2.9718,3.045,3.0851,3.0896,3.1278,3.1467,3.1467,3.1467,3.1467,3.1467,3.0941,3.0313,2.9639,2.8712,2.7769,2.6797,2.6108,2.5555,2.5226,2.4881,2.4687,2.4687,2.4687,2.4837,2.5136,2.5379,2.5788,2.6473,2.7053,2.7561,2.7919,2.8903,2.9911,3.0895,3.1933,3.2321,3.1913,3.2575,3.321,3.3534,3.359,3.3882,3.4521,3.5255,3.5787,3.6134,3.6495,3.6829,3.7206,3.7259,3.7222,3.7235,3.7515,3.7472,3.6662,3.5966,3.5584,3.5995,3.5991,3.6165,3.6492,3.7188,3.8101,3.9209,3.9799,4.007,4.007,4.0087,4.0087,4.0087,4.0087,4.0087,4.0087,4.0087,4.0087,4.0087,4.0087,4.0087,4.0087,4.0087,4.0087,4.0087,4.0107,4.0395,4.1253,4.2526,4.3379,2.3637,2.4286,2.3464,2.3144,2.3144,2.3144,2.3144,2.3222,2.4039,2.5535,2.7267,2.7844,2.8597,2.9328,2.9149,2.9114,2.9063,2.8674,2.8486,2.8547,2.9168,2.9516,2.9562,2.9997,3.0009,2.9632,2.9509,2.9261,2.9045,2.9637,3.0025,3.0072,3.0837,3.1219,3.1219,3.1424,3.1467,3.1467,3.1467,3.1195,3.0522,3.0028,2.9475,2.8801,2.7829,2.726,2.7245,2.6632,2.6288,2.6258,2.6138,2.6123,2.6273,2.6273,2.6587,2.722,2.7707,2.8213,2.8816,2.9863,3.0706,3.1165,3.1829,3.2289,3.2352,3.2919,3.3419,3.3557,3.3862,3.4125,3.4549,3.5173,3.5846,3.6379,3.6603,3.6746,3.7172,3.7296,3.7082,3.6522,3.6935,3.6768,3.5834,3.5513,3.5501,3.5514,3.5489,3.5797,3.6228,3.6446,3.7188,3.8101,3.9032,3.9558,3.9782,3.9782,3.9901,4.002,4.0087,4.0087,4.0087,4.0087,4.0087,4.0087,4.0087,4.0087,4.0087,4.0087,4.0087,4.0104,4.0129,4.0498,4.1717,4.2329,4.3141,2.3135,2.3222,2.3135,2.3144,2.3144,2.3144,2.3144,2.3135,2.3222,2.3963,2.5284,2.7186,2.8096,2.8426,2.9213,2.9601,2.9601,2.9654,2.9603,2.9591,2.9705,2.9782,2.9669,2.9302,2.9037,2.8969,2.8773,2.8675,2.8584,2.8944,2.9129,2.924,3.0011,3.0389,3.0464,3.1102,3.1467,3.1467,3.1467,3.121,3.0552,3.0447,3.0118,2.9505,2.937,2.931,2.9175,2.8682,2.8308,2.8278,2.7709,2.7679,2.8218,2.8308,2.8592,2.919,2.9357,2.9439,2.952,3.0128,3.0584,3.0614,3.1227,3.1603,3.1649,3.2236,3.2904,3.3362,3.3023,3.3396,3.4331,3.5185,3.5613,3.5733,3.623,3.6398,3.5928,3.5694,3.5644,3.5664,3.5782,3.5619,3.5539,3.5464,3.5494,3.5579,3.5624,3.5734,3.5959,3.6379,3.6708,3.7013,3.7515,3.8278,3.8816,3.9032,3.9315,3.9901,4.0087,4.0087,4.0087,4.0087,4.0087,4.0087,4.0087,4.0087,4.0087,4.0087,4.0087,4.0121,4.0203,4.0563,4.1798,4.1997,4.2149,2.3144,2.3144,2.3144,2.3144,2.3144,2.3144,2.3144,2.3144,2.3144,2.3387,2.3963,2.5452,2.6532,2.7197,2.8279,2.845,2.7971,2.9209,2.9443,2.8937,2.9456,2.9779,2.9754,2.9566,2.9277,2.8938,2.8791,2.86,2.837,2.8569,2.8831,2.9044,2.938,2.9504,2.9566,2.9889,3.0269,3.0763,3.0777,3.0896,3.1049,3.0717,3.0387,3.0118,2.9774,2.9594,2.9564,2.931,2.9175,2.9175,2.8891,2.8876,2.916,2.919,2.9295,2.9594,2.9924,3.0133,3.0133,3.0746,3.1106,3.1106,3.136,3.1468,3.153,3.2109,3.2871,3.3713,3.3788,3.3933,3.449,3.5118,3.5558,3.5559,3.5785,3.5834,3.5539,3.5489,3.5489,3.5489,3.5489,3.5489,3.5489,3.5489,3.5669,3.5953,3.6088,3.6148,3.6507,3.6929,3.7031,3.7051,3.7116,3.7372,3.8107,3.8635,3.8978,3.9368,3.9782,4.007,4.007,4.0087,4.0087,4.0087,4.0087,4.0087,4.0087,4.0087,4.007,4.0121,4.04,4.0802,4.1443,4.1719,4.2251,2.3213,2.3301,2.332,2.3242,2.3144,2.3144,2.3144,2.3144,2.3144,2.3144,2.3222,2.3963,2.4808,2.5724,2.7035,2.7197,2.6812,2.8211,2.8609,2.8176,2.8949,2.9534,2.9779,2.9779,2.9578,2.9202,2.8988,2.8624,2.8182,2.8312,2.8447,2.8556,2.8722,2.877,2.8698,2.8876,2.9317,2.9875,2.9936,3.0329,3.0955,3.073,3.0535,3.069,3.0357,3.0118,3.0118,2.9939,2.9834,2.9834,2.9684,2.9654,2.9834,2.9834,2.9909,3.0133,3.0537,3.0791,3.0791,3.124,3.1467,3.1497,3.1616,3.1722,3.1738,3.2437,3.3333,3.405,3.4562,3.4741,3.4816,3.5205,3.5474,3.5489,3.5489,3.5489,3.5489,3.5489,3.5489,3.5489,3.5489,3.5489,3.5489,3.5519,3.5729,3.6297,3.6477,3.6701,3.724,3.736,3.7345,3.7375,3.6881,3.6938,3.7597,3.8173,3.8574,3.887,3.9315,4.0003,3.9901,3.9901,4.007,4.0087,4.0087,4.0087,4.0087,4.0087,4.0087,4.0154,4.04,4.075,4.0984,4.148,4.1856,2.3379,2.374,2.376,2.3535,2.3154,2.3184,2.3164,2.3223,2.3174,2.3154,2.3174,2.3212,2.3222,2.3551,2.5557,2.6472,2.6483,2.6637,2.7209,2.7844,2.8096,2.8767,2.9779,2.9779,2.9767,2.9641,2.9227,2.8699,2.816,2.8157,2.7855,2.7468,2.8131,2.8264,2.7987,2.856,2.9002,2.9066,2.9052,2.9518,3.0269,3.0346,3.0675,3.1304,3.142,3.1345,3.133,3.0806,3.0462,3.0462,2.9968,2.9894,3.0387,3.0477,3.0731,3.1243,3.1435,3.1407,3.1392,3.1437,3.1467,3.1541,3.2063,3.2199,3.1841,3.3257,3.4218,3.4289,3.4931,3.5385,3.5385,3.5429,3.5489,3.5489,3.5489,3.5489,3.5489,3.5489,3.5489,3.5489,3.5489,3.5489,3.5489,3.5489,3.5833,3.6327,3.6522,3.6806,3.7449,3.7539,3.7569,3.7449,3.7128,3.6793,3.7434,3.7701,3.778,3.8189,3.8964,3.9782,3.961,3.9489,3.985,4.0087,4.0087,4.0087,4.0087,4.0087,4.0087,4.0121,4.0121,4.0368,4.0655,4.0388,4.0802,2.4053,2.4189,2.4199,2.4092,2.3965,2.3955,2.3955,2.3935,2.3672,2.3555,2.3506,2.3271,2.3144,2.3135,2.3973,2.4317,2.4478,2.5819,2.6295,2.6108,2.6707,2.7695,2.8597,2.8688,2.9106,2.9677,2.9591,2.9189,2.8674,2.8624,2.836,2.7896,2.8058,2.7991,2.7601,2.7773,2.7985,2.8143,2.8182,2.8876,3.0147,3.0283,3.0718,3.1409,3.1467,3.1467,3.1467,3.1285,3.115,3.1165,3.0941,3.0926,3.1135,3.1165,3.1255,3.1495,3.1467,3.1467,3.1467,3.1467,3.1467,3.1511,3.2153,3.2617,3.2899,3.3811,3.4637,3.5026,3.528,3.5489,3.5489,3.5489,3.5489,3.5489,3.5489,3.5489,3.5489,3.5489,3.5489,3.5489,3.5489,3.5489,3.5594,3.5504,3.5908,3.6851,3.7075,3.7554,3.8407,3.8691,3.8631,3.8586,3.8153,3.7826,3.8001,3.7388,3.7163,3.7832,3.8479,3.8969,3.9032,3.9506,3.9901,3.9952,4.002,4.0087,4.0087,4.0087,4.0087,4.0087,4.0087,4.0171,4.0336,4.0226,4.0496,2.4541,2.4443,2.457,2.4541,2.4424,2.4424,2.4424,2.4385,2.4121,2.3994,2.3906,2.3545,2.335,2.332,2.3213,2.3144,2.3222,2.4723,2.521,2.4872,2.5641,2.6532,2.7452,2.7602,2.8187,2.9197,2.9624,2.9578,2.9252,2.9202,2.8913,2.8398,2.8373,2.8097,2.7645,2.7544,2.7596,2.7605,2.7569,2.8199,2.9359,2.9766,3.0254,3.1029,3.1336,3.1467,3.1467,3.1467,3.1467,3.1467,3.1467,3.1467,3.1467,3.1467,3.1467,3.1467,3.1467,3.1467,3.1467,3.1467,3.1584,3.1807,3.2422,3.3066,3.3528,3.4337,3.4981,3.5385,3.5489,3.5489,3.5489,3.5489,3.5489,3.5489,3.5489,3.5489,3.5489,3.5489,3.5639,3.5959,3.6103,3.6163,3.6274,3.6178,3.6671,3.7614,3.7734,3.8212,3.9125,3.9424,3.9424,3.9364,3.8736,3.8497,3.8367,3.7633,3.6904,3.7281,3.7864,3.8286,3.869,3.9262,3.9782,3.9782,3.9901,4.002,4.0087,4.0087,4.0087,4.0087,4.0087,4.0121,4.0171,4.0121,4.04,2.4834,2.457,2.4893,2.4863,2.457,2.4551,2.4473,2.4512,2.4453,2.4424,2.4365,2.3975,2.3789,2.3711,2.3389,2.3174,2.3193,2.3416,2.3877,2.4628,2.4702,2.5389,2.6472,2.6461,2.7116,2.8255,2.9287,2.9702,2.9716,2.9679,2.9428,2.9013,2.8938,2.8662,2.8109,2.8097,2.7833,2.7549,2.7422,2.7562,2.7828,2.8716,2.9463,3.0326,3.0925,3.1278,3.1336,3.1467,3.1467,3.1467,3.1467,3.1467,3.1467,3.1467,3.1467,3.1467,3.1467,3.1467,3.1467,3.1569,3.1852,3.2342,3.3066,3.3513,3.3716,3.4707,3.5429,3.5474,3.5489,3.5489,3.5489,3.5489,3.5489,3.5489,3.5489,3.5489,3.5489,3.5534,3.5833,3.6573,3.7023,3.7518,3.7751,3.7413,3.7464,3.8033,3.8272,3.8527,3.923,3.9424,3.9424,3.932,3.902,3.8826,3.8422,3.7883,3.7188,3.6763,3.7296,3.779,3.7946,3.8414,3.9332,3.9558,3.9901,4.007,4.0087,4.0087,4.0087,4.0087,4.0087,4.0087,4.0087,4.0087,4.0087,2.5449,2.5342,2.5469,2.5459,2.5332,2.5332,2.5322,2.5273,2.501,2.4863,2.4775,2.4404,2.4219,2.4121,2.3779,2.3584,2.3555,2.3301,2.3299,2.3637,2.3637,2.4211,2.5126,2.5294,2.6273,2.7844,2.8438,2.9028,2.9624,2.9779,2.9679,2.9553,2.9515,2.9214,2.8699,2.8649,2.8398,2.7921,2.7846,2.815,2.8746,2.8704,2.9075,2.9826,2.9868,2.9766,2.9813,3.0896,3.1467,3.1467,3.1467,3.1467,3.1467,3.1467,3.1467,3.1467,3.1467,3.1467,3.1526,3.1943,3.2285,3.2643,3.3562,3.4038,3.411,3.4887,3.5474,3.5489,3.5489,3.5489,3.5489,3.5489,3.5489,3.5489,3.5489,3.5489,3.5549,3.5923,3.6447,3.703,3.7315,3.7449,3.7593,3.7464,3.7793,3.8302,3.8437,3.8691,3.923,3.9424,3.9424,3.9379,3.917,3.896,3.8616,3.8063,3.727,3.6678,3.6921,3.7244,3.7345,3.7889,3.8761,3.9506,3.9901,4.007,4.007,4.0087,4.0087,4.0087,4.0087,4.0087,4.0087,4.0087,4.0087,2.5732,2.5732,2.5732,2.5732,2.5732,2.5732,2.5732,2.5703,2.5449,2.5322,2.5234,2.4853,2.4648,2.457,2.4219,2.3935,2.3769,2.3496,2.3301,2.3154,2.3144,2.3551,2.4211,2.4628,2.5452,2.6778,2.7683,2.8438,2.9106,2.9611,2.9779,2.9779,2.9779,2.9616,2.9277,2.9239,2.8976,2.8486,2.8411,2.8578,2.8815,2.8887,2.909,2.9551,2.9392,2.9297,2.9384,3.014,3.0584,3.0658,3.0851,3.1146,3.1409,3.1467,3.1467,3.1467,3.1554,3.1629,3.1825,3.2273,3.2796,3.3276,3.4044,3.4547,3.4711,3.528,3.5474,3.5489,3.5489,3.5489,3.5489,3.5489,3.5489,3.5489,3.5489,3.5489,3.5609,3.6297,3.6911,3.7389,3.7853,3.8078,3.8153,3.8167,3.8317,3.8691,3.8766,3.8841,3.9305,3.9424,3.9409,3.9305,3.902,3.8886,3.8856,3.8212,3.7375,3.691,3.6637,3.6779,3.6908,3.77,3.8486,3.9506,4.007,4.007,4.0087,4.0087,4.0087,4.0087,4.0138,4.0087,4.0087,4.0087,4.0087,2.5732,2.5732,2.5732,2.5703,2.5664,2.5664,2.5605,2.5615,2.5644,2.5605,2.5537,2.5254,2.5098,2.501,2.4648,2.4258,2.3877,2.376,2.3496,2.3223,2.3144,2.3222,2.3387,2.4135,2.4702,2.5368,2.6849,2.7844,2.8335,2.9118,2.9702,2.9792,2.9779,2.9779,2.9704,2.9767,2.9478,2.9051,2.8976,2.875,2.8457,2.8918,2.9293,2.9337,2.9497,2.9454,2.929,2.9049,2.8939,2.9129,2.995,3.0703,3.1278,3.1467,3.1482,3.1586,3.1541,3.1988,3.2407,3.2766,3.3216,3.4197,3.451,3.4786,3.531,3.5429,3.5489,3.5489,3.5489,3.5489,3.5489,3.5489,3.5489,3.5489,3.5489,3.5519,3.5669,3.6656,3.73,3.7674,3.8556,3.9379,3.9215,3.923,3.9275,3.932,3.9305,3.9349,3.9379,3.9409,3.9379,3.914,3.8766,3.8527,3.8392,3.7833,3.7113,3.7128,3.6727,3.6641,3.6875,3.7662,3.8541,3.9506,4.0087,4.0087,4.0155,4.0206,4.029,4.0409,4.0341,4.0172,4.0222,4.0324,4.0087,2.5732,2.5732,2.5732,2.5547,2.5273,2.5244,2.5059,2.4834,2.5127,2.5254,2.5273,2.5478,2.5508,2.5508,2.5088,2.4658,2.4248,2.3926,2.3555,2.3193,2.3144,2.3144,2.3135,2.3387,2.3963,2.4787,2.5535,2.6521,2.8004,2.8438,2.9015,2.9792,2.9792,2.9779,2.9779,2.9779,2.9729,2.9591,2.9553,2.949,2.9289,2.91,2.9071,2.9007,2.8787,2.8427,2.8014,2.7459,2.7802,2.9002,2.9827,3.0389,3.0658,3.1176,3.1647,3.2005,3.2213,3.2557,3.317,3.3649,3.4117,3.4485,3.4898,3.5295,3.5459,3.5489,3.5489,3.5489,3.5489,3.5489,3.5489,3.5489,3.5489,3.5489,3.5489,3.5684,3.6207,3.6911,3.7569,3.8108,3.8901,3.932,3.9424,3.9424,3.9424,3.9424,3.9424,3.9364,3.9305,3.9275,3.9185,3.8807,3.8432,3.8078,3.7734,3.7203,3.6933,3.715,3.7029,3.6736,3.7173,3.7934,3.8903,3.985,4.007,4.0087,4.0324,4.0493,4.0612,4.0815,4.0781,4.073,4.0764,4.0781,4.029,2.5732,2.5732,2.5732,2.5478,2.5088,2.5059,2.4824,2.4512,2.4678,2.4912,2.5098,2.5332,2.5566,2.5703,2.5459,2.498,2.4434,2.416,2.3721,2.3193,2.3144,2.3144,2.3135,2.3135,2.3464,2.4049,2.4628,2.5452,2.6685,2.7602,2.8426,2.9028,2.9546,2.9779,2.9779,2.9779,2.9779,2.9779,2.9779,2.9779,2.9754,2.9478,2.934,2.9189,2.8737,2.8122,2.7369,2.6967,2.7365,2.8314,2.8939,2.938,2.9856,3.0771,3.1514,3.1972,3.2495,3.3215,3.3814,3.4292,3.4595,3.4901,3.5329,3.5429,3.5489,3.5489,3.5489,3.5489,3.5489,3.5489,3.5489,3.5489,3.5489,3.5489,3.5489,3.5789,3.6432,3.7015,3.7674,3.8317,3.896,3.9424,3.9424,3.9424,3.9424,3.9424,3.9424,3.9215,3.899,3.899,3.8751,3.8252,3.7788,3.7375,3.706,3.6603,3.6282,3.6582,3.7122,3.6868,3.7682,3.8366,3.9176,3.995,4.0037,4.0172,4.046,4.0815,4.1187,4.1322,4.1322,4.1136,4.0984,4.0764,4.0307,2.5732,2.5732,2.5732,2.5478,2.5098,2.501,2.4697,2.4385,2.4346,2.458,2.4922,2.5039,2.5361,2.5723,2.5557,2.5176,2.4414,2.4277,2.3799,2.334,2.3144,2.3144,2.3144,2.3144,2.3135,2.3387,2.4211,2.4713,2.5535,2.7023,2.7936,2.8438,2.9287,2.9702,2.9779,2.9779,2.9779,2.9779,2.9779,2.9779,2.9779,2.9716,2.9679,2.9603,2.9126,2.8473,2.7783,2.7452,2.7595,2.776,2.7735,2.8316,2.9146,3.0417,3.1334,3.1801,3.2889,3.3888,3.4442,3.4651,3.4846,3.5295,3.5429,3.5489,3.5489,3.5489,3.5489,3.5489,3.5489,3.5489,3.5489,3.5489,3.5489,3.5489,3.5489,3.5818,3.6477,3.7075,3.7644,3.8242,3.8916,3.9349,3.9424,3.9424,3.9424,3.9424,3.9379,3.914,3.8826,3.8646,3.8192,3.7481,3.6993,3.6567,3.6267,3.5938,3.5768,3.5863,3.6774,3.7219,3.8315,3.9048,3.9669,4.0117,4.0307,4.046,4.0629,4.1052,4.1474,4.166,4.1542,4.1083,4.0676,4.0475,4.0087,2.5732,2.5732,2.5732,2.5478,2.5049,2.4707,2.4316,2.3945,2.3935,2.417,2.457,2.4912,2.5303,2.5713,2.5391,2.4912,2.4404,2.4092,2.3623,2.3213,2.3144,2.3144,2.3144,2.3144,2.3144,2.3222,2.3309,2.3963,2.4957,2.6213,2.729,2.8187,2.9197,2.9779,2.9779,2.9779,2.9779,2.9779,2.9779,2.9779,2.9779,2.9779,2.9779,2.9741,2.9264,2.8875,2.8524,2.8129,2.7982,2.8023,2.8205,2.8435,2.8946,3.0653,3.1825,3.2501,3.35,3.4562,3.51,3.5121,3.5295,3.5305,3.5249,3.5489,3.5489,3.5424,3.5439,3.5504,3.5489,3.5489,3.5489,3.5489,3.5489,3.5489,3.5564,3.5968,3.6896,3.73,3.7509,3.7868,3.8706,3.9424,3.9409,3.9409,3.9409,3.9424,3.929,3.908,3.8706,3.8317,3.7653,3.6895,3.6528,3.6178,3.5938,3.5714,3.5603,3.5644,3.6425,3.731,3.8348,3.9422,3.9939,4.0369,4.0645,4.0781,4.0849,4.1001,4.1373,4.1559,4.1796,4.1728,4.1474,4.0831,4.0391,2.5732,2.5732,2.5732,2.5478,2.5039,2.46,2.417,2.3799,2.3555,2.3838,2.4365,2.4687,2.5117,2.5674,2.5264,2.4834,2.4336,2.376,2.3369,2.3164,2.3144,2.3144,2.3144,2.3144,2.3144,2.3144,2.3135,2.3714,2.4798,2.5964,2.7116,2.8108,2.9197,2.9702,2.9779,2.9779,2.9779,2.9779,2.9779,2.9779,2.9779,2.9779,2.9779,2.9767,2.9478,2.9239,2.8863,2.8659,2.8356,2.8255,2.849,2.8582,2.8633,3.0131,3.1392,3.1957,3.3503,3.4176,3.4506,3.4704,3.4662,3.4543,3.4353,3.4434,3.4648,3.4824,3.5067,3.5359,3.5489,3.5489,3.5489,3.5489,3.5489,3.5564,3.5789,3.6282,3.6851,3.7225,3.7569,3.7928,3.8811,3.905,3.914,3.923,3.9409,3.9424,3.9334,3.908,3.8123,3.7689,3.7075,3.6432,3.6133,3.5878,3.5654,3.5549,3.5529,3.5744,3.6255,3.7077,3.7982,3.9048,4.0055,4.0383,4.0646,4.0933,4.1018,4.117,4.1305,4.1711,4.2068,4.2462,4.2498,4.1885,4.1528,2.5732,2.5723,2.5664,2.5449,2.5107,2.457,2.4209,2.3975,2.3447,2.375,2.4307,2.4424,2.4902,2.5381,2.5137,2.4727,2.4219,2.3701,2.331,2.3154,2.3144,2.3144,2.3144,2.3144,2.3144,2.3144,2.3144,2.3714,2.4542,2.5808,2.6883,2.7947,2.9197,2.9702,2.9779,2.9779,2.9779,2.9779,2.9779,2.9779,2.9779,2.9779,2.9779,2.9767,2.9741,2.9528,2.9214,2.9051,2.8862,2.8423,2.8812,2.8761,2.8883,2.9585,3.0553,3.0665,3.2779,3.362,3.3536,3.3719,3.3765,3.3293,3.2958,3.3127,3.3845,3.4191,3.4633,3.5198,3.5489,3.5489,3.5489,3.5489,3.5489,3.5579,3.6028,3.6327,3.6552,3.6971,3.7419,3.8048,3.8385,3.8495,3.8814,3.899,3.923,3.9409,3.9305,3.8931,3.7958,3.7165,3.6626,3.6148,3.5848,3.5744,3.5549,3.5534,3.5499,3.5874,3.6313,3.6909,3.771,3.8689,3.9686,4.0251,4.0544,4.0832,4.0916,4.0781,4.1085,4.1745,4.1984,4.1985,4.2311,4.2774,4.2449,2.5732,2.5703,2.5342,2.5332,2.541,2.4394,2.4258,2.4668,2.3965,2.3965,2.4365,2.4434,2.4736,2.5,2.4736,2.4307,2.3975,2.3662,2.3447,2.3193,2.3144,2.3144,2.3144,2.3144,2.3144,2.3144,2.3135,2.3299,2.4049,2.5389,2.6472,2.7128,2.87,2.9611,2.9611,2.9779,2.9779,2.9779,2.9779,2.9779,2.9779,2.9779,2.9779,2.9779,2.9779,2.9704,2.9666,2.9616,2.9591,2.9541,2.9591,2.9541,2.9568,3.0423,3.0834,3.1222,3.235,3.309,3.2763,3.3132,3.3176,3.2825,3.2489,3.2903,3.3575,3.3973,3.4394,3.5133,3.5489,3.5489,3.5489,3.5489,3.5489,3.5549,3.5714,3.5998,3.6387,3.6716,3.6985,3.7539,3.7768,3.7984,3.8329,3.8796,3.926,3.9334,3.917,3.8646,3.7719,3.7015,3.6432,3.5983,3.5579,3.5534,3.5504,3.5549,3.5639,3.6013,3.6405,3.6656,3.7466,3.84,3.9161,3.9924,4.0476,4.0798,4.073,4.0476,4.051,4.0882,4.1154,4.1374,4.1511,4.1681,4.2107,2.5391,2.5352,2.4922,2.4853,2.4883,2.417,2.4141,2.459,2.4072,2.4023,2.4394,2.4648,2.4853,2.4971,2.4883,2.4414,2.3935,2.3789,2.3545,2.3223,2.3144,2.3144,2.3144,2.3144,2.3144,2.3144,2.3135,2.3464,2.4039,2.4967,2.5891,2.6801,2.8199,2.8937,2.9106,2.9534,2.9702,2.9779,2.9779,2.9779,2.9779,2.9779,2.9779,2.9779,2.9779,2.9779,2.9779,2.9779,2.9779,2.9767,2.9779,2.9779,2.9921,3.0139,3.0482,3.0761,3.162,3.2104,3.1761,3.2022,3.1942,3.1641,3.1425,3.1615,3.2404,3.2971,3.407,3.5067,3.5489,3.5489,3.5489,3.5489,3.5489,3.5579,3.5759,3.6103,3.6417,3.6731,3.6866,3.7015,3.7278,3.7594,3.7923,3.8482,3.92,3.929,3.908,3.8407,3.7569,3.6985,3.6447,3.5908,3.5564,3.5654,3.5654,3.5699,3.5923,3.6349,3.6385,3.6645,3.7235,3.8128,3.9056,3.995,4.0358,4.073,4.0493,4.0223,4.0138,4.0087,4.046,4.0663,4.051,4.0628,4.1154,2.5059,2.5019,2.4502,2.4336,2.4326,2.3867,2.3955,2.4258,2.3975,2.4023,2.4434,2.4756,2.4951,2.5068,2.5059,2.4746,2.3965,2.3935,2.3643,2.3213,2.3144,2.3144,2.3144,2.3144,2.3144,2.3144,2.3135,2.3551,2.4125,2.4702,2.5378,2.6202,2.7348,2.8084,2.8347,2.9287,2.9611,2.9779,2.9779,2.9779,2.9779,2.9779,2.9779,2.9779,2.9779,2.9779,2.9779,2.9779,2.9779,2.9779,2.9779,2.9779,2.9779,2.9779,2.9779,2.9934,3.0648,3.0714,3.0688,3.092,3.1061,3.0628,3.0314,3.0701,3.1673,3.3014,3.4041,3.5133,3.5489,3.5489,3.5489,3.5489,3.5489,3.5579,3.5923,3.6282,3.6297,3.6402,3.6417,3.6619,3.6891,3.7243,3.7545,3.8562,3.9313,3.9245,3.9035,3.8646,3.7853,3.718,3.6596,3.5953,3.5654,3.5804,3.5863,3.5908,3.6237,3.6731,3.661,3.6542,3.7156,3.797,3.8739,3.9398,4.0273,4.0544,4.0257,4.0087,4.0087,4.0087,4.0087,4.0121,4.0189,4.024,4.0476,2.5059,2.5,2.4199,2.4072,2.4248,2.3564,2.3682,2.4297,2.3984,2.4033,2.4424,2.4531,2.4814,2.5107,2.5459,2.5088,2.4541,2.4189,2.3809,2.3223,2.3144,2.3144,2.3144,2.3144,2.3144,2.3144,2.3144,2.3144,2.3637,2.4286,2.4702,2.5368,2.686,2.8084,2.8016,2.9197,2.9779,2.9779,2.9779,2.9779,2.9779,2.9779,2.9779,2.9779,2.9779,2.9779,2.9779,2.9779,2.9779,2.9779,2.9779,2.9779,2.9779,2.9779,2.9779,2.993,3.0209,3.0476,3.0146,3.0378,3.0598,3.0417,3.0546,3.1442,3.2503,3.3744,3.4839,3.5344,3.5489,3.5489,3.5489,3.5489,3.5489,3.5519,3.5654,3.5729,3.5759,3.5998,3.6013,3.5947,3.6186,3.676,3.7172,3.8367,3.938,3.9208,3.8945,3.8542,3.7958,3.7165,3.6552,3.5863,3.5699,3.5848,3.6088,3.6133,3.6492,3.706,3.6768,3.6451,3.7059,3.7696,3.7875,3.8593,3.9615,4.0341,4.0189,4.0087,4.0087,4.0087,4.0087,4.0087,4.0087,4.0121,4.0104,2.5059,2.499,2.4141,2.3887,2.3975,2.3398,2.3477,2.3984,2.4141,2.4238,2.4512,2.499,2.5283,2.542,2.5439,2.5,2.4473,2.4189,2.375,2.3262,2.3144,2.3144,2.3144,2.3144,2.3144,2.3144,2.3144,2.3144,2.3299,2.3464,2.38,2.4211,2.5964,2.7128,2.7533,2.8949,2.9611,2.9779,2.9779,2.9779,2.9779,2.9779,2.9779,2.9779,2.9779,2.9779,2.9779,2.9779,2.9779,2.9779,2.9779,2.9779,2.9779,2.9779,2.9792,2.9817,2.998,3.0005,2.988,3.0043,3.024,3.0609,3.1066,3.1829,3.3101,3.4109,3.5067,3.5504,3.5504,3.5489,3.5489,3.5489,3.5489,3.5489,3.5489,3.5489,3.5489,3.5489,3.5609,3.5529,3.5523,3.6171,3.6881,3.7961,3.8737,3.8687,3.8512,3.8212,3.7494,3.6596,3.6088,3.5654,3.5699,3.5893,3.6193,3.6387,3.6686,3.706,3.6791,3.6667,3.7024,3.7421,3.7594,3.8044,3.9063,3.9597,3.9935,4.0087,4.0087,4.0087,4.0087,4.0087,4.0087,4.0087,4.0104,2.5234,2.5146,2.4297,2.3887,2.3769,2.3437,2.3418,2.3652,2.4053,2.4307,2.4639,2.5264,2.5654,2.5527,2.5185,2.4795,2.4238,2.3926,2.3545,2.3271,2.3144,2.3144,2.3144,2.3144,2.3144,2.3144,2.3144,2.3144,2.3144,2.3135,2.3222,2.3222,2.5557,2.64,2.7139,2.8542,2.9779,2.9779,2.9779,2.9779,2.9779,2.9779,2.9779,2.9779,2.9779,2.9779,2.9779,2.9779,2.9779,2.9779,2.9779,2.9779,2.9779,2.9779,2.9779,2.9792,2.9867,2.9854,2.9804,2.9907,3.0228,3.0693,3.1602,3.2464,3.4041,3.4394,3.4543,3.5504,3.5504,3.5489,3.5489,3.5489,3.5489,3.5489,3.5489,3.5489,3.5489,3.5489,3.5489,3.5519,3.5529,3.5714,3.6447,3.7443,3.8052,3.8093,3.8018,3.7823,3.7135,3.6252,3.5968,3.5684,3.5863,3.6163,3.6596,3.6851,3.709,3.709,3.6851,3.6535,3.666,3.6955,3.7216,3.7882,3.8676,3.9345,3.9902,4.002,4.0087,4.0087,4.0087,4.0087,4.0087,4.0087,4.0087,2.5693,2.5615,2.4746,2.416,2.3809,2.376,2.3516,2.3291,2.3672,2.4082,2.4512,2.5234,2.54,2.5156,2.4941,2.4531,2.3857,2.3799,2.3496,2.3252,2.3144,2.3144,2.3144,2.3144,2.3144,2.3144,2.3144,2.3144,2.3135,2.3387,2.3222,2.3474,2.54,2.6235,2.7221,2.87,2.9702,2.9779,2.9779,2.9779,2.9779,2.9779,2.9779,2.9779,2.9779,2.9779,2.9779,2.9779,2.9779,2.9779,2.9779,2.9779,2.9779,2.9779,2.9779,2.9779,2.9779,2.9779,2.9779,2.9921,2.9998,3.0419,3.1623,3.3408,3.492,3.5279,3.5504,3.5439,3.5489,3.5489,3.5489,3.5489,3.5489,3.5489,3.5489,3.5489,3.5489,3.5489,3.5489,3.5489,3.5549,3.5654,3.5714,3.6567,3.7248,3.7389,3.7449,3.727,3.6956,3.6252,3.6088,3.5968,3.6118,3.6507,3.7135,3.7345,3.73,3.7285,3.715,3.6462,3.5919,3.6331,3.6938,3.7742,3.8546,3.9222,3.9834,4.0003,4.0087,4.0087,4.0087,4.0087,4.0087,4.0087,4.0087,2.5332,2.5283,2.4951,2.457,2.4131,2.3613,2.3291,2.3232,2.3603,2.4023,2.4443,2.4756,2.4834,2.4639,2.4355,2.4141,2.3769,2.3477,2.3301,2.3203,2.3144,2.3144,2.3144,2.3144,2.3144,2.3144,2.3144,2.3144,2.3135,2.3541,2.3551,2.4059,2.5473,2.6707,2.7787,2.887,2.9611,2.9779,2.9779,2.9779,2.9779,2.9779,2.9779,2.9779,2.9779,2.9779,2.9779,2.9779,2.9779,2.9779,2.9779,2.9779,2.9779,2.9779,2.9779,2.9779,2.9856,2.9856,2.9998,3.0419,3.1119,3.2478,3.363,3.4639,3.5439,3.5504,3.5489,3.5489,3.5489,3.5489,3.5489,3.5489,3.5489,3.5489,3.5489,3.5489,3.5489,3.5489,3.5489,3.5489,3.5489,3.5534,3.5499,3.5618,3.6222,3.6671,3.6716,3.6701,3.6402,3.6178,3.5968,3.5848,3.5953,3.6462,3.7075,3.727,3.7375,3.736,3.733,3.6567,3.5809,3.6244,3.6899,3.7632,3.8379,3.9156,3.975,4.0003,4.0087,4.0087,4.0087,4.0087,4.0087,4.0087,4.0087,2.4873,2.4853,2.4746,2.4512,2.416,2.3594,2.3252,2.3135,2.3594,2.4023,2.4414,2.4424,2.4336,2.417,2.3965,2.3701,2.3545,2.331,2.3193,2.3144,2.3144,2.3144,2.3144,2.3144,2.3144,2.3144,2.3144,2.3144,2.3135,2.3877,2.3963,2.4307,2.5473,2.6801,2.7626,2.9028,2.9779,2.9779,2.9779,2.9779,2.9779,2.9779,2.9779,2.9779,2.9779,2.9779,2.9779,2.9779,2.9779,2.9779,2.9779,2.9779,2.9779,2.9779,2.9779,2.9856,3.0075,3.0216,3.0419,3.0833,3.2092,3.3463,3.4245,3.492,3.5439,3.5489,3.5489,3.5489,3.5489,3.5489,3.5489,3.5489,3.5489,3.5489,3.5489,3.5489,3.5489,3.5489,3.5489,3.5489,3.5489,3.5489,3.5504,3.5469,3.5663,3.6103,3.6103,3.6088,3.5923,3.5759,3.5669,3.5594,3.5609,3.6237,3.6881,3.6941,3.6971,3.6956,3.6836,3.6462,3.6094,3.6415,3.6911,3.763,3.8423,3.9157,3.9649,4.002,4.0087,4.0087,4.0087,4.0087,4.0087,4.0087,4.0087,2.4424,2.4375,2.4023,2.3838,2.3799,2.3779,2.3506,2.3213,2.3555,2.3945,2.4258,2.4297,2.4111,2.3848,2.3701,2.3525,2.3301,2.3184,2.3144,2.3144,2.3144,2.3144,2.3144,2.3144,2.3144,2.3144,2.3144,2.3144,2.3135,2.3637,2.3963,2.4628,2.5641,2.6812,2.6894,2.8712,2.9714,2.9779,2.9779,2.9779,2.9779,2.9779,2.9779,2.9779,2.9779,2.9779,2.9779,2.9779,2.9779,2.9779,2.9779,2.9779,2.9779,2.9779,2.9856,2.9998,3.0696,3.1044,3.1241,3.1241,3.2379,3.3876,3.4677,3.4839,3.5344,3.5489,3.5489,3.5489,3.5489,3.5489,3.5489,3.5489,3.5489,3.5489,3.5489,3.5489,3.5489,3.5489,3.5489,3.5489,3.5489,3.5489,3.5489,3.5504,3.5504,3.5579,3.5534,3.5504,3.5519,3.5504,3.5504,3.5489,3.5519,3.5983,3.6537,3.6552,3.6567,3.6552,3.6462,3.6193,3.6224,3.6523,3.705,3.77,3.8559,3.9463,3.9817,4.007,4.0087,4.0087,4.0087,4.0087,4.0087,4.0087,4.0087,2.4004,2.3984,2.3848,2.3623,2.3379,2.3359,2.3262,2.3184,2.3301,2.3447,2.3555,2.3574,2.3525,2.3379,2.3369,2.3291,2.3184,2.3144,2.3144,2.3144,2.3144,2.3144,2.3144,2.3144,2.3144,2.3144,2.3144,2.3144,2.3144,2.3551,2.3627,2.4221,2.5641,2.729,2.8462,2.9624,2.9779,2.9779,2.9779,2.9779,2.9779,2.9779,2.9779,2.9779,2.9779,2.9779,2.9779,2.9779,2.9779,2.9779,2.9779,2.9779,2.9779,2.9779,3.0075,3.0495,3.118,3.1829,3.2593,3.3171,3.3671,3.4543,3.4971,3.5052,3.5489,3.5489,3.5489,3.5489,3.5489,3.5489,3.5489,3.5489,3.5489,3.5489,3.5489,3.5489,3.5489,3.5489,3.5489,3.5489,3.5489,3.5489,3.5489,3.5534,3.5549,3.5564,3.5579,3.5594,3.5609,3.5534,3.5504,3.5504,3.5564,3.5923,3.6222,3.6357,3.6372,3.6342,3.6312,3.6193,3.6322,3.6615,3.7216,3.7946,3.8863,3.9783,3.9969,4.0087,4.0087,4.0087,4.0087,4.0087,4.0087,4.0087,4.0087,2.3564,2.3564,2.3564,2.3408,2.3164,2.3144,2.3144,2.3144,2.3144,2.3144,2.3154,2.3154,2.3154,2.3154,2.3144,2.3144,2.3144,2.3144,2.3144,2.3144,2.3144,2.3144,2.3144,2.3144,2.3144,2.3144,2.3144,2.3144,2.3144,2.379,2.4039,2.4296,2.5136,2.6871,2.845,2.9365,2.9779,2.9779,2.9779,2.9779,2.9779,2.9779,2.9779,2.9779,2.9779,2.9779,2.9779,2.9779,2.9779,2.9779,2.9779,2.9779,2.9779,2.9856,3.0152,3.0558,3.1549,3.255,3.3959,3.4461,3.4773,3.5294,3.5504,3.5489,3.5489,3.5489,3.5489,3.5489,3.5489,3.5489,3.5489,3.5489,3.5489,3.5489,3.5489,3.5489,3.5489,3.5489,3.5489,3.5489,3.5489,3.5489,3.5504,3.5564,3.5609,3.5639,3.5669,3.5699,3.5699,3.5594,3.5579,3.5639,3.5549,3.5729,3.6028,3.6297,3.6267,3.6163,3.6199,3.625,3.658,3.6904,3.7557,3.8189,3.9143,3.9902,4.002,4.0087,4.0087,4.0087,4.0087,4.0087,4.0087,4.0138,4.0189,2.3144,2.3144,2.3144,2.3154,2.3144,2.3144,2.3144,2.3144,2.3144,2.3144,2.3144,2.3144,2.3144,2.3144,2.3144,2.3144,2.3144,2.3144,2.3144,2.3144,2.3144,2.3144,2.3144,2.3144,2.3144,2.3144,2.3144,2.3144,2.3144,2.3299,2.38,2.4382,2.4798,2.6284,2.7775,2.8937,2.9456,2.9702,2.9779,2.9779,2.9779,2.9779,2.9779,2.9779,2.9779,2.9779,2.9779,2.9779,2.9779,2.9779,2.9779,2.9779,2.9779,2.9779,2.9792,3.0355,3.1696,3.3478,3.4691,3.4986,3.5279,3.5504,3.5504,3.5489,3.5489,3.5489,3.5489,3.5489,3.5489,3.5489,3.5489,3.5489,3.5489,3.5489,3.5489,3.5489,3.5489,3.5489,3.5489,3.5489,3.5489,3.5489,3.5489,3.5549,3.5609,3.5669,3.5744,3.5923,3.5878,3.5624,3.5669,3.5893,3.5759,3.5519,3.5774,3.6058,3.6028,3.5878,3.6325,3.6489,3.6817,3.7279,3.7962,3.869,3.9506,4.002,4.007,4.0087,4.0087,4.0087,4.0087,4.0307,4.0375,4.0392,4.0476,2.3144,2.3144,2.3144,2.3144,2.3144,2.3144,2.3144,2.3144,2.3144,2.3144,2.3144,2.3144,2.3144,2.3144,2.3144,2.3144,2.3144,2.3144,2.3144,2.3144,2.3144,2.3144,2.3144,2.3144,2.3144,2.3144,2.3144,2.3144,2.3144,2.3144,2.3135,2.3551,2.4286,2.5619,2.6871,2.8028,2.8949,2.9624,2.9779,2.9779,2.9779,2.9779,2.9779,2.9779,2.9779,2.9779,2.9779,2.9779,2.9779,2.9779,2.9779,2.9779,2.9779,2.9856,2.9998,3.0908,3.2393,3.3945,3.4476,3.5133,3.5489,3.5489,3.5489,3.5489,3.5489,3.5489,3.5489,3.5489,3.5489,3.5489,3.5489,3.5489,3.5489,3.5489,3.5489,3.5489,3.5489,3.5489,3.5489,3.5489,3.5489,3.5489,3.5489,3.5504,3.5564,3.5654,3.5804,3.5998,3.6028,3.5759,3.5774,3.6013,3.5818,3.5534,3.5519,3.5824,3.5684,3.5689,3.6338,3.6892,3.7076,3.7658,3.8398,3.9086,3.9714,3.9969,4.007,4.0087,4.0087,4.0087,4.0104,4.0426,4.0663,4.0595,4.0663,2.3144,2.3144,2.3144,2.3144,2.3144,2.3144,2.3144,2.3144,2.3144,2.3144,2.3144,2.3144,2.3144,2.3144,2.3144,2.3144,2.3144,2.3144,2.3144,2.3144,2.3144,2.3144,2.3144,2.3144,2.3144,2.3144,2.3144,2.3144,2.3144,2.3144,2.3135,2.3222,2.3963,2.5052,2.6307,2.7302,2.8359,2.9197,2.9779,2.9779,2.9779,2.9779,2.9779,2.9779,2.9779,2.9779,2.9779,2.9779,2.9779,2.9779,2.9779,2.9779,2.9779,2.9856,3.0203,3.1119,3.1888,3.3157,3.3959,3.4543,3.5052,3.5359,3.5424,3.5489,3.5489,3.5489,3.5489,3.5489,3.5489,3.5489,3.5489,3.5489,3.5489,3.5489,3.5489,3.5489,3.5489,3.5489,3.5489,3.5489,3.5489,3.5489,3.5489,3.5489,3.5609,3.5848,3.5923,3.5938,3.5968,3.5818,3.5908,3.6148,3.5833,3.5489,3.5584,3.5808,3.611,3.644,3.7235,3.7618,3.7626,3.8044,3.8799,3.9315,3.9782,3.9952,4.0087,4.0087,4.0087,4.0087,4.0138,4.0426,4.0595,4.0561,4.0713,2.3144,2.3144,2.3144,2.3144,2.3144,2.3144,2.3144,2.3144,2.3144,2.3144,2.3144,2.3144,2.3144,2.3144,2.3144,2.3144,2.3144,2.3144,2.3144,2.3144,2.3144,2.3144,2.3144,2.3144,2.3144,2.3144,2.3144,2.3144,2.3144,2.3144,2.3144,2.3135,2.3464,2.4553,2.6318,2.6883,2.8119,2.9456,2.9779,2.9779,2.9779,2.9779,2.9779,2.9779,2.9779,2.9779,2.9779,2.9779,2.9779,2.9779,2.9779,2.9779,2.9779,2.9779,3.0343,3.0833,3.1315,3.2164,3.3101,3.3685,3.4394,3.4905,3.5374,3.5359,3.5359,3.5489,3.5489,3.5489,3.5489,3.5489,3.5489,3.5489,3.5489,3.5489,3.5489,3.5489,3.5489,3.5489,3.5489,3.5489,3.5489,3.5489,3.5489,3.5504,3.5549,3.5938,3.5998,3.5878,3.5833,3.5744,3.5878,3.6118,3.5818,3.5554,3.5955,3.6255,3.6786,3.7296,3.7983,3.8344,3.8327,3.869,3.9246,3.961,3.9952,4.002,4.0087,4.0087,4.0087,4.0087,4.0189,4.0426,4.051,4.046,4.073,2.3144,2.3144,2.3144,2.3144,2.3144,2.3144,2.3144,2.3144,2.3144,2.3144,2.3144,2.3144,2.3144,2.3144,2.3144,2.3144,2.3144,2.3144,2.3144,2.3144,2.3144,2.3144,2.3144,2.3144,2.3144,2.3144,2.3144,2.3144,2.3144,2.3144,2.3135,2.3299,2.38,2.5136,2.6637,2.7197,2.8359,2.9702,2.9779,2.9779,2.9779,2.9779,2.9779,2.9779,2.9779,2.9779,2.9779,2.9779,2.9779,2.9779,2.9779,2.9779,2.9779,2.9779,2.9934,3.0216,3.0758,3.1462,3.2033,3.282,3.3602,3.4109,3.4558,3.492,3.5213,3.5359,3.5489,3.5489,3.5489,3.5489,3.5489,3.5489,3.5489,3.5489,3.5489,3.5489,3.5489,3.5489,3.5489,3.5489,3.5489,3.5489,3.5489,3.5534,3.5594,3.5624,3.5624,3.5594,3.5624,3.5579,3.5609,3.5759,3.5684,3.5683,3.6082,3.6631,3.7122,3.7689,3.8334,3.8672,3.8941,3.9332,3.9662,3.985,4.007,4.0087,4.0087,4.0087,4.0087,4.0087,4.0104,4.029,4.029,4.024,4.0629,2.3144,2.3144,2.3144,2.3144,2.3144,2.3144,2.3144,2.3144,2.3144,2.3144,2.3144,2.3144,2.3144,2.3144,2.3144,2.3144,2.3144,2.3144,2.3144,2.3144,2.3144,2.3144,2.3144,2.3144,2.3144,2.3144,2.3144,2.3144,2.3144,2.3135,2.3212,2.38,2.4713,2.5619,2.6953,2.7936,2.8688,2.9714,2.9779,2.9779,2.9779,2.9779,2.9779,2.9779,2.9779,2.9779,2.9779,2.9779,2.9779,2.9779,2.9779,2.9779,2.9779,2.9779,2.9779,2.9934,3.0279,3.0771,3.1254,3.2033,3.2961,3.3616,3.4543,3.5213,3.5279,3.5489,3.5489,3.5489,3.5489,3.5489,3.5489,3.5489,3.5489,3.5489,3.5489,3.5489,3.5489,3.5489,3.5489,3.5489,3.5489,3.5489,3.5489,3.5504,3.5549,3.5549,3.5504,3.5489,3.5489,3.5489,3.5489,3.5554,3.5604,3.5554,3.5827,3.6569,3.7401,3.8051,3.8761,3.9156,3.9558,3.985,4.007,4.0087,4.0087,4.0087,4.0087,4.0087,4.0087,4.0087,4.0087,4.0104,4.0087,4.0087,4.0358,2.3144,2.3144,2.3144,2.3144,2.3144,2.3144,2.3144,2.3144,2.3144,2.3144,2.3144,2.3144,2.3144,2.3144,2.3144,2.3144,2.3144,2.3144,2.3144,2.3144,2.3144,2.3144,2.3144,2.3144,2.3144,2.3144,2.3144,2.3144,2.3144,2.3135,2.3637,2.4628,2.5368,2.6036,2.7522,2.8438,2.8937,2.9534,2.9779,2.9779,2.9779,2.9779,2.9779,2.9779,2.9779,2.9779,2.9779,2.9779,2.9779,2.9779,2.9779,2.9779,2.9779,2.9779,2.9779,2.9856,2.9856,3.0343,3.0908,3.1683,3.272,3.3673,3.475,3.5359,3.5359,3.5489,3.5489,3.5489,3.5489,3.5489,3.5489,3.5489,3.5489,3.5489,3.5489,3.5489,3.5489,3.5489,3.5489,3.5489,3.5489,3.5489,3.5489,3.5489,3.5489,3.5489,3.5489,3.5489,3.5489,3.5489,3.5489,3.5668,3.5767,3.5782,3.5973,3.6814,3.7905,3.8596,3.9332,3.9782,4.0087,4.0087,4.0087,4.0087,4.0087,4.0087,4.0087,4.0087,4.0087,4.0087,4.0087,4.0087,4.0087,4.0087,4.0087,2.3144,2.3144,2.3144,2.3144,2.3144,2.3144,2.3144,2.3144,2.3144,2.3144,2.3144,2.3144,2.3144,2.3144,2.3144,2.3144,2.3144,2.3144,2.3144,2.3144,2.3144,2.3144,2.3144,2.3144,2.3144,2.3144,2.3144,2.3144,2.3144,2.3135,2.3637,2.4702,2.5891,2.6801,2.7936,2.8688,2.9443,2.9779,2.9779,2.9779,2.9779,2.9779,2.9779,2.9779,2.9779,2.9779,2.9779,2.9779,2.9779,2.9779,2.9779,2.9779,2.9779,2.9779,2.9779,2.9779,2.9779,2.9921,3.0482,3.1402,3.2362,3.304,3.4051,3.4986,3.5133,3.5489,3.5489,3.5489,3.5489,3.5489,3.5489,3.5489,3.5489,3.5489,3.5489,3.5489,3.5489,3.5489,3.5489,3.5489,3.5489,3.5489,3.5489,3.5489,3.5489,3.5489,3.5489,3.5489,3.5489,3.5489,3.5489,3.5785,3.6056,3.6753,3.7294,3.77,3.8603,3.9315,3.9782,3.9969,4.0087,4.0087,4.0087,4.0087,4.0087,4.0087,4.0087,4.0087,4.0087,4.0087,4.0087,4.0087,4.0087,4.0087,4.0087]},{"header":{"parameterUnit":"m.s-1","parameterCategory":1,"la1":31.0,"la2":29.5877,"lo1":-88.7671,"lo2":-86.6584,"dy":0.0162,"dx":0.0185,"nx":115,"ny":88,"refTime":"2024-09-10T12:00:00:Z","depth":0,"parameterNumber":3,"parameterNumberName":"V-component_of_WINDS"},"data":[0.0,0.0,0.0,0.0,0.0,0.0,0.0,0.0,0.0,0.0,0.0,0.0,0.0,0.0,0.0,0.0,0.0,0.0,0.0,0.0,0.0,0.0,0.0,0.0,0.0,0.0,0.0,0.0,0.0,0.0,0.0,0.0,0.0,0.0,0.0,0.0,0.0,0.0,0.0,0.0,0.0,0.0,0.0,0.0,0.0,0.0,0.0,0.0,0.0,0.0,0.0,0.0,0.0,0.0,0.0,0.0,0.0,0.0,0.0,0.0,0.0,0.0,0.0,0.0,0.0,0.0,0.0,0.0,0.0,0.0,0.0,0.0,0.0,0.0,0.0,0.0,0.0,0.0,0.0,0.0,0.0,0.0,0.0,0.0,0.0,0.0,0.0,0.0,0.0,0.0,0.0,0.0,0.0,0.0,0.0,0.0,0.0,0.0,0.0,0.0,0.0,0.0,0.0,0.0,0.0,0.0,0.0,0.0,0.0,0.0,0.0,0.0,0.0,0.0,0.0,0.0,0.0,0.0,0.0,0.0,0.0,0.0,0.0,0.0,0.0,0.0,0.0,0.0,0.0,0.0,0.0,0.0,0.0,0.0,0.0,0.0,0.0,0.0,0.0,0.0,0.0,0.0,0.0,0.0,0.0,0.0,0.0,0.0,0.0,0.0,0.0,0.0,0.0,0.0,0.0,0.0,0.0,0.0,0.0,0.0,0.0,0.0,0.0,0.0,0.0,0.0,0.0,0.0,0.0,0.0,0.0,0.0,0.0,0.0,0.0,0.0,0.0,0.0,0.0,0.0,0.0,0.0,0.0,0.0,0.0,0.0,0.0,0.0,0.0,0.0,0.0,0.0,0.0,0.0,0.0,0.0,0.0,0.0,0.0,0.0,0.0,0.0,0.0,0.0,0.0,0.0,0.0,0.0,0.0,0.0,0.0,0.0,0.0,0.0,0.0,0.0,0.0,0.0,0.0,0.0,0.0,0.0,0.0,0.0,0.0,0.0,0.0,0.0,0.0,0.0,0.0,0.0,0.0,0.0,0.0,0.0,0.0,0.0,0.0,0.0,0.0,0.0,0.0,0.0,0.0,0.0,0.0,0.0,0.0,0.0,0.0,0.0,0.0,0.0,0.0,0.0,0.0,0.0,0.0,0.0,0.0,0.0,0.0,0.0,0.0,0.0,0.0,0.0,0.0,0.0,0.0,0.0,0.0,0.0,0.0,0.0,0.0,0.0,0.0,0.0,0.0,0.0,0.0,0.0,0.0,0.0,0.0,0.0,0.0,0.0,0.0,0.0,0.0,0.0,0.0,0.0,0.0,0.0,0.0,0.0,0.0,0.0,0.0,0.0,0.0,0.0,0.0,0.0,0.0,0.0,0.0,0.0,0.0,0.0,0.0,0.0,0.0,0.0,0.0,0.0,0.0,0.0,0.0,0.0,0.0,0.0,0.0,0.0,0.0,0.0,0.0,0.0,0.0,0.0,0.0,0.0,0.0,0.0,0.0,0.0,0.0,0.0,0.0,0.0,0.0,0.0,0.0,0.0,0.0,0.0,0.0,0.0,0.0,0.0,0.0,0.0,0.0,0.0,0.0,0.0,0.0,0.0,0.0,0.0,0.0,0.0,0.0,0.0,0.0,0.0,0.0,0.0,0.0,0.0,0.0,0.0,0.0,0.0,0.0,0.0,0.0,0.0,0.0,0.0,0.0,0.0,0.0,0.0,0.0,0.0,0.0,0.0,0.0,0.0,0.0,0.0,0.0,0.0,0.0,0.0,0.0,0.0,0.0,0.0,0.0,0.0,0.0,0.0,0.0,0.0,0.0,0.0,0.0,0.0,0.0,0.0,0.0,0.0,0.0,0.0,0.0,0.0,0.0,0.0,0.0,0.0,0.0,0.0,0.0,0.0,0.0,0.0,0.0,0.0,0.0,0.0,0.0,0.0,0.0,0.0,0.0,0.0,0.0,0.0,0.0,0.0,0.0,0.0,0.0,0.0,0.0,0.0,0.0,0.0,0.0,0.0,0.0,0.0,0.0,0.0,0.0,0.0,0.0,0.0,0.0,0.0,0.0,0.0,0.0,0.0,0.0,0.0,0.0,0.0,0.0,0.0,0.0,0.0,0.0,0.0,0.0,0.0,0.0,0.0,0.0,0.0,0.0,0.0,0.0,0.0,0.0,0.0,0.0,0.0,0.0,0.0,0.0,0.0,0.0,0.0,0.0,0.0,0.0,0.0,0.0,0.0,0.0,0.0,0.0,0.0,0.0,0.0,0.0,0.0,0.0,0.0,0.0,0.0,0.0,0.0,0.0,0.0,0.0,0.0,0.0,0.0,0.0,0.0,0.0,0.0,0.0,0.0,0.0,0.0,0.0,0.0,0.0,0.0,0.0,0.0,0.0,0.0,0.0,0.0,0.0,0.0,0.0,0.0,0.0,0.0,0.0,0.0,0.0,0.0,0.0,0.0,0.0,0.0,0.0,0.0,0.0,0.0,0.0,0.0,0.0,0.0,0.0,0.0,0.0,0.0,0.0,0.0,0.0,0.0,0.0,0.0,0.0,0.0,0.0,0.0,0.0,0.0,0.0,0.0,0.0,0.0,0.0,0.0,0.0,0.0,0.0,0.0,0.0,0.0,0.0,0.0,0.0,0.0,0.0,0.0,0.0,0.0,0.0,0.0,0.0,0.0,0.0,0.0,0.0,0.0,0.0,0.0,0.0,0.0,0.0,0.0,0.0,0.0,0.0,0.0,0.0,0.0,0.0,0.0,0.0,0.0,0.0,0.0,0.0,0.0,0.0,0.0,0.0,0.0,0.0,0.0,0.0,0.0,0.0,0.0,0.0,0.0,0.0,0.0,0.0,0.0,0.0,0.0,0.0,0.0,0.0,0.0,0.0,0.0,0.0,0.0,0.0,0.0,0.0,0.0,0.0,0.0,0.0,0.0,0.0,0.0,0.0,0.0,0.0,0.0,0.0,0.0,0.0,0.0,0.0,0.0,0.0,0.0,0.0,0.0,0.0,0.0,0.0,0.0,0.0,0.0,0.0,0.0,0.0,0.0,0.0,0.0,0.0,0.0,0.0,0.0,0.0,0.0,0.0,0.0,0.0,0.0,0.0,0.0,0.0,0.0,0.0,0.0,0.0,0.0,0.0,0.0,0.0,0.0,0.0,0.0,0.0,0.0,0.0,0.0,0.0,0.0,0.0,0.0,0.0,0.0,0.0,0.0,0.0,0.0,0.0,0.0,0.0,0.0,0.0,0.0,0.0,0.0,0.0,0.0,0.0,0.0,0.0,0.0,0.0,0.0,0.0,0.0,0.0,0.0,0.0,0.0,0.0,0.0,0.0,0.0,0.0,0.0,0.0,0.0,0.0,0.0,0.0,0.0,0.0,0.0,0.0,0.0,0.0,0.0,0.0,0.0,0.0,0.0,0.0,0.0,0.0,0.0,0.0,0.0,0.0,0.0,0.0,0.0,0.0,0.0,0.0,0.0,0.0,0.0,0.0,0.0,0.0,0.0,0.0,0.0,0.0,0.0,0.0,0.0,0.0,0.0,0.0,0.0,0.0,0.0,0.0,0.0,0.0,0.0,0.0,0.0,0.0,0.0,0.0,0.0,0.0,0.0,0.0,0.0,0.0,0.0,0.0,0.0,0.0,0.0,0.0,0.0,0.0,0.0,0.0,0.0,0.0,0.0,0.0,0.0,0.0,0.0,0.0,0.0,0.0,0.0,0.0,0.0,0.0,0.0,0.0,0.0,0.0,0.0,0.0,0.0,0.0,0.0,0.0,0.0,0.0,0.0,0.0,0.0,0.0,0.0,0.0,0.0,0.0,0.0,0.0,0.0,0.0,0.0,0.0,0.0,0.0,0.0,0.0,0.0,0.0,0.0,0.0,0.0,0.0,0.0,0.0,0.0,0.0,0.0,0.0,0.0,0.0,0.0,0.0,0.0,0.0,0.0,0.0,0.0,0.0,0.0,0.0,0.0,0.0,0.0,0.0,0.0,0.0,0.0,0.0,0.0,0.0,0.0,0.0,0.0,0.0,0.0,0.0,0.0,0.0,0.0,0.0,0.0,0.0,0.0,0.0,0.0,0.0,0.0,0.0,0.0,0.0,0.0,0.0,0.0,0.0,0.0,0.0,0.0,0.0,0.0,0.0,0.0,0.0,0.0,0.0,0.0,0.0,0.0,0.0,0.0,0.0,0.0,0.0,0.0,0.0,0.0,0.0,0.0,0.0,0.0,0.0,0.0,0.0,0.0,0.0,0.0,0.0,0.0,-0.6894,0.0,0.0,0.0,0.0,0.0,0.0,0.0,0.0,0.0,0.0,0.0,0.0,0.0,0.0,0.0,0.0,0.0,0.0,0.0,0.0,0.0,0.0,0.0,0.0,0.0,0.0,0.0,0.0,0.0,0.0,0.0,0.0,0.0,0.0,0.0,0.0,0.0,0.0,0.0,0.0,0.0,0.0,0.0,0.0,0.0,0.0,0.0,0.0,0.0,0.0,0.0,0.0,0.0,0.0,0.0,0.0,0.0,0.0,0.0,0.0,0.0,0.0,0.0,0.0,0.0,0.0,0.0,0.0,0.0,0.0,0.0,0.0,0.0,0.0,0.0,0.0,0.0,0.0,0.0,0.0,0.0,0.0,0.0,0.0,0.0,0.0,0.0,0.0,0.0,0.0,0.0,0.0,0.0,0.0,0.0,0.0,0.0,0.0,0.0,0.0,0.0,0.0,0.0,0.0,0.0,0.0,0.0,0.0,0.0,0.0,-0.7174,-0.6878,-0.6791,-0.674,-0.6723,0.0,0.0,0.0,0.0,0.0,0.0,0.0,0.0,0.0,0.0,0.0,0.0,0.0,0.0,0.0,0.0,0.0,0.0,0.0,0.0,0.0,0.0,0.0,0.0,0.0,0.0,0.0,0.0,0.0,0.0,0.0,0.0,0.0,0.0,0.0,0.0,0.0,0.0,0.0,0.0,0.0,0.0,0.0,0.0,0.0,0.0,0.0,0.0,0.0,0.0,0.0,0.0,0.0,0.0,0.0,0.0,0.0,0.0,0.0,0.0,0.0,0.0,0.0,0.0,0.0,0.0,0.0,0.0,0.0,0.0,0.0,0.0,0.0,0.0,0.0,0.0,0.0,0.0,0.0,0.0,0.0,0.0,0.0,0.0,0.0,0.0,0.0,0.0,0.0,0.0,0.0,0.0,0.0,0.0,0.0,0.0,0.0,0.0,0.0,0.0,0.0,0.0,0.0,0.0,0.0,0.0,0.0,0.0,0.0,0.0,0.0,0.0,-0.6975,-0.6987,-0.6975,0.0,0.0,0.0,0.0,0.0,0.0,0.0,0.0,0.0,0.0,0.0,0.0,0.0,0.0,0.0,0.0,0.0,0.0,0.0,0.0,0.0,0.0,0.0,0.0,0.0,0.0,0.0,0.0,0.0,0.0,0.0,0.0,0.0,0.0,0.0,0.0,0.0,0.0,0.0,0.0,0.0,0.0,0.0,0.0,0.0,0.0,0.0,0.0,0.0,0.0,0.0,0.0,0.0,0.0,0.0,0.0,0.0,0.0,0.0,0.0,0.0,0.0,0.0,0.0,0.0,0.0,0.0,0.0,0.0,0.0,0.0,0.0,0.0,0.0,0.0,0.0,0.0,0.0,0.0,0.0,0.0,0.0,0.0,0.0,0.0,0.0,0.0,0.0,0.0,0.0,0.0,0.0,0.0,0.0,0.0,0.0,0.0,0.0,0.0,0.0,0.0,0.0,0.0,0.0,0.0,0.0,0.0,0.0,0.0,0.0,-0.7087,-0.8123,-0.8135,0.0,-0.8093,0.0,0.0,0.0,0.0,0.0,0.0,0.0,0.0,0.0,0.0,0.0,0.0,0.0,0.0,0.0,0.0,0.0,0.0,0.0,0.0,0.0,0.0,0.0,0.0,0.0,0.0,0.0,0.0,0.0,0.0,0.0,0.0,0.0,0.0,0.0,0.0,0.0,0.0,0.0,0.0,0.0,0.0,0.0,0.0,0.0,0.0,0.0,0.0,0.0,0.0,0.0,0.0,0.0,0.0,0.0,0.0,0.0,0.0,0.0,0.0,0.0,0.0,0.0,0.0,0.0,0.0,0.0,0.0,0.0,0.0,0.0,0.0,0.0,0.0,0.0,0.0,0.0,0.0,0.0,0.0,0.0,0.0,0.0,0.0,0.0,0.0,0.0,0.0,0.0,0.0,0.0,0.0,0.0,0.0,0.0,0.0,0.0,0.0,0.0,0.0,0.0,0.0,0.0,0.0,0.0,0.0,0.0,0.0,0.0,0.0,-0.7834,-0.8298,-0.8298,-0.8298,0.0,0.0,0.0,0.0,0.0,0.0,0.0,0.0,0.0,0.0,0.0,0.0,0.0,0.0,0.0,0.0,0.0,0.0,0.0,0.0,0.0,0.0,0.0,0.0,0.0,0.0,0.0,0.0,0.0,0.0,0.0,0.0,0.0,0.0,0.0,0.0,0.0,0.0,0.0,0.0,0.0,0.0,0.0,0.0,0.0,0.0,0.0,0.0,0.0,0.0,0.0,0.0,0.0,0.0,0.0,0.0,0.0,0.0,0.0,0.0,0.0,0.0,0.0,0.0,0.0,0.0,0.0,0.0,0.0,0.0,0.0,0.0,0.0,0.0,0.0,0.0,0.0,0.0,0.0,0.0,0.0,0.0,0.0,0.0,0.0,0.0,0.0,0.0,0.0,0.0,0.0,0.0,0.0,0.0,0.0,0.0,0.0,0.0,0.0,0.0,0.0,0.0,0.0,0.0,0.0,0.0,0.0,0.0,0.0,0.0,-0.8035,-0.8449,-0.8725,-0.8738,-0.8612,-0.8311,0.0,0.0,0.0,0.0,0.0,0.0,0.0,0.0,0.0,0.0,0.0,0.0,0.0,0.0,0.0,0.0,0.0,0.0,0.0,0.0,0.0,0.0,0.0,0.0,0.0,0.0,0.0,0.0,0.0,0.0,0.0,0.0,0.0,0.0,0.0,0.0,0.0,0.0,0.0,0.0,0.0,0.0,0.0,0.0,0.0,0.0,0.0,0.0,0.0,0.0,0.0,0.0,0.0,0.0,0.0,0.0,0.0,0.0,0.0,0.0,0.0,0.0,0.0,0.0,0.0,0.0,0.0,0.0,0.0,0.0,0.0,0.0,0.0,0.0,0.0,0.0,0.0,0.0,0.0,0.0,0.0,0.0,0.0,0.0,0.0,0.0,0.0,0.0,0.0,0.0,0.0,0.0,0.0,0.0,0.0,0.0,0.0,0.0,0.0,0.0,0.0,0.0,0.0,0.0,0.0,0.0,0.0,0.0,-0.9566,-0.8788,-0.8801,-0.9792,-0.983,-0.9353,0.0,0.0,0.0,0.0,0.0,0.0,0.0,0.0,0.0,0.0,0.0,0.0,0.0,0.0,0.0,0.0,0.0,0.0,0.0,0.0,0.0,0.0,0.0,0.0,0.0,0.0,0.0,0.0,0.0,0.0,0.0,0.0,0.0,0.0,0.0,0.0,0.0,0.0,0.0,0.0,0.0,0.0,0.0,0.0,0.0,0.0,0.0,0.0,0.0,0.0,0.0,0.0,0.0,0.0,0.0,0.0,0.0,0.0,0.0,0.0,0.0,0.0,0.0,0.0,0.0,0.0,0.0,0.0,0.0,0.0,0.0,0.0,0.0,0.0,0.0,0.0,0.0,0.0,0.0,0.0,0.0,0.0,0.0,0.0,0.0,0.0,0.0,0.0,0.0,0.0,0.0,0.0,0.0,0.0,0.0,0.0,0.0,0.0,0.0,0.0,0.0,0.0,0.0,0.0,0.0,0.0,0.0,0.0,0.0,-0.7771,-0.8123,-0.9165,-1.0847,-0.9629,-0.9014,0.0,0.0,0.0,0.0,0.0,0.0,0.0,0.0,0.0,0.0,0.0,0.0,0.0,0.0,0.0,0.0,0.0,0.0,0.0,0.0,0.0,0.0,0.0,0.0,0.0,0.0,0.0,0.0,0.0,0.0,0.0,0.0,0.0,0.0,0.0,0.0,0.0,0.0,0.0,0.0,0.0,0.0,0.0,0.0,0.0,0.0,0.0,0.0,0.0,0.0,0.0,0.0,0.0,0.0,0.0,0.0,0.0,0.0,0.0,0.0,0.0,0.0,0.0,0.0,0.0,0.0,0.0,0.0,0.0,0.0,0.0,0.0,0.0,0.0,0.0,0.0,0.0,0.0,0.0,0.0,0.0,0.0,0.0,0.0,0.0,0.0,0.0,0.0,0.0,0.0,0.0,0.0,0.0,0.0,0.0,0.0,0.0,0.0,0.0,0.0,0.0,0.0,0.0,0.0,0.0,0.0,0.0,0.0,0.0,-0.7663,0.0,-0.9918,-1.091,-0.9604,-0.878,0.0,0.0,0.0,0.0,0.0,0.0,0.0,0.0,0.0,0.0,0.0,0.0,0.0,0.0,0.0,0.0,0.0,0.0,0.0,0.0,0.0,0.0,0.0,0.0,0.0,0.0,0.0,0.0,0.0,0.0,0.0,0.0,0.0,0.0,0.0,0.0,0.0,0.0,0.0,0.0,0.0,0.0,0.0,0.0,0.0,0.0,0.0,0.0,0.0,0.0,0.0,0.0,0.0,0.0,0.0,0.0,0.0,0.0,0.0,0.0,0.0,0.0,0.0,0.0,0.0,0.0,0.0,0.0,0.0,0.0,0.0,0.0,0.0,0.0,0.0,0.0,0.0,0.0,0.0,0.0,0.0,0.0,0.0,0.0,0.0,0.0,0.0,0.0,0.0,0.0,0.0,0.0,0.0,0.0,0.0,0.0,0.0,0.0,0.0,0.0,0.0,0.0,0.0,0.0,0.0,0.0,0.0,0.0,-0.7696,-0.9755,-1.0885,-1.096,-0.9993,-0.988,-0.8758,0.0,0.0,0.0,0.0,0.0,0.0,0.0,0.0,0.0,0.0,0.0,0.0,0.0,0.0,0.0,0.0,0.0,0.0,0.0,0.0,0.0,0.0,0.0,0.0,0.0,0.0,0.0,0.0,0.0,0.0,0.0,0.0,0.0,0.0,0.0,0.0,0.0,0.0,0.0,0.0,0.0,0.0,0.0,0.0,0.0,0.0,0.0,0.0,0.0,0.0,0.0,0.0,0.0,0.0,0.0,0.0,0.0,0.0,0.0,0.0,0.0,0.0,0.0,0.0,0.0,0.0,0.0,0.0,0.0,0.0,0.0,0.0,0.0,0.0,0.0,0.0,0.0,0.0,0.0,0.0,0.0,0.0,0.0,0.0,0.0,0.0,0.0,0.0,0.0,0.0,0.0,0.0,0.0,0.0,0.0,0.0,0.0,0.0,0.0,0.0,0.0,0.0,0.0,0.0,0.0,0.0,0.0,0.0,0.0,-0.8813,-0.9868,-1.0809,-1.1525,-0.9792,-0.8955,0.0,0.0,0.0,0.0,0.0,0.0,0.0,0.0,0.0,0.0,0.0,0.0,0.0,0.0,0.0,0.0,0.0,0.0,0.0,0.0,0.0,0.0,0.0,0.0,0.0,0.0,0.0,0.0,0.0,0.0,0.0,0.0,0.0,0.0,0.0,0.0,0.0,0.0,0.0,0.0,0.0,0.0,0.0,0.0,0.0,0.0,0.0,0.0,0.0,0.0,0.0,0.0,0.0,0.0,0.0,0.0,0.0,0.0,0.0,0.0,0.0,0.0,0.0,0.0,0.0,0.0,0.0,0.0,0.0,0.0,0.0,0.0,0.0,0.0,0.0,0.0,0.0,0.0,0.0,0.0,0.0,0.0,0.0,0.0,0.0,0.0,0.0,0.0,0.0,0.0,0.0,0.0,0.0,0.0,0.0,0.0,0.0,0.0,0.0,0.0,0.0,0.0,0.0,0.0,0.0,0.0,0.0,0.0,0.0,-1.018,-1.1199,-1.2052,-1.2672,-1.0819,-0.9766,-0.9614,0.0,0.0,0.0,0.0,0.0,0.0,0.0,0.0,0.0,0.0,0.0,0.0,0.0,0.0,0.0,0.0,0.0,0.0,0.0,0.0,0.0,0.0,0.0,0.0,0.0,0.0,0.0,0.0,0.0,0.0,0.0,0.0,0.0,0.0,0.0,0.0,0.0,0.0,0.0,0.0,0.0,0.0,0.0,0.0,0.0,0.0,0.0,0.0,0.0,0.0,0.0,0.0,0.0,0.0,0.0,0.0,0.0,0.0,0.0,0.0,0.0,0.0,0.0,0.0,0.0,0.0,0.0,0.0,0.0,0.0,0.0,0.0,0.0,0.0,0.0,0.0,0.0,0.0,0.0,0.0,0.0,0.0,0.0,0.0,0.0,0.0,0.0,0.0,0.0,0.0,0.0,0.0,0.0,0.0,0.0,0.0,0.0,0.0,0.0,0.0,0.0,0.0,0.0,0.0,0.0,0.0,0.0,0.0,-1.3323,-1.4475,-1.4551,-1.3486,-1.2768,-1.1069,0.0,0.0,0.0,0.0,0.0,0.0,0.0,0.0,0.0,0.0,0.0,0.0,0.0,0.0,0.0,0.0,0.0,0.0,0.0,0.0,0.0,0.0,0.0,0.0,0.0,0.0,0.0,0.0,0.0,0.0,0.0,0.0,0.0,0.0,0.0,0.0,0.0,0.0,0.0,0.0,0.0,0.0,0.0,0.0,0.0,0.0,0.0,0.0,0.0,0.0,0.0,0.0,0.0,0.0,0.0,0.0,0.0,0.0,0.0,0.0,0.0,0.0,0.0,0.0,0.0,0.0,0.0,0.0,0.0,0.0,0.0,0.0,0.0,0.0,0.0,0.0,0.0,0.0,0.0,0.0,0.0,0.0,0.0,0.0,0.0,0.0,0.0,0.0,0.0,0.0,0.0,0.0,0.0,0.0,0.0,0.0,0.0,0.0,0.0,0.0,0.0,0.0,0.0,0.0,0.0,0.0,0.0,0.0,0.0,-1.5015,-1.6547,-1.6999,-1.6271,-1.3772,-1.2246,0.0,0.0,0.0,0.0,0.0,0.0,0.0,0.0,0.0,0.0,0.0,0.0,0.0,0.0,0.0,0.0,0.0,0.0,0.0,0.0,0.0,0.0,0.0,0.0,0.0,0.0,0.0,0.0,0.0,0.0,0.0,0.0,0.0,0.0,0.0,0.0,0.0,0.0,0.0,0.0,0.0,0.0,0.0,0.0,0.0,0.0,0.0,0.0,0.0,0.0,0.0,0.0,0.0,0.0,0.0,0.0,0.0,0.0,0.0,0.0,0.0,0.0,0.0,0.0,0.0,0.0,0.0,0.0,0.0,0.0,0.0,0.0,0.0,0.0,0.0,0.0,0.0,0.0,0.0,0.0,0.0,0.0,0.0,0.0,0.0,0.0,0.0,0.0,0.0,0.0,0.0,0.0,0.0,0.0,0.0,0.0,0.0,0.0,0.0,0.0,0.0,0.0,0.0,0.0,0.0,0.0,0.0,0.0,-1.4412,-1.6371,-1.8028,-1.8719,-1.8417,-1.563,-1.3699,0.0,0.0,0.0,0.0,0.0,0.0,0.0,0.0,0.0,0.0,0.0,0.0,0.0,0.0,0.0,0.0,0.0,0.0,0.0,0.0,0.0,0.0,0.0,0.0,0.0,0.0,0.0,0.0,0.0,0.0,0.0,0.0,0.0,0.0,0.0,0.0,0.0,0.0,0.0,0.0,0.0,0.0,0.0,0.0,0.0,0.0,0.0,0.0,0.0,0.0,0.0,0.0,0.0,0.0,0.0,0.0,0.0,0.0,0.0,0.0,0.0,0.0,0.0,0.0,0.0,0.0,0.0,0.0,0.0,0.0,0.0,0.0,0.0,0.0,0.0,0.0,0.0,0.0,0.0,0.0,0.0,0.0,0.0,0.0,0.0,0.0,0.0,0.0,0.0,0.0,0.0,0.0,0.0,0.0,0.0,0.0,0.0,0.0,0.0,0.0,0.0,0.0,0.0,0.0,0.0,0.0,0.0,0.0,-1.5822,-1.7451,-1.8995,-1.9798,-1.9736,-1.7664,-1.5316,0.0,0.0,0.0,0.0,0.0,0.0,0.0,0.0,0.0,0.0,0.0,0.0,0.0,0.0,0.0,0.0,0.0,0.0,0.0,0.0,0.0,0.0,0.0,0.0,0.0,0.0,0.0,0.0,0.0,0.0,0.0,0.0,0.0,0.0,0.0,0.0,0.0,0.0,0.0,0.0,0.0,0.0,0.0,0.0,0.0,0.0,0.0,0.0,0.0,0.0,0.0,0.0,0.0,0.0,0.0,0.0,0.0,0.0,0.0,0.0,0.0,0.0,0.0,0.0,0.0,0.0,0.0,0.0,0.0,0.0,0.0,0.0,0.0,0.0,0.0,0.0,0.0,0.0,0.0,0.0,0.0,0.0,0.0,0.0,0.0,0.0,0.0,0.0,0.0,0.0,0.0,0.0,0.0,0.0,0.0,0.0,0.0,0.0,0.0,0.0,0.0,0.0,0.0,0.0,0.0,0.0,0.0,0.0,-1.6333,-1.799,-1.9183,-1.9798,-1.9786,-1.7677,-1.5844,0.0,0.0,0.0,0.0,0.0,0.0,0.0,0.0,0.0,0.0,0.0,0.0,0.0,0.0,0.0,0.0,0.0,0.0,0.0,0.0,0.0,0.0,0.0,0.0,0.0,0.0,0.0,0.0,0.0,0.0,0.0,0.0,0.0,0.0,0.0,0.0,0.0,0.0,0.0,0.0,0.0,0.0,0.0,0.0,0.0,0.0,0.0,0.0,-0.6026,0.0,0.0,0.0,0.0,0.0,0.0,0.0,0.0,0.0,0.0,0.0,0.0,0.0,0.0,0.0,0.0,0.0,0.0,0.0,0.0,0.0,0.0,0.0,0.0,0.0,0.0,0.0,0.0,0.0,0.0,0.0,0.0,0.0,0.0,0.0,0.0,0.0,0.0,0.0,0.0,0.0,0.0,0.0,0.0,0.0,0.0,0.0,0.0,0.0,0.0,0.0,0.0,0.0,0.0,0.0,0.0,0.0,0.0,0.0,-1.6898,-1.8543,-1.9384,-1.9798,-1.9748,-1.843,-1.681,0.0,0.0,0.0,0.0,0.0,0.0,0.0,0.0,0.0,0.0,0.0,0.0,0.0,0.0,0.0,0.0,0.0,0.0,0.0,0.0,0.0,0.0,0.0,0.0,0.0,0.0,0.0,0.0,0.0,0.0,0.0,0.0,0.0,0.0,0.0,0.0,0.0,0.0,0.0,0.0,0.0,0.0,0.0,0.0,0.0,0.0,0.0,0.0,0.0,0.0,0.0,0.0,0.0,0.0,0.0,0.0,0.0,0.0,0.0,0.0,0.0,0.0,0.0,0.0,0.0,0.0,0.0,0.0,0.0,0.0,0.0,0.0,0.0,0.0,0.0,0.0,0.0,0.0,0.0,0.0,0.0,0.0,0.0,0.0,0.0,0.0,0.0,0.0,0.0,0.0,0.0,0.0,0.0,0.0,0.0,0.0,0.0,0.0,0.0,0.0,0.0,0.0,0.0,0.0,0.0,0.0,0.0,-1.5452,-1.73,-1.9021,-1.9572,-1.9798,-1.9798,-1.9296,-1.7714,-1.5016,0.0,0.0,0.0,0.0,0.0,0.0,0.0,0.0,0.0,0.0,0.0,0.0,0.0,0.0,0.0,0.0,0.0,0.0,0.0,0.0,0.0,0.0,0.0,0.0,0.0,0.0,0.0,0.0,0.0,0.0,0.0,0.0,0.0,0.0,0.0,0.0,0.0,0.0,-0.5458,-0.644,0.0,0.0,0.0,0.0,0.0,0.0,0.0,0.0,-0.5127,0.0,0.0,0.0,0.0,0.0,0.0,0.0,0.0,0.0,0.0,0.0,0.0,0.0,0.0,0.0,0.0,0.0,0.0,0.0,0.0,0.0,0.0,0.0,0.0,0.0,0.0,0.0,0.0,0.0,0.0,0.0,0.0,0.0,0.0,0.0,0.0,0.0,0.0,0.0,0.0,0.0,0.0,0.0,0.0,0.0,0.0,0.0,0.0,0.0,0.0,0.0,0.0,0.0,0.0,0.0,0.0,-1.5906,-1.5881,-1.7087,-1.9597,-1.9761,-1.9798,-1.9786,-1.9246,-1.7727,-1.5041,0.0,0.0,0.0,0.0,0.0,0.0,0.0,0.0,0.0,0.0,0.0,0.0,0.0,0.0,0.0,0.0,0.0,0.0,0.0,0.0,0.0,0.0,0.0,0.0,0.0,0.0,0.0,0.0,0.0,0.0,0.0,0.0,0.0,0.0,0.0,0.0,0.0,0.0,0.0,-0.7121,-0.7647,0.0,0.0,0.0,0.0,0.0,0.0,0.0,0.0,-0.5227,0.0,0.0,0.0,0.0,0.0,0.0,0.0,0.0,0.0,0.0,0.0,0.0,0.0,0.0,0.0,0.0,0.0,0.0,0.0,0.0,0.0,0.0,0.0,0.0,0.0,0.0,0.0,0.0,0.0,0.0,0.0,0.0,0.0,0.0,0.0,0.0,0.0,0.0,0.0,0.0,0.0,0.0,0.0,0.0,0.0,0.0,0.0,0.0,0.0,0.0,0.0,0.0,0.0,0.0,0.0,-1.553,-1.681,-1.8191,-1.9736,-1.9798,-1.9798,-1.9773,-1.8744,-1.7137,0.0,0.0,0.0,0.0,0.0,0.0,0.0,0.0,0.0,0.0,0.0,0.0,0.0,0.0,0.0,0.0,0.0,0.0,0.0,0.0,0.0,0.0,0.0,0.0,0.0,0.0,0.0,0.0,0.0,0.0,0.0,0.0,0.0,0.0,0.0,0.0,0.0,0.0,0.0,0.0,-0.7749,-0.815,-0.8744,0.0,0.0,0.0,0.0,0.0,0.0,-0.6645,-0.586,0.0,0.0,0.0,0.0,0.0,0.0,0.0,0.0,0.0,0.0,0.0,0.0,0.0,0.0,0.0,0.0,0.0,0.0,0.0,0.0,0.0,0.0,0.0,0.0,0.0,0.0,0.0,0.0,0.0,0.0,0.0,0.0,0.0,0.0,0.0,0.0,0.0,0.0,0.0,0.0,0.0,0.0,0.0,0.0,0.0,0.0,0.0,0.0,0.0,0.0,0.0,0.0,0.0,0.0,0.0,-1.4916,-1.74,-1.9058,-1.9761,-1.9798,-1.9798,-1.9773,-1.8342,-1.6753,0.0,0.0,0.0,0.0,0.0,0.0,0.0,0.0,0.0,0.0,0.0,0.0,0.0,0.0,0.0,0.0,0.0,0.0,0.0,0.0,0.0,0.0,0.0,0.0,0.0,0.0,0.0,0.0,0.0,0.0,0.0,0.0,0.0,0.0,0.0,0.0,0.0,0.0,0.0,0.0,0.0,-0.8744,-0.919,-0.844,0.0,0.0,0.0,0.0,-0.8055,-0.7308,0.0,0.0,0.0,0.0,0.0,0.0,0.0,0.0,0.0,0.0,0.0,0.0,0.0,0.0,0.0,0.0,0.0,0.0,0.0,0.0,0.0,0.0,0.0,0.0,0.0,0.0,0.0,0.0,0.0,0.0,0.0,0.0,0.0,0.0,0.0,0.0,0.0,0.0,0.0,0.0,0.0,0.0,0.0,0.0,0.0,0.0,0.0,0.0,0.0,0.0,0.0,0.0,0.0,0.0,0.0,0.0,-1.4865,-1.6647,-1.8292,-1.971,-1.9798,-1.9798,-1.9786,-1.8706,-1.7099,0.0,0.0,0.0,0.0,0.0,0.0,0.0,0.0,0.0,0.0,0.0,0.0,0.0,0.0,0.0,0.0,0.0,0.0,0.0,0.0,0.0,0.0,0.0,0.0,0.0,0.0,0.0,0.0,0.0,0.0,0.0,0.0,0.0,0.0,0.0,0.0,0.0,0.0,0.0,0.0,0.0,-0.9259,-0.9586,-0.9077,-0.8646,0.0,0.0,-0.888,-0.9013,-0.9004,0.0,0.0,0.0,0.0,0.0,0.0,0.0,0.0,0.0,0.0,0.0,0.0,0.0,0.0,0.0,0.0,0.0,0.0,0.0,0.0,0.0,0.0,0.0,0.0,0.0,0.0,0.0,0.0,0.0,0.0,0.0,0.0,0.0,0.0,0.0,0.0,0.0,0.0,0.0,0.0,0.0,0.0,0.0,0.0,0.0,0.0,0.0,0.0,0.0,0.0,0.0,0.0,0.0,0.0,0.0,-1.3044,-1.4928,-1.7426,-1.9095,-1.9773,-1.9798,-1.9798,-1.9798,-1.8141,-1.6509,0.0,0.0,0.0,0.0,0.0,0.0,0.0,0.0,0.0,0.0,0.0,0.0,0.0,0.0,0.0,0.0,0.0,0.0,0.0,0.0,0.0,0.0,0.0,0.0,0.0,0.0,0.0,0.0,0.0,0.0,0.0,0.0,0.0,0.0,0.0,0.0,0.0,0.0,0.0,0.0,0.0,0.0,-0.951,-0.9396,0.0,0.0,0.0,-0.9552,-0.9713,0.0,0.0,0.0,0.0,0.0,0.0,0.0,0.0,0.0,0.0,0.0,0.0,0.0,0.0,0.0,0.0,0.0,0.0,0.0,0.0,0.0,0.0,0.0,0.0,0.0,0.0,0.0,0.0,0.0,0.0,0.0,0.0,0.0,0.0,0.0,0.0,0.0,0.0,0.0,0.0,0.0,0.0,0.0,0.0,0.0,0.0,0.0,0.0,0.0,0.0,0.0,0.0,0.0,0.0,0.0,0.0,0.0,-1.4953,-1.8129,-1.9798,-1.9798,-1.9798,-1.9798,-1.9773,-1.8066,0.0,0.0,0.0,0.0,0.0,0.0,0.0,0.0,0.0,0.0,0.0,0.0,0.0,0.0,0.0,0.0,0.0,0.0,0.0,0.0,0.0,0.0,0.0,0.0,0.0,0.0,0.0,-0.5524,0.0,0.0,0.0,0.0,0.0,0.0,0.0,0.0,0.0,0.0,0.0,0.0,0.0,0.0,-0.979,-0.9731,-1.0217,-1.0509,0.0,0.0,-1.0205,-1.0187,-1.0325,-1.006,0.0,0.0,0.0,0.0,0.0,0.0,0.0,0.0,0.0,0.0,0.0,0.0,0.0,0.0,0.0,0.0,0.0,0.0,0.0,0.0,0.0,0.0,0.0,0.0,0.0,0.0,0.0,0.0,0.0,0.0,0.0,0.0,0.0,0.0,0.0,0.0,0.0,0.0,0.0,0.0,0.0,0.0,0.0,0.0,0.0,0.0,0.0,0.0,0.0,0.0,0.0,0.0,0.0,0.0,-1.3772,-1.4927,-1.8129,-1.9798,-1.9798,-1.9798,-1.9798,-1.9798,-1.9196,-1.7601,0.0,0.0,0.0,0.0,0.0,0.0,0.0,0.0,0.0,0.0,0.0,0.0,0.0,0.0,0.0,0.0,0.0,0.0,0.0,0.0,0.0,0.0,0.0,0.0,0.0,0.0,0.0,0.0,0.0,0.0,0.0,0.0,0.0,0.0,0.0,0.0,0.0,0.0,0.0,0.0,0.0,-1.1159,-1.0661,-1.1936,-1.2381,0.0,-1.1199,-1.1418,-1.0647,-1.0989,-1.0758,-0.905,0.0,0.0,0.0,0.0,0.0,0.0,0.0,0.0,0.0,0.0,0.0,0.0,0.0,0.0,0.0,0.0,0.0,0.0,0.0,0.0,0.0,0.0,0.0,0.0,0.0,0.0,0.0,0.0,0.0,0.0,0.0,0.0,0.0,0.0,0.0,0.0,0.0,0.0,0.0,0.0,0.0,0.0,0.0,0.0,0.0,0.0,0.0,0.0,0.0,0.0,0.0,0.0,0.0,-1.3785,-1.4928,-1.8129,-1.9798,-1.9798,-1.9798,-1.9798,-1.9798,-1.9258,-1.7877,0.0,0.0,0.0,0.0,0.0,0.0,0.0,0.0,0.0,0.0,0.0,0.0,0.0,0.0,0.0,0.0,0.0,0.0,0.0,0.0,0.0,0.0,0.0,0.0,0.0,0.0,0.0,0.0,-0.8393,-0.8375,-0.7689,0.0,0.0,0.0,0.0,0.0,0.0,0.0,0.0,0.0,0.0,-1.2443,-1.318,-1.3626,0.0,0.0,-1.246,-1.2131,-1.1222,-1.1136,-1.0728,-0.9535,-0.9167,0.0,0.0,0.0,0.0,0.0,0.0,0.0,0.0,0.0,0.0,0.0,0.0,0.0,0.0,0.0,0.0,0.0,0.0,0.0,0.0,0.0,0.0,0.0,0.0,0.0,0.0,0.0,0.0,0.0,0.0,0.0,0.0,0.0,0.0,0.0,0.0,0.0,0.0,0.0,0.0,0.0,0.0,0.0,0.0,0.0,0.0,0.0,0.0,0.0,0.0,0.0,0.0,-1.3824,-1.5116,-1.8204,-1.9798,-1.9798,-1.9798,-1.9798,-1.9786,-1.9447,-1.8292,0.0,0.0,0.0,0.0,0.0,0.0,0.0,0.0,0.0,0.0,0.0,0.0,0.0,0.0,0.0,0.0,0.0,0.0,0.0,0.0,0.0,0.0,0.0,0.0,0.0,0.0,0.0,0.0,-0.9184,-0.9078,-0.8228,0.0,0.0,0.0,0.0,0.0,0.0,0.0,0.0,0.0,0.0,-1.3908,-1.4907,-1.4795,-1.4353,-1.3518,-1.294,-1.2219,-1.1296,-1.1041,-1.0587,-0.9827,0.0,0.0,0.0,0.0,0.0,0.0,0.0,0.0,0.0,0.0,0.0,0.0,0.0,0.0,0.0,0.0,0.0,0.0,0.0,0.0,0.0,0.0,0.0,0.0,0.0,0.0,0.0,-0.6683,0.0,0.0,-0.5926,0.0,0.0,0.0,0.0,0.0,0.0,0.0,0.0,0.0,0.0,0.0,0.0,0.0,0.0,0.0,0.0,0.0,0.0,0.0,0.0,0.0,0.0,-1.3999,-1.5668,-1.8405,-1.9798,-1.9798,-1.9798,-1.9798,-1.9798,-1.9786,-1.9007,-1.735,0.0,0.0,0.0,0.0,0.0,0.0,0.0,0.0,0.0,0.0,0.0,0.0,0.0,0.0,0.0,0.0,0.0,0.0,0.0,0.0,0.0,0.0,0.0,0.0,0.0,0.0,-0.7295,-0.8281,-0.8989,0.0,0.0,0.0,0.0,0.0,0.0,0.0,0.0,0.0,-1.2409,-1.4368,-1.5558,-1.5449,-1.5475,-1.4897,-1.3146,-1.2353,-1.1575,-1.0876,-1.0685,-1.0375,0.0,0.0,0.0,0.0,0.0,0.0,0.0,0.0,0.0,0.0,0.0,0.0,0.0,0.0,0.0,0.0,0.0,0.0,0.0,0.0,0.0,0.0,0.0,0.0,0.0,0.0,0.0,-0.9274,-0.8375,0.0,0.0,0.0,0.0,0.0,0.0,0.0,0.0,0.0,0.0,0.0,-1.3474,-1.4526,0.0,0.0,0.0,0.0,0.0,0.0,0.0,0.0,0.0,0.0,0.0,0.0,-1.3531,-1.5743,-1.8405,-1.9798,-1.9798,-1.9798,-1.9798,-1.9798,-1.9798,-1.8808,-1.6665,0.0,0.0,0.0,0.0,0.0,0.0,0.0,0.0,0.0,0.0,0.0,0.0,0.0,0.0,0.0,0.0,0.0,0.0,0.0,0.0,0.0,0.0,0.0,0.0,0.0,-0.8213,0.0,0.0,0.0,0.0,0.0,0.0,0.0,0.0,0.0,0.0,-1.1099,-1.2467,-1.4102,-1.4965,-1.5779,-1.6596,-1.6773,-1.6505,0.0,0.0,0.0,0.0,0.0,0.0,0.0,0.0,0.0,0.0,0.0,0.0,0.0,0.0,-0.9977,-0.8388,-0.8321,-0.8337,-0.7775,0.0,0.0,0.0,0.0,0.0,0.0,0.0,0.0,0.0,0.0,0.0,0.0,0.0,0.0,-1.2041,-1.1173,-1.0756,0.0,0.0,0.0,0.0,0.0,0.0,0.0,0.0,-1.5978,-1.6608,-1.6095,-1.7384,-1.8426,-1.9243,-1.7465,-1.5178,0.0,0.0,0.0,0.0,0.0,0.0,0.0,0.0,-1.3736,-1.6241,-1.8593,-1.9798,-1.9798,-1.9798,-1.9798,-1.9798,-1.9798,-1.8995,-1.7235,-1.6818,-1.5082,0.0,0.0,0.0,0.0,0.0,0.0,0.0,0.0,0.0,0.0,0.0,0.0,0.0,0.0,0.0,0.0,0.0,0.0,0.0,0.0,0.0,0.0,0.0,-0.8828,0.0,0.0,0.0,0.0,0.0,0.0,0.0,0.0,0.0,-1.1339,-1.2608,-1.4061,-1.5439,-1.5927,-1.6416,-1.7266,0.0,0.0,0.0,0.0,0.0,0.0,0.0,-1.2597,-1.3179,-1.2662,-1.2513,-1.3415,-1.3374,-1.3208,-1.3091,0.0,0.0,-1.0354,-1.0254,-1.025,-0.9746,-0.9888,-1.0078,-0.9663,-0.9807,-0.9896,0.0,0.0,0.0,0.0,-1.5179,0.0,0.0,0.0,-1.5992,-1.5591,0.0,-1.386,0.0,0.0,0.0,0.0,-1.2693,-1.4751,0.0,0.0,-1.9623,-1.9822,-1.8447,-1.99,-2.1006,-2.1465,-2.0332,-1.8982,-1.7458,-1.5369,0.0,0.0,0.0,0.0,0.0,0.0,-1.4605,-1.74,-1.9045,-1.9861,-1.9874,-1.9874,-1.9861,-1.9836,-1.9811,-1.9547,-1.9058,-1.9439,-1.7862,-1.386,-0.997,0.0,0.0,0.0,0.0,0.0,0.0,0.0,0.0,0.0,0.0,0.0,0.0,0.0,0.0,0.0,0.0,0.0,0.0,0.0,0.0,-0.8522,0.0,0.0,0.0,0.0,0.0,0.0,0.0,0.0,0.0,-1.3407,-1.297,-1.416,-1.5532,-1.6563,0.0,0.0,0.0,0.0,-1.6072,-1.5761,-1.4687,-1.4018,-1.4043,-1.4323,-1.4314,-1.3629,0.0,0.0,-1.3272,-1.3112,-1.3127,-1.2675,-1.3355,-1.34,-1.2607,-1.2184,-1.1944,-1.1917,-1.1686,-1.1632,-1.1895,-1.1992,-1.1827,-2.1829,0.0,0.0,0.0,0.0,-1.9433,-1.9739,-2.0235,-1.9746,-1.8977,-1.7978,-1.713,0.0,0.0,0.0,0.0,0.0,0.0,-1.8066,-1.9133,-2.024,-2.0657,-2.0582,-2.1056,-2.1733,-2.2577,-2.1542,-2.0765,-2.03,-1.966,-1.7124,-1.2843,0.0,0.0,0.0,0.0,-1.4959,-1.8409,-2.0175,-2.1016,-2.1016,-2.1004,-2.0815,-2.0426,-2.0012,-1.9736,-1.9585,-1.9744,-1.8592,-1.5957,-1.3047,0.0,0.0,0.0,0.0,0.0,0.0,0.0,0.0,0.0,0.0,0.0,0.0,0.0,0.0,0.0,0.0,0.0,0.0,0.0,-0.897,-0.9853,-1.0332,0.0,0.0,0.0,0.0,0.0,0.0,0.0,0.0,0.0,-1.5998,-1.5888,-1.6162,0.0,0.0,-1.7031,-1.7344,-1.7417,-1.7628,-1.8107,-1.7672,0.0,-1.7665,-1.6654,-1.6213,-1.7358,-1.8513,-1.9177,-1.8876,-1.8432,-1.8074,-1.7874,-1.6805,-1.5826,-1.5555,-1.4337,-1.3548,-1.346,-1.354,-1.3642,-1.3742,-1.3961,-1.4076,-2.6316,-2.3963,-2.2686,-2.2512,-2.3012,-2.3012,-2.3336,-2.3885,-2.344,-2.2798,-2.207,-2.0893,-1.9959,-1.9287,-1.8532,0.0,0.0,0.0,-2.0426,-2.1468,-2.1581,-2.1838,-2.2135,-2.2138,-2.2457,-2.3058,-2.2445,-2.2033,-2.1794,-2.1594,-1.9585,-1.5969,0.0,-1.5894,-1.599,-1.4994,-1.6184,-1.9584,-2.1326,-2.1949,-2.1493,-2.1481,-2.133,-2.1004,-2.0492,-2.0137,-2.0137,-1.9914,-1.9045,-1.7352,-1.4846,-1.2735,0.0,0.0,0.0,0.0,0.0,0.0,0.0,0.0,0.0,0.0,0.0,-0.7547,-0.6562,0.0,0.0,0.0,-0.861,-0.9408,-1.0526,-1.1091,0.0,0.0,0.0,0.0,0.0,0.0,0.0,-1.5002,-1.6143,-1.7031,-1.7559,-1.7314,-1.7344,-1.8047,-1.7764,-1.7705,-1.8301,0.0,-1.9014,-1.9697,-1.957,-1.9492,-1.9746,-1.8966,-1.8543,-1.9503,-1.9928,-2.0182,-2.0356,-2.0041,-1.9747,-1.9592,-1.8729,-1.7814,-1.7777,-1.6484,-1.521,-1.4656,-1.4603,-1.4663,-1.473,-1.4877,-1.5,-2.9729,-2.951,-2.6601,-2.5707,-2.6083,-2.6068,-2.6403,-2.6823,-2.677,-2.6697,-2.6511,-2.4651,-2.3748,-2.357,-2.1818,0.0,-2.1769,-2.2284,-2.3062,-2.4042,-2.3502,-2.3157,-2.3082,-2.3193,-2.3215,-2.3276,-2.3263,-2.3012,-2.2523,-2.202,-2.1179,-2.0087,-2.0075,-1.9723,-1.8946,-1.751,-1.809,-2.0715,-2.2308,-2.2631,-2.1631,-2.1581,-2.1531,-2.1481,-2.1008,-2.0706,-2.063,-2.0087,-1.9304,-1.8217,-1.586,-1.4082,-1.2936,0.0,0.0,0.0,0.0,0.0,0.0,0.0,0.0,0.0,0.0,0.0,0.0,0.0,0.0,-0.9631,-1.0566,0.0,-1.2248,-1.2336,0.0,0.0,0.0,-1.3603,-1.4902,-1.5742,-1.6387,-1.6836,0.0,0.0,-1.8203,-1.8545,-1.8965,-1.9434,-1.9062,-1.9033,-1.9853,-1.9961,-2.0156,-2.0547,-2.0644,-2.0664,-2.0684,-2.0879,-2.0985,-2.0567,-1.9583,-1.9341,-1.9615,-1.9613,-1.9445,-1.963,-1.9642,-1.9678,-1.9326,-1.8411,-1.7313,-1.5569,-1.5191,-1.5082,-1.5079,-1.5137,-1.5097,-3.1061,-3.0959,-3.0256,-2.943,-2.8702,-2.8702,-2.8777,-2.8857,-2.8254,-2.7979,-2.7854,-2.6185,-2.5158,-2.4493,-2.4003,-2.3904,-2.4042,-2.4167,-2.4368,-2.4619,-2.4481,-2.3951,-2.3143,-2.3976,-2.4355,-2.4418,-2.4355,-2.4356,-2.423,-2.4092,-2.3452,-2.2397,-2.2289,-2.1187,-1.9083,-1.9019,-1.9751,-2.128,-2.2508,-2.2949,-2.2723,-2.2334,-2.192,-2.1493,-2.0953,-2.0464,-2.0024,-1.9886,-1.9684,-1.938,-1.7701,-1.6207,-1.5015,-1.2345,0.0,0.0,0.0,0.0,0.0,0.0,0.0,0.0,0.0,-0.9889,-0.7631,0.0,-1.0391,0.0,-1.1992,-1.3115,-1.3581,-1.3682,0.0,0.0,-1.501,-1.5459,-1.7051,-1.7422,-1.7715,-1.8135,-1.8655,-1.9278,-1.9853,-2.0049,-2.0391,-2.1133,-2.0312,-1.9805,-2.0332,-2.0713,-2.0957,-2.1094,-2.1377,-2.1572,-2.1592,-2.1948,-2.2148,-2.1968,-2.1939,-2.2051,-2.2155,-2.2174,-2.2174,-2.2193,-2.2213,-2.1894,-2.0927,-1.9892,-1.8624,-1.7298,-1.6323,-1.5585,-1.5571,-1.5645,-1.5631,-3.211,-3.1497,-3.1839,-3.121,-3.0013,-3.0313,-3.0447,-3.0391,-3.0009,-2.9752,-2.9695,-2.8493,-2.7515,-2.6658,-2.6658,-2.6479,-2.6103,-2.6103,-2.5919,-2.5536,-2.5285,-2.4953,-2.4607,-2.4728,-2.5062,-2.5524,-2.5062,-2.4833,-2.4833,-2.4833,-2.4506,-2.3891,-2.3891,-2.3,-2.1249,-2.0747,-2.0877,-2.1493,-2.2318,-2.2888,-2.304,-2.2836,-2.2309,-2.1506,-2.0953,-2.0288,-1.9484,-1.9233,-1.9095,-1.9021,-1.7692,-1.6505,-1.5629,-1.3173,-1.1094,0.0,0.0,0.0,0.0,0.0,0.0,0.0,0.0,0.0,0.0,0.0,-1.1494,-1.1504,-1.3066,-1.4248,-1.4668,-1.5002,-1.5732,-1.6816,-1.6875,-1.7383,-1.8721,-1.8857,-1.9092,-1.9642,-1.9989,-2.0411,-2.1105,-2.116,-2.1413,-2.208,-2.1533,-2.1162,-2.1387,-2.166,-2.1865,-2.1977,-2.2295,-2.2441,-2.2441,-2.2637,-2.2793,-2.2803,-2.2978,-2.3144,-2.3144,-2.3144,-2.3144,-2.3057,-2.3066,-2.2938,-2.2236,-2.1114,-2.0034,-1.9322,-1.7837,-1.6564,-1.5933,-1.5825,-1.5825,-3.3095,-3.1824,-3.2613,-3.2118,-3.0941,-3.164,-3.1642,-3.1228,-3.1285,-3.1215,-3.1174,-3.0642,-2.9884,-2.8989,-2.9085,-2.8688,-2.7855,-2.7723,-2.7364,-2.662,-2.6005,-2.6025,-2.647,-2.5479,-2.5521,-2.6414,-2.5483,-2.5034,-2.5034,-2.5034,-2.4958,-2.4833,-2.4833,-2.4506,-2.3853,-2.2531,-2.1813,-2.187,-2.2196,-2.2648,-2.3065,-2.3,-2.2397,-2.133,-2.0815,-2.0037,-1.897,-1.8468,-1.8204,-1.8157,-1.7095,-1.6268,-1.5773,-1.3726,-1.2188,0.0,-1.0332,0.0,0.0,0.0,0.0,0.0,0.0,0.0,0.0,-1.2462,-1.2608,-1.2715,-1.4121,-1.5244,-1.5771,-1.6523,-1.7259,-1.8154,-1.8574,-1.9058,-1.9961,-2.0088,-2.04,-2.1221,-2.1293,-2.1471,-2.1918,-2.199,-2.2119,-2.2709,-2.2869,-2.28,-2.2804,-2.2634,-2.2676,-2.3096,-2.3144,-2.3037,-2.3066,-2.3105,-2.3115,-2.3125,-2.3125,-2.3144,-2.3144,-2.3144,-2.3144,-2.3144,-2.3057,-2.3057,-2.3144,-2.2208,-2.148,-2.1114,-1.9379,-1.7572,-1.64,-1.592,-1.5825,-3.4478,-3.3246,-3.4607,-3.4302,-3.3006,-3.375,-3.2516,-2.9953,-2.9953,-2.9873,-2.9813,-3.0618,-3.0267,-2.9058,-2.9578,-2.9408,-2.8748,-2.8051,-2.7604,-2.7471,-2.6667,-2.6382,-2.6488,-2.6282,-2.6269,-2.6481,-2.6257,-2.6151,-2.6219,-2.6151,-2.5699,-2.4845,-2.4833,-2.4318,-2.3351,0.0,0.0,0.0,-2.3229,-2.3025,-2.31,-2.2259,-2.1267,-2.0175,-2.0024,0.0,-1.843,-1.8254,-1.8204,-1.8204,-1.7954,0.0,0.0,0.0,0.0,0.0,0.0,0.0,0.0,0.0,0.0,0.0,-1.3213,-1.3173,-1.2842,-1.4014,-1.4951,-1.5312,-1.5967,-1.6826,-1.791,-1.8174,-1.8623,-1.9434,-1.9629,-2.0019,-2.0859,-2.0977,-2.1191,-2.168,-2.1791,-2.1928,-2.2389,-2.2399,-2.2938,-2.4122,-2.4418,-2.4333,-2.4322,-2.3574,-2.3047,-2.3135,-2.3144,-2.3144,-2.3144,-2.3144,-2.3144,-2.3144,-2.3144,-2.3144,-2.3144,-2.3144,-2.3144,-2.3144,-2.3144,-2.3144,-2.3144,-2.2872,-2.2394,-2.1489,-2.0145,-1.8766,-1.7617,-1.648,-1.5825,-3.5792,-3.4268,-3.5672,-3.5475,0.0,-3.4958,-3.392,-3.1669,-3.1591,-3.1441,-3.1395,-3.2027,-3.193,-3.119,-3.1267,-3.0831,-3.0037,-2.9317,-2.8748,-2.8298,-2.7484,-2.687,-2.6515,-2.6501,-2.6521,-2.6521,-2.6521,-2.6521,-2.6521,-2.6521,-2.6176,-2.5624,-2.5636,-2.5347,-2.4795,-2.5114,-2.5154,-2.4774,-2.3986,-2.3565,-2.354,-2.3012,-2.2058,-2.069,-2.0363,0.0,0.0,0.0,0.0,0.0,0.0,0.0,0.0,0.0,0.0,-1.5554,-1.4173,-1.3755,-1.4612,-1.4165,-1.4384,-1.5629,-1.591,-1.5693,-1.4844,-1.5957,-1.6875,-1.7295,-1.7549,-1.8105,-1.9131,-1.9268,-1.9619,-2.0439,-2.0362,-2.0624,-2.1416,-2.1673,-2.2076,-2.2806,-2.2539,-2.2742,-2.4315,-2.3947,-2.424,-2.543,-2.563,-2.563,-2.5546,-2.4628,-2.38,-2.3222,-2.3144,-2.3144,-2.3144,-2.3144,-2.3144,-2.3144,-2.3144,-2.3144,-2.3144,-2.3144,-2.3144,-2.3144,-2.3144,-2.3144,-2.3144,-2.3144,-2.295,-2.2171,-2.0747,-1.9453,-1.8577,-1.7117,-1.5825,-3.7172,-3.5383,-3.6798,-3.6567,-3.5407,-3.6077,-3.5642,-3.4455,-3.3817,0.0,0.0,-3.3621,-3.3604,-3.3469,-3.3051,-3.2389,-3.1555,-3.0953,-3.0278,-2.9511,-2.8673,-2.7934,-2.734,-2.7146,-2.7114,-2.7114,-2.6833,-2.6714,-2.6714,-2.6589,-2.6521,-2.6521,-2.6521,-2.6521,-2.6521,-2.6521,-2.6219,-2.5588,-2.4659,-2.4104,-2.4004,-2.3803,-2.2949,-2.138,-2.0957,-2.02,-1.9196,-1.8731,-1.8493,-1.8493,-1.8007,-1.7799,-1.7846,-1.7295,-1.7209,-1.7668,-1.695,-1.7135,-1.8589,-1.7529,-1.7287,-1.8499,-1.8767,-1.8345,-1.7041,-1.7868,-1.8686,-1.9031,-1.9273,-1.9695,-2.0547,-2.0496,-2.0834,-2.18,-2.1201,-2.1167,-2.2369,-2.2644,-2.3197,-2.4198,-2.3877,-2.4001,-2.6008,-2.5601,-2.5502,-2.6524,-2.6801,-2.6801,-2.6648,-2.563,-2.4296,-2.3299,-2.3144,-2.3144,-2.3144,-2.3144,-2.3144,-2.3144,-2.3144,-2.3144,-2.3144,-2.3144,-2.3144,-2.3144,-2.3144,-2.3144,-2.3144,-2.3144,-2.3144,-2.3135,-2.1425,-1.9823,-1.9653,-1.7878,-1.6143,-3.8834,-3.7476,-3.9027,-3.8784,-3.7431,-3.8182,-3.7991,-3.707,-3.4742,-3.3676,-3.3681,-3.4182,-3.4023,-3.3529,-3.3978,-3.3826,-3.3166,-3.2305,-3.1881,-3.169,-3.0946,-3.0455,-3.0306,-2.98,-2.9515,-2.9408,-2.816,-2.7537,-2.7484,-2.685,-2.6521,-2.6521,-2.6521,-2.6521,-2.6521,-2.6521,-2.6445,-2.6312,-2.5275,-2.4469,-2.4004,-2.305,-2.1983,-2.0907,-2.0794,-2.0363,-1.9723,-1.961,-1.9572,-1.9585,-1.9458,-1.9683,-2.0157,-1.9516,-1.9373,-1.9871,-1.9217,-1.8935,-1.9199,-1.9282,-1.9791,-2.0829,-2.1729,-2.1005,-1.8182,-1.942,-2.0542,-2.0959,-2.1732,-2.27,-2.3522,-2.2817,-2.2886,-2.4159,-2.2608,-2.2311,-2.4788,-2.4686,-2.4816,-2.5991,-2.6091,-2.587,-2.6464,-2.6405,-2.6653,-2.7599,-2.7855,-2.7855,-2.7522,-2.6108,-2.4457,-2.3387,-2.3144,-2.3144,-2.3144,-2.3144,-2.3144,-2.3144,-2.3144,-2.3144,-2.3144,-2.3144,-2.3144,-2.3144,-2.3144,-2.3144,-2.3144,-2.3144,-2.3144,-2.3038,-2.1876,-2.0995,-2.0801,-1.8875,-1.7006,-3.9437,-3.8596,-3.961,-3.9679,-3.9065,-3.9385,-3.9385,-3.8912,-3.7264,-3.607,-3.5341,-3.5554,-3.5243,-3.4577,-3.4502,-3.4322,-3.4008,-3.3247,-3.2882,-3.2819,-3.2076,-3.1673,-3.1579,-3.0918,-3.0349,-2.9951,-2.9299,-2.8739,-2.8325,-2.7537,-2.7175,-2.7095,-2.6714,-2.6521,-2.6521,-2.6521,-2.6521,-2.6521,-2.5963,-2.5435,-2.487,-2.4092,-2.3301,-2.2485,-2.1907,-2.1443,-2.1167,-2.0878,-2.0715,-2.0715,-2.0715,-2.084,-2.1091,-2.0828,-2.0883,-2.1342,-2.0665,-2.0674,-2.1813,-2.1879,-2.1832,-2.1835,-2.2464,-2.2317,-2.0823,-2.1663,-2.2295,-2.2513,-2.3194,-2.3835,-2.4284,-2.4117,-2.4481,-2.5419,-2.427,-2.4261,-2.5931,-2.707,-2.7418,-2.7302,-2.6883,-2.6976,-2.8131,-2.7722,-2.7801,-2.876,-2.9015,-2.8767,-2.8255,-2.7267,-2.5942,-2.4382,-2.356,-2.3135,-2.3135,-2.3144,-2.3144,-2.3144,-2.3144,-2.3144,-2.3144,-2.3144,-2.3144,-2.3144,-2.3144,-2.3144,-2.3144,-2.3144,-2.3144,-2.3028,-2.2117,-2.1253,-2.0344,-1.8381,-1.6651,-3.9731,-3.9246,-3.9833,-4.0087,-4.0087,-4.0087,-4.0087,-4.002,-3.942,-3.8398,-3.7188,-3.6783,-3.6275,-3.5737,-3.5048,-3.4696,-3.4637,-3.4173,-3.3948,-3.3871,-3.326,-3.2925,-3.2832,-3.2168,-3.1485,-3.0954,-3.0558,-3.0037,-2.9428,-2.8495,-2.7999,-2.792,-2.7162,-2.6782,-2.6782,-2.6602,-2.6521,-2.6521,-2.6521,-2.6176,-2.5611,-2.5197,-2.4732,-2.4167,-2.3351,-2.2874,-2.2862,-2.2347,-2.2058,-2.2033,-2.1933,-2.192,-2.2046,-2.2046,-2.2309,-2.2739,-2.2237,-2.2543,-2.3966,-2.4075,-2.3668,-2.3061,-2.3445,-2.3675,-2.3722,-2.4137,-2.4281,-2.4157,-2.4602,-2.5136,-2.5449,-2.5555,-2.5924,-2.6553,-2.6109,-2.6211,-2.7256,-2.8748,-2.9496,-2.8534,-2.7706,-2.7959,-2.9147,-2.9015,-2.8876,-2.9537,-2.9779,-2.9378,-2.8688,-2.8347,-2.7267,-2.5942,-2.4628,-2.3887,-2.3551,-2.3551,-2.3387,-2.3222,-2.3144,-2.3144,-2.3144,-2.3144,-2.3144,-2.3144,-2.3144,-2.3144,-2.3144,-2.3144,-2.3144,-2.3038,-2.2358,-2.1307,-1.9786,-1.8295,-1.6452,-4.007,-4.002,-4.007,-4.0087,-4.0087,-4.0087,-4.0087,-4.007,-4.002,-3.9489,-3.8564,-3.7247,-3.6615,-3.6384,-3.5755,-3.5434,-3.5434,-3.534,-3.528,-3.5265,-3.5245,-3.518,-3.5046,-3.446,-3.4148,-3.3769,-3.2096,-3.1157,-3.0922,-2.9582,-2.8876,-2.8734,-2.7986,-2.7604,-2.755,-2.6918,-2.6521,-2.6521,-2.6521,-2.6189,-2.5636,-2.5548,-2.5272,-2.4757,-2.4644,-2.4594,-2.4481,-2.4067,-2.3753,-2.3728,-2.3251,-2.3226,-2.3678,-2.3753,-2.3991,-2.4494,-2.4416,-2.4593,-2.477,-2.5169,-2.5324,-2.5348,-2.5741,-2.6052,-2.6089,-2.6574,-2.6527,-2.5949,-2.6504,-2.7285,-2.83,-2.7613,-2.7699,-2.8807,-2.8052,-2.7929,-2.9094,-2.9686,-2.9777,-2.9661,-2.9365,-2.9624,-2.9689,-2.9626,-2.9651,-2.9854,-2.9892,-2.9852,-2.9642,-2.8937,-2.8423,-2.7765,-2.6883,-2.5819,-2.4967,-2.4628,-2.4211,-2.3387,-2.3144,-2.3144,-2.3144,-2.3144,-2.3144,-2.3144,-2.3144,-2.3144,-2.3144,-2.3144,-2.3144,-2.3047,-2.2746,-2.2138,-2.0161,-1.9139,-1.8218,-4.0087,-4.0087,-4.0087,-4.0087,-4.0087,-4.0087,-4.0087,-4.0087,-4.0087,-3.9901,-3.9489,-3.8453,-3.7716,-3.7263,-3.6523,-3.6415,-3.6784,-3.591,-3.5718,-3.6054,-3.5733,-3.5489,-3.5459,-3.5235,-3.4891,-3.4487,-3.3561,-3.2901,-3.235,-3.1042,-2.9855,-2.9044,-2.862,-2.8492,-2.8427,-2.8117,-2.7736,-2.7217,-2.7229,-2.6857,-2.6168,-2.5774,-2.5498,-2.5272,-2.4983,-2.4833,-2.4808,-2.4594,-2.4481,-2.4481,-2.4243,-2.423,-2.4469,-2.4494,-2.4582,-2.4833,-2.5109,-2.5285,-2.5285,-2.5799,-2.6101,-2.6101,-2.6314,-2.664,-2.6929,-2.7183,-2.7338,-2.7668,-2.7977,-2.8473,-2.8813,-2.882,-2.9052,-2.9574,-2.9238,-2.9147,-2.9689,-2.9779,-2.9779,-2.9779,-2.9779,-2.9779,-2.9779,-2.9779,-2.993,-3.0168,-3.0281,-3.0331,-3.0633,-3.0307,-3.0121,-3.0003,-2.9391,-2.8035,-2.6313,-2.521,-2.4713,-2.4125,-2.3551,-2.3135,-2.3135,-2.3144,-2.3144,-2.3144,-2.3144,-2.3144,-2.3144,-2.3144,-2.3135,-2.3047,-2.2394,-2.1695,-2.0663,-2.0011,-1.8812,-4.0206,-4.0358,-4.0392,-4.0257,-4.0087,-4.0087,-4.0087,-4.0087,-4.0087,-4.0087,-4.002,-3.9489,-3.8941,-3.8318,-3.7381,-3.7263,-3.7589,-3.66,-3.629,-3.6554,-3.607,-3.5668,-3.5489,-3.5489,-3.525,-3.4801,-3.4547,-3.4113,-3.3438,-3.2426,-3.118,-3.0092,-2.9743,-2.9533,-2.9331,-2.9129,-2.8684,-2.8103,-2.8038,-2.767,-2.6909,-2.6362,-2.6079,-2.5866,-2.5473,-2.5272,-2.5272,-2.5121,-2.5034,-2.5034,-2.4908,-2.4883,-2.5034,-2.5034,-2.5096,-2.5285,-2.5624,-2.5837,-2.5837,-2.6214,-2.6521,-2.6546,-2.6647,-2.6854,-2.7227,-2.7582,-2.8094,-2.8698,-2.9001,-2.9151,-2.9214,-2.9541,-2.9767,-2.9779,-2.9779,-2.9779,-2.9779,-2.9779,-2.9779,-2.9779,-2.9779,-2.9779,-2.9779,-2.9804,-2.998,-3.0457,-3.0608,-3.0796,-3.1248,-3.1348,-3.1336,-3.1361,-3.0947,-2.9646,-2.7567,-2.6113,-2.5411,-2.4882,-2.4211,-2.3212,-2.3387,-2.3387,-2.3135,-2.3144,-2.3144,-2.3144,-2.3144,-2.3144,-2.3144,-2.295,-2.2394,-2.1667,-2.1221,-2.0456,-1.9629,-4.0493,-4.1119,-4.1153,-4.0764,-4.0104,-4.0155,-4.0121,-4.0223,-4.0138,-4.0104,-4.0138,-4.0003,-4.002,-3.9782,-3.843,-3.7806,-3.7822,-3.769,-3.7279,-3.6783,-3.6615,-3.6165,-3.5489,-3.5489,-3.5474,-3.5325,-3.4831,-3.4203,-3.3559,-3.3408,-3.305,-3.2303,-3.1518,-3.0845,-3.0276,-2.9574,-2.9002,-2.8939,-2.8925,-2.8505,-2.7736,-2.7564,-2.7139,-2.6501,-2.6364,-2.6302,-2.6289,-2.585,-2.5561,-2.5561,-2.5146,-2.5084,-2.5498,-2.5573,-2.5787,-2.6332,-2.6377,-2.6471,-2.6458,-2.6496,-2.6521,-2.6584,-2.6904,-2.7258,-2.7436,-2.8154,-2.8712,-2.89,-2.9441,-2.9691,-2.9691,-2.9729,-2.9779,-2.9779,-2.9779,-2.9779,-2.9779,-2.9779,-2.9779,-2.9779,-2.9779,-2.9779,-2.9779,-2.9779,-3.0068,-3.0482,-3.0645,-3.0884,-3.1424,-3.1499,-3.1524,-3.1424,-3.1016,-3.0196,-2.8985,-2.7392,-2.6577,-2.6124,-2.5062,-2.3551,-2.38,-2.3963,-2.3474,-2.3144,-2.3144,-2.3144,-2.3144,-2.3144,-2.3144,-2.3047,-2.3047,-2.2492,-2.1845,-2.1475,-2.0678,-4.166,-4.1897,-4.1914,-4.1728,-4.1508,-4.1491,-4.1491,-4.1457,-4.1001,-4.0798,-4.0713,-4.0307,-4.0087,-4.007,-3.9506,-3.9295,-3.9172,-3.8278,-3.7905,-3.7987,-3.7616,-3.6919,-3.6275,-3.6228,-3.5943,-3.5524,-3.5265,-3.4786,-3.4173,-3.4113,-3.3799,-3.3245,-3.2852,-3.2343,-3.1751,-3.1392,-3.0809,-2.9917,-2.9827,-2.9129,-2.7868,-2.7749,-2.7297,-2.6589,-2.6521,-2.6521,-2.6521,-2.6251,-2.6138,-2.6151,-2.5963,-2.595,-2.6126,-2.6151,-2.6226,-2.6427,-2.6521,-2.6521,-2.6521,-2.6521,-2.6521,-2.6559,-2.6979,-2.749,-2.7851,-2.8497,-2.9063,-2.939,-2.9603,-2.9779,-2.9779,-2.9779,-2.9779,-2.9779,-2.9779,-2.9779,-2.9779,-2.9779,-2.9779,-2.9779,-2.9779,-2.9779,-2.9867,-2.9792,-3.0131,-3.0922,-3.111,-3.1512,-3.2227,-3.2466,-3.2416,-3.2378,-3.2014,-3.146,-3.1187,-2.8949,-2.7499,-2.711,-2.6323,-2.4946,-2.4628,-2.3973,-2.3387,-2.3299,-2.3222,-2.3144,-2.3144,-2.3144,-2.3144,-2.3144,-2.3144,-2.296,-2.2589,-2.2183,-2.1646,-4.2506,-4.2337,-4.2557,-4.2506,-4.2303,-4.2303,-4.2303,-4.2236,-4.1779,-4.1559,-4.1407,-4.0781,-4.0443,-4.0392,-4.0206,-4.0087,-4.002,-3.8995,-3.8635,-3.8854,-3.8374,-3.7716,-3.71,-3.6964,-3.6569,-3.5894,-3.5619,-3.525,-3.4861,-3.4801,-3.4457,-3.3844,-3.3814,-3.3484,-3.2946,-3.2826,-3.2168,-3.1202,-3.1024,-3.024,-2.8725,-2.8247,-2.7723,-2.6973,-2.6645,-2.6521,-2.6521,-2.6521,-2.6521,-2.6521,-2.6521,-2.6521,-2.6521,-2.6521,-2.6521,-2.6521,-2.6521,-2.6521,-2.6521,-2.6521,-2.6502,-2.6571,-2.7205,-2.7745,-2.8258,-2.8812,-2.9352,-2.9691,-2.9779,-2.9779,-2.9779,-2.9779,-2.9779,-2.9779,-2.9779,-2.9779,-2.9779,-2.9779,-2.9905,-3.004,-3.0294,-3.0344,-3.0303,-3.0357,-3.0771,-3.1562,-3.1662,-3.2064,-3.283,-3.3081,-3.3081,-3.3031,-3.2503,-3.2303,-3.1909,-3.0339,-2.9093,-2.8736,-2.7133,-2.5946,-2.5126,-2.4296,-2.3551,-2.3551,-2.3387,-2.3222,-2.3144,-2.3144,-2.3144,-2.3144,-2.3144,-2.3047,-2.296,-2.3047,-2.2394,-4.3014,-4.2557,-4.3115,-4.3064,-4.2557,-4.2523,-4.2388,-4.2455,-4.2354,-4.2303,-4.2202,-4.1525,-4.1204,-4.1068,-4.051,-4.0138,-4.0172,-3.9952,-3.9542,-3.9032,-3.8962,-3.8541,-3.7806,-3.779,-3.7322,-3.6492,-3.5846,-3.5554,-3.5415,-3.537,-3.507,-3.4577,-3.4487,-3.4158,-3.3499,-3.3484,-3.317,-3.2542,-3.2393,-3.1707,-3.0369,-2.9477,-2.8702,-2.7789,-2.7121,-2.6714,-2.6645,-2.6521,-2.6521,-2.6521,-2.6521,-2.6521,-2.6521,-2.6521,-2.6521,-2.6521,-2.6521,-2.6521,-2.6521,-2.649,-2.6609,-2.6661,-2.7501,-2.8245,-2.867,-2.9252,-2.9729,-2.9767,-2.9779,-2.9779,-2.9779,-2.9779,-2.9779,-2.9779,-2.9779,-2.9779,-2.9779,-2.9817,-3.0068,-3.0553,-3.0929,-3.1342,-3.1397,-3.1254,-3.1436,-3.1913,-3.2114,-3.2328,-3.2918,-3.3081,-3.3081,-3.2993,-3.2742,-3.2579,-3.224,-3.1788,-3.1066,-3.0171,-2.8104,-2.6461,-2.6202,-2.5546,-2.4221,-2.3887,-2.3387,-2.3135,-2.3144,-2.3144,-2.3144,-2.3144,-2.3144,-2.3144,-2.3144,-2.3144,-2.3144,-4.4079,-4.3893,-4.4113,-4.4096,-4.3876,-4.3876,-4.3859,-4.3775,-4.3318,-4.3064,-4.2912,-4.2269,-4.1948,-4.1779,-4.1187,-4.0849,-4.0798,-4.0358,-3.9952,-3.9731,-3.9731,-3.9315,-3.869,-3.858,-3.7873,-3.6783,-3.6399,-3.6006,-3.5619,-3.5489,-3.537,-3.522,-3.5175,-3.4816,-3.4203,-3.4143,-3.3844,-3.3275,-3.3185,-3.267,-3.1647,-3.0917,-3.0108,-2.9309,-2.8592,-2.8247,-2.8168,-2.7095,-2.6521,-2.6521,-2.6521,-2.6521,-2.6521,-2.6521,-2.6521,-2.6521,-2.6521,-2.6521,-2.6571,-2.6804,-2.6851,-2.6909,-2.779,-2.8561,-2.8749,-2.9403,-2.9767,-2.9779,-2.9779,-2.9779,-2.9779,-2.9779,-2.9779,-2.9779,-2.9779,-2.9779,-2.9829,-3.0143,-3.0583,-3.1072,-3.1311,-3.1424,-3.1405,-3.1436,-3.1712,-3.2139,-3.2252,-3.2466,-3.2918,-3.3081,-3.3081,-3.3043,-3.2867,-3.2692,-3.2403,-3.1938,-3.1273,-3.0641,-2.8976,-2.7685,-2.7383,-2.6284,-2.5052,-2.3973,-2.3387,-2.3135,-2.3135,-2.3144,-2.3144,-2.3144,-2.3144,-2.3144,-2.3144,-2.3144,-2.3144,-4.457,-4.457,-4.457,-4.457,-4.457,-4.457,-4.457,-4.4519,-4.4079,-4.3859,-4.3707,-4.3047,-4.2692,-4.2557,-4.1948,-4.1457,-4.117,-4.0696,-4.0358,-4.0104,-4.0087,-3.9782,-3.9315,-3.9032,-3.8453,-3.7541,-3.6904,-3.6399,-3.5943,-3.5604,-3.5489,-3.5489,-3.5489,-3.5295,-3.4891,-3.4846,-3.4532,-3.3948,-3.3858,-3.3461,-3.2713,-3.1942,-3.1332,-3.0735,-2.9909,-2.9425,-2.9256,-2.8106,-2.7417,-2.7364,-2.7175,-2.6837,-2.6589,-2.6521,-2.6521,-2.6521,-2.6477,-2.654,-2.6823,-2.708,-2.7276,-2.7309,-2.8188,-2.8988,-2.9126,-2.9603,-2.9767,-2.9779,-2.9779,-2.9779,-2.9779,-2.9779,-2.9779,-2.9779,-2.9779,-2.9779,-2.988,-3.0457,-3.0972,-3.1373,-3.1763,-3.1951,-3.2014,-3.2026,-3.2152,-3.2466,-3.2528,-3.2591,-3.298,-3.3081,-3.3068,-3.298,-3.2742,-3.2629,-3.2604,-3.2064,-3.1361,-3.0698,-2.9801,-2.9124,-2.8706,-2.6891,-2.5473,-2.3973,-2.3135,-2.3135,-2.3144,-2.3144,-2.3144,-2.3144,-2.3174,-2.3144,-2.3144,-2.3144,-2.3144,-4.457,-4.457,-4.457,-4.4519,-4.4451,-4.4451,-4.435,-4.4367,-4.4418,-4.435,-4.4231,-4.3741,-4.347,-4.3318,-4.2692,-4.2016,-4.1356,-4.1153,-4.0696,-4.0223,-4.0087,-4.002,-3.9901,-3.9385,-3.8962,-3.8509,-3.7467,-3.6783,-3.643,-3.5958,-3.5554,-3.5504,-3.5489,-3.5489,-3.54,-3.5474,-3.513,-3.4622,-3.4532,-3.4262,-3.3615,-3.283,-3.2391,-3.2298,-3.1083,-3.0367,-3.0199,-2.9561,-2.9066,-2.8876,-2.8051,-2.7284,-2.6714,-2.6521,-2.6533,-2.6622,-2.6584,-2.6841,-2.7193,-2.7494,-2.7626,-2.794,-2.8575,-2.9189,-2.9628,-2.9729,-2.9779,-2.9779,-2.9779,-2.9779,-2.9779,-2.9779,-2.9779,-2.9779,-2.9779,-2.9804,-2.993,-3.0758,-3.1298,-3.1612,-3.2353,-3.3043,-3.2905,-3.2918,-3.2955,-3.2993,-3.298,-3.3018,-3.3043,-3.3068,-3.3043,-3.2842,-3.2528,-3.2328,-3.2215,-3.1605,-3.1004,-3.1016,-3.0276,-2.9671,-2.894,-2.7113,-2.5389,-2.3973,-2.3144,-2.3144,-2.3184,-2.3213,-2.3262,-2.333,-2.3291,-2.3193,-2.3106,-2.3164,-2.3144,-4.457,-4.457,-4.457,-4.4248,-4.3775,-4.3724,-4.3403,-4.3014,-4.3521,-4.3741,-4.3775,-4.413,-4.4181,-4.4181,-4.3453,-4.2709,-4.1999,-4.1441,-4.0798,-4.0172,-4.0087,-4.0087,-4.007,-3.9901,-3.9489,-3.8908,-3.8398,-3.77,-3.6661,-3.6399,-3.5991,-3.5504,-3.5504,-3.5489,-3.5489,-3.5489,-3.5429,-3.5265,-3.522,-3.5145,-3.4906,-3.4222,-3.3888,-3.3813,-3.297,-3.2273,-3.1804,-3.1174,-3.0208,-2.9002,-2.8182,-2.7604,-2.7364,-2.6863,-2.6791,-2.7094,-2.715,-2.7318,-2.7833,-2.8235,-2.8375,-2.8175,-2.9024,-2.9616,-2.9754,-2.9779,-2.9779,-2.9779,-2.9779,-2.9779,-2.9779,-2.9779,-2.9779,-2.9779,-2.9779,-2.9942,-3.0382,-3.0972,-3.1524,-3.1976,-3.2641,-3.2993,-3.3081,-3.3081,-3.3081,-3.3081,-3.3081,-3.3031,-3.298,-3.2955,-3.288,-3.2419,-3.2106,-3.1951,-3.1662,-3.1079,-3.0854,-3.1173,-3.0524,-2.9616,-2.8395,-2.6561,-2.4904,-2.3474,-2.3135,-2.3144,-2.3281,-2.3379,-2.3447,-2.3564,-2.3545,-2.3516,-2.3417,-2.3427,-2.3145,-4.457,-4.457,-4.457,-4.413,-4.3453,-4.3403,-4.2997,-4.2455,-4.2743,-4.3149,-4.347,-4.3876,-4.4282,-4.4519,-4.4096,-4.3267,-4.232,-4.1847,-4.1085,-4.0172,-4.0087,-4.0087,-4.007,-4.007,-3.9833,-3.9437,-3.9032,-3.8453,-3.7584,-3.6964,-3.6384,-3.6006,-3.5683,-3.5489,-3.5489,-3.5489,-3.5489,-3.5489,-3.5489,-3.5489,-3.5459,-3.513,-3.4966,-3.4786,-3.4247,-3.3514,-3.2617,-3.2138,-3.1204,-2.9837,-2.9066,-2.862,-2.8208,-2.7706,-2.7516,-2.7793,-2.7754,-2.7871,-2.8373,-2.8775,-2.89,-2.8898,-2.9514,-2.9729,-2.9779,-2.9779,-2.9779,-2.9779,-2.9779,-2.9779,-2.9779,-2.9779,-2.9779,-2.9779,-2.9779,-3.003,-3.057,-3.106,-3.1612,-3.2152,-3.2692,-3.3081,-3.3081,-3.3081,-3.3081,-3.3081,-3.3081,-3.2905,-3.2717,-3.2717,-3.2516,-3.1955,-3.1567,-3.1361,-3.1097,-3.0578,-3.0444,-3.0696,-3.0195,-2.9326,-2.8011,-2.6245,-2.4838,-2.365,-2.3349,-2.3193,-2.3359,-2.3564,-2.3779,-2.3857,-2.3857,-2.375,-2.3662,-2.3535,-2.3271,-4.457,-4.457,-4.457,-4.413,-4.347,-4.3318,-4.2777,-4.2236,-4.2168,-4.2574,-4.3166,-4.3369,-4.3927,-4.4553,-4.4265,-4.3606,-4.2286,-4.2049,-4.1221,-4.0426,-4.0087,-4.0087,-4.0087,-4.0087,-4.007,-3.9901,-3.9315,-3.8978,-3.8398,-3.7365,-3.6737,-3.6399,-3.5846,-3.5554,-3.5489,-3.5489,-3.5489,-3.5489,-3.5489,-3.5489,-3.5489,-3.5415,-3.537,-3.528,-3.4711,-3.3933,-3.311,-3.2572,-3.1885,-3.0696,-3.0534,-2.9969,-2.9273,-2.8865,-2.8713,-2.8634,-2.8464,-2.8436,-2.89,-2.9076,-2.9239,-2.9616,-2.9729,-2.9779,-2.9779,-2.9779,-2.9779,-2.9779,-2.9779,-2.9779,-2.9779,-2.9779,-2.9779,-2.9779,-2.9779,-3.0055,-3.0608,-3.111,-3.1587,-3.2089,-3.2654,-3.3018,-3.3081,-3.3081,-3.3081,-3.3081,-3.3043,-3.2842,-3.2579,-3.2428,-3.1905,-3.1173,-3.0904,-3.0683,-3.0432,-3.0156,-3.0146,-3.0093,-2.9382,-2.8559,-2.771,-2.6214,-2.4788,-2.3867,-2.3506,-2.3359,-2.3457,-2.3701,-2.3945,-2.4053,-2.3984,-2.3959,-2.3841,-2.3605,-2.3378,-4.457,-4.457,-4.457,-4.413,-4.3386,-4.2794,-4.2117,-4.1474,-4.1457,-4.1863,-4.2557,-4.3149,-4.3826,-4.4536,-4.3978,-4.3149,-4.2269,-4.1728,-4.0916,-4.0206,-4.0087,-4.0087,-4.0087,-4.0087,-4.0087,-4.002,-3.9969,-3.9489,-3.8799,-3.7962,-3.7219,-3.6569,-3.5894,-3.5489,-3.5489,-3.5489,-3.5489,-3.5489,-3.5489,-3.5489,-3.5489,-3.5489,-3.5489,-3.5444,-3.4876,-3.4412,-3.3993,-3.3227,-3.2763,-3.2522,-3.174,-3.1032,-3.0637,-2.986,-2.9678,-2.9781,-2.925,-2.9001,-2.9453,-2.9732,-2.9616,-2.9756,-2.9973,-2.9779,-2.9779,-2.9856,-2.9869,-2.9792,-2.9779,-2.9779,-2.9779,-2.9779,-2.9779,-2.9779,-2.9842,-3.0181,-3.0959,-3.1298,-3.1474,-3.1775,-3.2478,-3.3081,-3.3068,-3.3068,-3.3068,-3.3081,-3.2968,-3.2792,-3.2478,-3.2152,-3.1455,-3.0686,-3.0515,-3.0357,-3.0156,-2.9967,-3.0007,-2.9777,-2.8974,-2.7988,-2.7228,-2.6217,-2.4836,-2.4017,-2.3585,-2.3545,-2.3584,-2.3672,-2.3887,-2.3994,-2.4131,-2.4092,-2.3945,-2.3693,-2.3555,-4.457,-4.457,-4.457,-4.413,-4.3369,-4.2608,-4.1863,-4.1221,-4.0798,-4.1288,-4.2202,-4.276,-4.3504,-4.4468,-4.3758,-4.3014,-4.2151,-4.1153,-4.0476,-4.0121,-4.0087,-4.0087,-4.0087,-4.0087,-4.0087,-4.0087,-4.007,-3.9662,-3.8924,-3.8133,-3.7322,-3.6631,-3.5894,-3.5554,-3.5489,-3.5489,-3.5489,-3.5489,-3.5489,-3.5489,-3.5489,-3.5489,-3.5489,-3.5474,-3.513,-3.4846,-3.4397,-3.3853,-3.3496,-3.3376,-3.2919,-3.2449,-3.2222,-3.1613,-3.1392,-3.1404,-3.0566,-3.0637,-3.1206,-3.0838,-3.0265,-2.9896,-3.0527,-3.0465,-3.0252,-3.0139,-3.0216,-2.9934,-2.9779,-2.9779,-2.9779,-2.9779,-2.9779,-2.9842,-3.003,-3.0444,-3.0922,-3.1235,-3.1524,-3.1825,-3.2566,-3.2767,-3.2842,-3.2918,-3.3068,-3.3081,-3.3006,-3.2792,-3.1989,-3.1625,-3.111,-3.057,-3.0319,-3.0105,-2.9917,-2.9829,-2.9945,-2.9596,-2.8968,-2.794,-2.6967,-2.5968,-2.4908,-2.4145,-2.3467,-2.3633,-2.3682,-2.3769,-2.3848,-2.4082,-2.4166,-2.4146,-2.4044,-2.3818,-2.3735,-4.457,-4.4553,-4.4451,-4.4079,-4.3487,-4.2557,-4.1931,-4.1525,-4.0612,-4.1136,-4.21,-4.2303,-4.3132,-4.3961,-4.3538,-4.2828,-4.1948,-4.1052,-4.0375,-4.0104,-4.0087,-4.0087,-4.0087,-4.0087,-4.0087,-4.0087,-4.0087,-3.9662,-3.9086,-3.8262,-3.7515,-3.6753,-3.5894,-3.5554,-3.5489,-3.5489,-3.5489,-3.5489,-3.5489,-3.5489,-3.5489,-3.5489,-3.5489,-3.5474,-3.5444,-3.519,-3.4816,-3.4468,-3.4244,-3.3873,-3.4185,-3.4125,-3.3817,-3.344,-3.3197,-3.3174,-3.2072,-3.2044,-3.2527,-3.2139,-3.1349,-3.0507,-3.155,-3.1712,-3.0742,-3.0651,-3.0506,-3.0062,-2.9779,-2.9779,-2.9779,-2.9779,-2.9779,-2.9854,-3.0231,-3.0482,-3.067,-3.1022,-3.1399,-3.1926,-3.2495,-3.2878,-3.2714,-3.2717,-3.2918,-3.3068,-3.298,-3.2667,-3.1851,-3.1185,-3.0733,-3.0331,-3.008,-2.9993,-2.9829,-2.9817,-2.9919,-2.9836,-2.9144,-2.8194,-2.7147,-2.6466,-2.5527,-2.3947,-2.3408,-2.3574,-2.3623,-2.3545,-2.3721,-2.4102,-2.4117,-2.3997,-2.3938,-2.3832,-2.3773,-4.457,-4.4519,-4.3893,-4.3876,-4.4012,-4.2252,-4.2016,-4.2726,-4.1508,-4.1508,-4.2202,-4.232,-4.2844,-4.3301,-4.2844,-4.21,-4.1525,-4.0984,-4.0612,-4.0172,-4.0087,-4.0087,-4.0087,-4.0087,-4.0087,-4.0087,-4.007,-3.9952,-3.9437,-3.8541,-3.7806,-3.7338,-3.6243,-3.5604,-3.5604,-3.5489,-3.5489,-3.5489,-3.5489,-3.5489,-3.5489,-3.5489,-3.5489,-3.5489,-3.5489,-3.54,-3.5355,-3.5295,-3.5265,-3.5205,-3.5265,-3.5205,-3.4927,-3.4236,-3.3946,-3.3776,-3.3353,-3.309,-3.3195,-3.3132,-3.3032,-3.2969,-3.2917,-3.2475,-3.1723,-3.1267,-3.0833,-3.0139,-2.9779,-2.9779,-2.9779,-2.9779,-2.9779,-2.9829,-2.9967,-3.0206,-3.0532,-3.0809,-3.1035,-3.1499,-3.2257,-3.2874,-3.2592,-3.2554,-3.2943,-3.3006,-3.2867,-3.2428,-3.165,-3.106,-3.057,-3.0193,-2.9854,-2.9817,-2.9792,-2.9829,-2.9905,-3.0218,-2.9744,-2.9027,-2.8105,-2.7391,-2.6291,-2.4226,-2.3369,-2.3555,-2.3516,-2.3369,-2.3389,-2.3603,-2.3641,-2.3767,-2.3725,-2.3702,-2.3823,-4.3978,-4.391,-4.3166,-4.3047,-4.3098,-4.1863,-4.1813,-4.2591,-4.1694,-4.161,-4.2252,-4.2692,-4.3047,-4.325,-4.3098,-4.2286,-4.1457,-4.1204,-4.0781,-4.0223,-4.0087,-4.0087,-4.0087,-4.0087,-4.0087,-4.0087,-4.007,-3.9833,-3.942,-3.8816,-3.8206,-3.7573,-3.6585,-3.6054,-3.5943,-3.5668,-3.5554,-3.5489,-3.5489,-3.5489,-3.5489,-3.5489,-3.5489,-3.5489,-3.5489,-3.5489,-3.5489,-3.5489,-3.5489,-3.5474,-3.5489,-3.5489,-3.5344,-3.5133,-3.4758,-3.4616,-3.4206,-3.4128,-3.4209,-3.4339,-3.4254,-3.5296,-3.4596,-3.4051,-3.341,-3.2684,-3.122,-3.0216,-2.9779,-2.9779,-2.9779,-2.9779,-2.9779,-2.9854,-3.0005,-3.0294,-3.0557,-3.0821,-3.0934,-3.106,-3.1838,-3.225,-3.2104,-3.229,-3.2893,-3.2968,-3.2792,-3.2227,-3.1524,-3.1035,-3.0583,-3.0131,-2.9842,-2.9917,-2.9917,-2.9955,-3.0143,-3.0365,-3.0261,-2.9542,-2.8571,-2.7702,-2.585,-2.365,-2.3418,-2.3516,-2.3379,-2.3223,-2.3174,-2.3144,-2.3242,-2.3477,-2.3506,-2.3575,-2.3641,-4.3403,-4.3335,-4.2439,-4.2151,-4.2134,-4.1339,-4.1491,-4.2016,-4.1525,-4.161,-4.232,-4.2878,-4.3217,-4.342,-4.3403,-4.2861,-4.1508,-4.1457,-4.095,-4.0206,-4.0087,-4.0087,-4.0087,-4.0087,-4.0087,-4.0087,-4.007,-3.9782,-3.9368,-3.8962,-3.8525,-3.7946,-3.7128,-3.66,-3.6446,-3.5846,-3.5604,-3.5489,-3.5489,-3.5489,-3.5489,-3.5489,-3.5489,-3.5489,-3.5489,-3.5489,-3.5489,-3.5489,-3.5489,-3.5489,-3.5489,-3.5489,-3.5489,-3.5489,-3.5489,-3.5359,-3.4794,-3.5333,-3.5459,-3.5413,-3.5263,-3.6179,-3.5651,-3.5163,-3.4264,-3.2585,-3.1193,-3.0139,-2.9779,-2.9779,-2.9779,-2.9779,-2.9779,-2.9854,-3.0143,-3.0444,-3.0457,-3.0545,-3.0557,-3.0863,-3.1508,-3.1668,-3.1644,-3.2072,-3.2696,-3.293,-3.2754,-3.2428,-3.1763,-3.1198,-3.0708,-3.0168,-2.9917,-3.0043,-3.0093,-3.0131,-3.0407,-3.0821,-3.0448,-2.9856,-2.8769,-2.7587,-2.5763,-2.4262,-2.3369,-2.3408,-2.3242,-2.3144,-2.3144,-2.3144,-2.3144,-2.3164,-2.332,-2.335,-2.3487,-4.3403,-4.3301,-4.1914,-4.1694,-4.1999,-4.0815,-4.1018,-4.2083,-4.1542,-4.1627,-4.2303,-4.2489,-4.298,-4.3487,-4.4096,-4.3453,-4.2506,-4.1897,-4.1238,-4.0223,-4.0087,-4.0087,-4.0087,-4.0087,-4.0087,-4.0087,-4.0087,-4.0087,-3.9731,-3.9246,-3.8962,-3.8509,-3.7483,-3.66,-3.6676,-3.5894,-3.5489,-3.5489,-3.5489,-3.5489,-3.5489,-3.5489,-3.5489,-3.5489,-3.5489,-3.5489,-3.5489,-3.5489,-3.5489,-3.5489,-3.5489,-3.5489,-3.5489,-3.5489,-3.5489,-3.5669,-3.5842,-3.6,-3.5768,-3.5725,-3.5511,-3.5614,-3.4831,-3.3865,-3.2931,-3.1743,-3.0419,-2.9921,-2.9779,-2.9779,-2.9779,-2.9779,-2.9779,-2.9804,-2.9917,-2.998,-3.0005,-3.0206,-3.0218,-3.0297,-3.077,-3.112,-3.1329,-3.1909,-3.2462,-3.2609,-3.2679,-3.234,-3.1851,-3.1185,-3.067,-3.0093,-2.9955,-3.008,-3.0281,-3.0319,-3.062,-3.1097,-3.0716,-3.0181,-2.9084,-2.7894,-2.7016,-2.5665,-2.4395,-2.3291,-2.3203,-2.3144,-2.3144,-2.3144,-2.3144,-2.3144,-2.3144,-2.3164,-2.3271,-4.3403,-4.3284,-4.1813,-4.1373,-4.1525,-4.0527,-4.0663,-4.1542,-4.1813,-4.1982,-4.2455,-4.3284,-4.3792,-4.4028,-4.4062,-4.3301,-4.2388,-4.1897,-4.1136,-4.029,-4.0087,-4.0087,-4.0087,-4.0087,-4.0087,-4.0087,-4.0087,-4.0087,-3.9952,-3.9833,-3.961,-3.9315,-3.8133,-3.7338,-3.704,-3.607,-3.5604,-3.5489,-3.5489,-3.5489,-3.5489,-3.5489,-3.5489,-3.5489,-3.5489,-3.5489,-3.5489,-3.5489,-3.5489,-3.5489,-3.5489,-3.5489,-3.5489,-3.5489,-3.5504,-3.5534,-3.5729,-3.5759,-3.5609,-3.5804,-3.5406,-3.475,-3.4052,-3.3394,-3.2105,-3.1119,-3.0216,-2.9792,-2.9792,-2.9779,-2.9779,-2.9779,-2.9779,-2.9779,-2.9779,-2.9779,-2.9779,-2.9779,-2.988,-2.9945,-3.0072,-3.0486,-3.0947,-3.1572,-3.2075,-3.2319,-3.2315,-3.2064,-3.1461,-3.0708,-3.0281,-2.9917,-2.9955,-3.0118,-3.0369,-3.0532,-3.0783,-3.1097,-3.0871,-3.0226,-2.9318,-2.8327,-2.7439,-2.6025,-2.4173,-2.3441,-2.3173,-2.3144,-2.3144,-2.3144,-2.3144,-2.3144,-2.3144,-2.3144,-2.3154,-4.3707,-4.3555,-4.2083,-4.1373,-4.117,-4.0595,-4.0561,-4.0967,-4.166,-4.21,-4.2675,-4.3758,-4.4434,-4.4215,-4.3623,-4.2946,-4.1982,-4.1441,-4.0781,-4.0307,-4.0087,-4.0087,-4.0087,-4.0087,-4.0087,-4.0087,-4.0087,-4.0087,-4.0087,-4.007,-4.002,-4.002,-3.843,-3.7879,-3.7354,-3.6368,-3.5489,-3.5489,-3.5489,-3.5489,-3.5489,-3.5489,-3.5489,-3.5489,-3.5489,-3.5489,-3.5489,-3.5489,-3.5489,-3.5489,-3.5489,-3.5489,-3.5489,-3.5489,-3.5489,-3.5504,-3.5594,-3.5579,-3.5519,-3.5484,-3.4927,-3.4389,-3.3448,-3.2749,-3.1193,-3.0833,-3.0696,-2.9792,-2.9792,-2.9779,-2.9779,-2.9779,-2.9779,-2.9779,-2.9779,-2.9779,-2.9779,-2.9779,-2.9779,-2.9804,-2.9945,-2.9967,-3.0583,-3.1279,-3.1647,-3.1964,-3.1901,-3.1738,-3.116,-3.0419,-3.0181,-2.9942,-3.0093,-3.0344,-3.0708,-3.0922,-3.1122,-3.1122,-3.0922,-3.0386,-2.9555,-2.8742,-2.7917,-2.6157,-2.4167,-2.3408,-2.3153,-2.3105,-2.3144,-2.3144,-2.3144,-2.3144,-2.3144,-2.3144,-2.3144,-4.4502,-4.4367,-4.2861,-4.1847,-4.1238,-4.1153,-4.073,-4.0341,-4.1001,-4.1711,-4.2455,-4.3707,-4.3995,-4.3572,-4.32,-4.2489,-4.1322,-4.1221,-4.0696,-4.0273,-4.0087,-4.0087,-4.0087,-4.0087,-4.0087,-4.0087,-4.0087,-4.0087,-4.007,-3.9901,-4.002,-3.985,-3.8557,-3.7994,-3.7294,-3.6243,-3.5554,-3.5489,-3.5489,-3.5489,-3.5489,-3.5489,-3.5489,-3.5489,-3.5489,-3.5489,-3.5489,-3.5489,-3.5489,-3.5489,-3.5489,-3.5489,-3.5489,-3.5489,-3.5489,-3.5489,-3.5489,-3.5489,-3.5489,-3.5344,-3.5279,-3.4839,-3.3616,-3.1842,-3.0355,-2.9998,-2.9792,-2.9869,-2.9779,-2.9779,-2.9779,-2.9779,-2.9779,-2.9779,-2.9779,-2.9779,-2.9779,-2.9779,-2.9779,-2.9779,-2.9829,-2.9917,-2.9967,-3.0683,-3.1117,-3.1373,-3.1424,-3.1273,-3.1009,-3.0419,-3.0281,-3.0181,-3.0306,-3.0633,-3.116,-3.1336,-3.1298,-3.1286,-3.1173,-3.0595,-2.9874,-2.9029,-2.7962,-2.6427,-2.4556,-2.3801,-2.3114,-2.3096,-2.3144,-2.3144,-2.3144,-2.3144,-2.3144,-2.3144,-2.3144,-4.3876,-4.3792,-4.3217,-4.2557,-4.1796,-4.0899,-4.0341,-4.024,-4.0882,-4.161,-4.2337,-4.2878,-4.3014,-4.2675,-4.2185,-4.1813,-4.117,-4.0663,-4.0358,-4.0189,-4.0087,-4.0087,-4.0087,-4.0087,-4.0087,-4.0087,-4.0087,-4.0087,-4.007,-3.9765,-3.9782,-3.9454,-3.8486,-3.7616,-3.6874,-3.6133,-3.5604,-3.5489,-3.5489,-3.5489,-3.5489,-3.5489,-3.5489,-3.5489,-3.5489,-3.5489,-3.5489,-3.5489,-3.5489,-3.5489,-3.5489,-3.5489,-3.5489,-3.5489,-3.5489,-3.5489,-3.5424,-3.5424,-3.5279,-3.4839,-3.4109,-3.2763,-3.1636,-3.0646,-2.9869,-2.9792,-2.9779,-2.9779,-2.9779,-2.9779,-2.9779,-2.9779,-2.9779,-2.9779,-2.9779,-2.9779,-2.9779,-2.9779,-2.9779,-2.9779,-2.9779,-2.9817,-2.9919,-3.002,-3.0394,-3.0771,-3.0809,-3.0796,-3.0545,-3.0357,-3.0181,-3.008,-3.0168,-3.0595,-3.111,-3.1273,-3.1361,-3.1348,-3.1323,-3.0683,-2.9914,-2.8573,-2.7428,-2.6106,-2.4924,-2.376,-2.3065,-2.3096,-2.3144,-2.3144,-2.3144,-2.3144,-2.3144,-2.3144,-2.3144,-4.3081,-4.3047,-4.2861,-4.2455,-4.1847,-4.0865,-4.0273,-4.0273,-4.0865,-4.161,-4.2286,-4.2303,-4.2151,-4.1863,-4.1508,-4.1052,-4.0781,-4.0375,-4.0172,-4.0087,-4.0087,-4.0087,-4.0087,-4.0087,-4.0087,-4.0087,-4.0087,-4.0087,-4.007,-3.9542,-3.9489,-3.9279,-3.8486,-3.7573,-3.6995,-3.6006,-3.5489,-3.5489,-3.5489,-3.5489,-3.5489,-3.5489,-3.5489,-3.5489,-3.5489,-3.5489,-3.5489,-3.5489,-3.5489,-3.5489,-3.5489,-3.5489,-3.5489,-3.5489,-3.5489,-3.5424,-3.5213,-3.5067,-3.4839,-3.4394,-3.3087,-3.1756,-3.097,-3.0355,-2.9869,-2.9779,-2.9779,-2.9779,-2.9779,-2.9779,-2.9779,-2.9779,-2.9779,-2.9779,-2.9779,-2.9779,-2.9779,-2.9779,-2.9779,-2.9779,-2.9779,-2.9779,-2.9792,-2.9894,-3.0058,-3.0294,-3.0294,-3.0281,-3.0143,-3.0005,-2.993,-2.9867,-2.988,-3.0407,-3.0947,-3.0997,-3.1022,-3.1009,-3.0909,-3.0595,-2.9754,-2.845,-2.7313,-2.6349,-2.5071,-2.3644,-2.3122,-2.3105,-2.3144,-2.3144,-2.3144,-2.3144,-2.3144,-2.3144,-2.3144,-4.2303,-4.2219,-4.161,-4.1288,-4.1221,-4.1187,-4.0713,-4.0206,-4.0798,-4.1474,-4.2016,-4.2083,-4.1762,-4.1305,-4.1052,-4.0747,-4.0358,-4.0155,-4.0087,-4.0087,-4.0087,-4.0087,-4.0087,-4.0087,-4.0087,-4.0087,-4.0087,-4.0087,-4.007,-3.9731,-3.9489,-3.9032,-3.8374,-3.7589,-3.7531,-3.6258,-3.5569,-3.5489,-3.5489,-3.5489,-3.5489,-3.5489,-3.5489,-3.5489,-3.5489,-3.5489,-3.5489,-3.5489,-3.5489,-3.5489,-3.5489,-3.5489,-3.5489,-3.5489,-3.5424,-3.5279,-3.4543,-3.4177,-3.3945,-3.3945,-3.2806,-3.1315,-3.0545,-3.0419,-2.9921,-2.9779,-2.9779,-2.9779,-2.9779,-2.9779,-2.9779,-2.9779,-2.9779,-2.9779,-2.9779,-2.9779,-2.9779,-2.9779,-2.9779,-2.9779,-2.9779,-2.9779,-2.9779,-2.9792,-2.9792,-2.9854,-2.9817,-2.9792,-2.9804,-2.9792,-2.9792,-2.9779,-2.9804,-3.0193,-3.0658,-3.067,-3.0683,-3.067,-3.0595,-3.0369,-2.9596,-2.8279,-2.729,-2.6521,-2.5041,-2.3361,-2.3104,-2.3135,-2.3144,-2.3144,-2.3144,-2.3144,-2.3144,-2.3144,-2.3144,-4.1576,-4.1542,-4.1305,-4.0916,-4.0493,-4.046,-4.029,-4.0155,-4.0358,-4.0612,-4.0798,-4.0832,-4.0747,-4.0493,-4.0476,-4.0341,-4.0155,-4.0087,-4.0087,-4.0087,-4.0087,-4.0087,-4.0087,-4.0087,-4.0087,-4.0087,-4.0087,-4.0087,-4.0087,-3.9782,-3.9714,-3.9332,-3.8374,-3.7219,-3.643,-3.5619,-3.5489,-3.5489,-3.5489,-3.5489,-3.5489,-3.5489,-3.5489,-3.5489,-3.5489,-3.5489,-3.5489,-3.5489,-3.5489,-3.5489,-3.5489,-3.5489,-3.5489,-3.5489,-3.5213,-3.4773,-3.4027,-3.3394,-3.2593,-3.2033,-3.1536,-3.0696,-3.0266,-3.0203,-2.9779,-2.9779,-2.9779,-2.9779,-2.9779,-2.9779,-2.9779,-2.9779,-2.9779,-2.9779,-2.9779,-2.9779,-2.9779,-2.9779,-2.9779,-2.9779,-2.9779,-2.9779,-2.9779,-2.9817,-2.9829,-2.9842,-2.9854,-2.9867,-2.988,-2.9817,-2.9792,-2.9792,-2.9842,-3.0143,-3.0394,-3.0507,-3.052,-3.0495,-3.047,-3.0369,-2.9413,-2.8096,-2.7163,-2.6202,-2.4639,-2.3085,-2.3076,-2.3144,-2.3144,-2.3144,-2.3144,-2.3144,-2.3144,-2.3144,-2.3144,-4.0815,-4.0815,-4.0815,-4.0544,-4.0121,-4.0087,-4.0087,-4.0087,-4.0087,-4.0087,-4.0104,-4.0104,-4.0104,-4.0104,-4.0087,-4.0087,-4.0087,-4.0087,-4.0087,-4.0087,-4.0087,-4.0087,-4.0087,-4.0087,-4.0087,-4.0087,-4.0087,-4.0087,-4.0087,-3.9594,-3.942,-3.9262,-3.8707,-3.7499,-3.6415,-3.5782,-3.5489,-3.5489,-3.5489,-3.5489,-3.5489,-3.5489,-3.5489,-3.5489,-3.5489,-3.5489,-3.5489,-3.5489,-3.5489,-3.5489,-3.5489,-3.5489,-3.5489,-3.5424,-3.5148,-3.4691,-3.3685,-3.2692,-3.1254,-3.0758,-3.0495,-3.0011,-2.9792,-2.9779,-2.9779,-2.9779,-2.9779,-2.9779,-2.9779,-2.9779,-2.9779,-2.9779,-2.9779,-2.9779,-2.9779,-2.9779,-2.9779,-2.9779,-2.9779,-2.9779,-2.9779,-2.9779,-2.9792,-2.9842,-2.988,-2.9905,-2.993,-2.9955,-2.9955,-2.9867,-2.9854,-2.9905,-2.9829,-2.998,-3.0231,-3.0457,-3.0432,-3.0344,-3.024,-3.0148,-2.8967,-2.7683,-2.6789,-2.588,-2.4341,-2.3153,-2.3105,-2.3144,-2.3144,-2.3144,-2.3144,-2.3144,-2.3144,-2.3174,-2.3203,-4.0087,-4.0087,-4.0087,-4.0104,-4.0087,-4.0087,-4.0087,-4.0087,-4.0087,-4.0087,-4.0087,-4.0087,-4.0087,-4.0087,-4.0087,-4.0087,-4.0087,-4.0087,-4.0087,-4.0087,-4.0087,-4.0087,-4.0087,-4.0087,-4.0087,-4.0087,-4.0087,-4.0087,-4.0087,-3.9952,-3.961,-3.9209,-3.8924,-3.7889,-3.6859,-3.6054,-3.5733,-3.5554,-3.5489,-3.5489,-3.5489,-3.5489,-3.5489,-3.5489,-3.5489,-3.5489,-3.5489,-3.5489,-3.5489,-3.5489,-3.5489,-3.5489,-3.5489,-3.5489,-3.5504,-3.492,-3.3547,-3.1769,-3.0558,-3.0279,-2.9998,-2.9792,-2.9792,-2.9779,-2.9779,-2.9779,-2.9779,-2.9779,-2.9779,-2.9779,-2.9779,-2.9779,-2.9779,-2.9779,-2.9779,-2.9779,-2.9779,-2.9779,-2.9779,-2.9779,-2.9779,-2.9779,-2.9779,-2.9829,-2.988,-2.993,-2.9993,-3.0143,-3.0105,-2.9892,-2.993,-3.0118,-3.0005,-2.9804,-3.0018,-3.0256,-3.0231,-3.0105,-2.9811,-2.9548,-2.8378,-2.7209,-2.6213,-2.5126,-2.3973,-2.3222,-2.3135,-2.3144,-2.3144,-2.3144,-2.3144,-2.3271,-2.331,-2.332,-2.3369,-4.0087,-4.0087,-4.0087,-4.0087,-4.0087,-4.0087,-4.0087,-4.0087,-4.0087,-4.0087,-4.0087,-4.0087,-4.0087,-4.0087,-4.0087,-4.0087,-4.0087,-4.0087,-4.0087,-4.0087,-4.0087,-4.0087,-4.0087,-4.0087,-4.0087,-4.0087,-4.0087,-4.0087,-4.0087,-4.0087,-4.007,-3.9782,-3.9246,-3.8342,-3.7499,-3.6692,-3.607,-3.5619,-3.5489,-3.5489,-3.5489,-3.5489,-3.5489,-3.5489,-3.5489,-3.5489,-3.5489,-3.5489,-3.5489,-3.5489,-3.5489,-3.5489,-3.5489,-3.5424,-3.5279,-3.4327,-3.282,-3.1241,-3.0771,-3.0139,-2.9779,-2.9779,-2.9779,-2.9779,-2.9779,-2.9779,-2.9779,-2.9779,-2.9779,-2.9779,-2.9779,-2.9779,-2.9779,-2.9779,-2.9779,-2.9779,-2.9779,-2.9779,-2.9779,-2.9779,-2.9779,-2.9779,-2.9779,-2.9792,-2.9842,-2.9917,-3.0043,-3.0206,-3.0231,-3.0005,-3.0018,-3.0218,-3.0055,-2.9817,-2.9804,-2.9927,-2.9942,-2.9814,-2.9426,-2.8823,-2.7812,-2.6614,-2.5535,-2.4542,-2.3627,-2.3309,-2.3135,-2.3144,-2.3144,-2.3144,-2.3154,-2.334,-2.3477,-2.3437,-2.3477,-4.0087,-4.0087,-4.0087,-4.0087,-4.0087,-4.0087,-4.0087,-4.0087,-4.0087,-4.0087,-4.0087,-4.0087,-4.0087,-4.0087,-4.0087,-4.0087,-4.0087,-4.0087,-4.0087,-4.0087,-4.0087,-4.0087,-4.0087,-4.0087,-4.0087,-4.0087,-4.0087,-4.0087,-4.0087,-4.0087,-4.007,-4.002,-3.9489,-3.8761,-3.7921,-3.7235,-3.6461,-3.5894,-3.5489,-3.5489,-3.5489,-3.5489,-3.5489,-3.5489,-3.5489,-3.5489,-3.5489,-3.5489,-3.5489,-3.5489,-3.5489,-3.5489,-3.5489,-3.5424,-3.5052,-3.4109,-3.331,-3.2019,-3.1254,-3.0696,-3.0203,-2.9934,-2.9856,-2.9779,-2.9779,-2.9779,-2.9779,-2.9779,-2.9779,-2.9779,-2.9779,-2.9779,-2.9779,-2.9779,-2.9779,-2.9779,-2.9779,-2.9779,-2.9779,-2.9779,-2.9779,-2.9779,-2.9779,-2.9779,-2.988,-3.008,-3.0143,-3.0156,-3.0181,-3.0055,-3.0131,-3.0331,-3.0068,-2.9779,-2.9727,-2.9518,-2.9241,-2.8986,-2.8443,-2.7836,-2.6962,-2.6025,-2.4957,-2.4211,-2.3551,-2.3299,-2.3144,-2.3144,-2.3144,-2.3144,-2.3174,-2.334,-2.3437,-2.3418,-2.3506,-4.0087,-4.0087,-4.0087,-4.0087,-4.0087,-4.0087,-4.0087,-4.0087,-4.0087,-4.0087,-4.0087,-4.0087,-4.0087,-4.0087,-4.0087,-4.0087,-4.0087,-4.0087,-4.0087,-4.0087,-4.0087,-4.0087,-4.0087,-4.0087,-4.0087,-4.0087,-4.0087,-4.0087,-4.0087,-4.0087,-4.0087,-4.007,-3.9833,-3.9102,-3.7937,-3.7515,-3.6646,-3.5733,-3.5489,-3.5489,-3.5489,-3.5489,-3.5489,-3.5489,-3.5489,-3.5489,-3.5489,-3.5489,-3.5489,-3.5489,-3.5489,-3.5489,-3.5489,-3.5489,-3.4905,-3.4394,-3.3876,-3.3017,-3.2105,-3.1549,-3.0833,-3.0343,-2.9946,-2.9934,-2.9934,-2.9779,-2.9779,-2.9779,-2.9779,-2.9779,-2.9779,-2.9779,-2.9779,-2.9779,-2.9779,-2.9779,-2.9779,-2.9779,-2.9779,-2.9779,-2.9779,-2.9779,-2.9779,-2.9792,-2.9829,-3.0156,-3.0206,-3.0105,-3.0068,-2.9993,-3.0105,-3.0306,-3.0055,-2.9702,-2.9246,-2.8968,-2.8482,-2.8104,-2.747,-2.6724,-2.5852,-2.5126,-2.4286,-2.38,-2.3299,-2.3222,-2.3144,-2.3144,-2.3144,-2.3144,-2.3203,-2.334,-2.3389,-2.3359,-2.3516,-4.0087,-4.0087,-4.0087,-4.0087,-4.0087,-4.0087,-4.0087,-4.0087,-4.0087,-4.0087,-4.0087,-4.0087,-4.0087,-4.0087,-4.0087,-4.0087,-4.0087,-4.0087,-4.0087,-4.0087,-4.0087,-4.0087,-4.0087,-4.0087,-4.0087,-4.0087,-4.0087,-4.0087,-4.0087,-4.0087,-4.007,-3.9952,-3.961,-3.8707,-3.769,-3.7263,-3.6461,-3.5554,-3.5489,-3.5489,-3.5489,-3.5489,-3.5489,-3.5489,-3.5489,-3.5489,-3.5489,-3.5489,-3.5489,-3.5489,-3.5489,-3.5489,-3.5489,-3.5489,-3.5359,-3.5067,-3.4461,-3.3739,-3.3171,-3.2393,-3.1609,-3.1119,-3.0709,-3.0355,-3.0075,-2.9934,-2.9779,-2.9779,-2.9779,-2.9779,-2.9779,-2.9779,-2.9779,-2.9779,-2.9779,-2.9779,-2.9779,-2.9779,-2.9779,-2.9779,-2.9779,-2.9779,-2.9779,-2.9817,-2.9867,-2.9892,-2.9892,-2.9867,-2.9892,-2.9854,-2.988,-3.0005,-2.9942,-2.9546,-2.9089,-2.8363,-2.7847,-2.7008,-2.6223,-2.5475,-2.4808,-2.4221,-2.3714,-2.3474,-2.3135,-2.3144,-2.3144,-2.3144,-2.3144,-2.3144,-2.3154,-2.3262,-2.3262,-2.3232,-2.3457,-4.0087,-4.0087,-4.0087,-4.0087,-4.0087,-4.0087,-4.0087,-4.0087,-4.0087,-4.0087,-4.0087,-4.0087,-4.0087,-4.0087,-4.0087,-4.0087,-4.0087,-4.0087,-4.0087,-4.0087,-4.0087,-4.0087,-4.0087,-4.0087,-4.0087,-4.0087,-4.0087,-4.0087,-4.0087,-4.007,-4.0003,-3.961,-3.8978,-3.8342,-3.744,-3.6737,-3.6228,-3.5569,-3.5489,-3.5489,-3.5489,-3.5489,-3.5489,-3.5489,-3.5489,-3.5489,-3.5489,-3.5489,-3.5489,-3.5489,-3.5489,-3.5489,-3.5489,-3.5489,-3.5489,-3.5359,-3.4986,-3.4476,-3.3959,-3.3171,-3.2249,-3.1623,-3.0696,-3.0075,-2.9998,-2.9779,-2.9779,-2.9779,-2.9779,-2.9779,-2.9779,-2.9779,-2.9779,-2.9779,-2.9779,-2.9779,-2.9779,-2.9779,-2.9779,-2.9779,-2.9779,-2.9779,-2.9779,-2.9792,-2.9829,-2.9829,-2.9792,-2.9779,-2.9779,-2.9779,-2.9779,-2.9702,-2.9611,-2.9702,-2.9403,-2.8315,-2.7174,-2.6152,-2.5052,-2.4467,-2.3887,-2.3474,-2.3135,-2.3144,-2.3144,-2.3144,-2.3144,-2.3144,-2.3144,-2.3144,-2.3144,-2.3154,-2.3144,-2.3144,-2.3301,-4.0087,-4.0087,-4.0087,-4.0087,-4.0087,-4.0087,-4.0087,-4.0087,-4.0087,-4.0087,-4.0087,-4.0087,-4.0087,-4.0087,-4.0087,-4.0087,-4.0087,-4.0087,-4.0087,-4.0087,-4.0087,-4.0087,-4.0087,-4.0087,-4.0087,-4.0087,-4.0087,-4.0087,-4.0087,-4.007,-3.9731,-3.9032,-3.8509,-3.806,-3.7024,-3.6399,-3.6054,-3.5668,-3.5489,-3.5489,-3.5489,-3.5489,-3.5489,-3.5489,-3.5489,-3.5489,-3.5489,-3.5489,-3.5489,-3.5489,-3.5489,-3.5489,-3.5489,-3.5489,-3.5489,-3.5424,-3.5424,-3.4905,-3.4327,-3.3533,-3.2577,-3.1676,-3.0609,-2.9934,-2.9934,-2.9779,-2.9779,-2.9779,-2.9779,-2.9779,-2.9779,-2.9779,-2.9779,-2.9779,-2.9779,-2.9779,-2.9779,-2.9779,-2.9779,-2.9779,-2.9779,-2.9779,-2.9779,-2.9779,-2.9779,-2.9779,-2.9779,-2.9779,-2.9779,-2.9779,-2.9779,-2.9534,-2.9353,-2.9365,-2.9131,-2.7867,-2.6295,-2.5305,-2.4221,-2.3551,-2.3144,-2.3144,-2.3144,-2.3144,-2.3144,-2.3144,-2.3144,-2.3144,-2.3144,-2.3144,-2.3144,-2.3144,-2.3144,-2.3144,-2.3144,-4.0087,-4.0087,-4.0087,-4.0087,-4.0087,-4.0087,-4.0087,-4.0087,-4.0087,-4.0087,-4.0087,-4.0087,-4.0087,-4.0087,-4.0087,-4.0087,-4.0087,-4.0087,-4.0087,-4.0087,-4.0087,-4.0087,-4.0087,-4.0087,-4.0087,-4.0087,-4.0087,-4.0087,-4.0087,-4.007,-3.9731,-3.8962,-3.8206,-3.7573,-3.6737,-3.6228,-3.5718,-3.5489,-3.5489,-3.5489,-3.5489,-3.5489,-3.5489,-3.5489,-3.5489,-3.5489,-3.5489,-3.5489,-3.5489,-3.5489,-3.5489,-3.5489,-3.5489,-3.5489,-3.5489,-3.5489,-3.5489,-3.5344,-3.4758,-3.3822,-3.2932,-3.2753,-3.1615,-3.0279,-3.0139,-2.9779,-2.9779,-2.9779,-2.9779,-2.9779,-2.9779,-2.9779,-2.9779,-2.9779,-2.9779,-2.9779,-2.9779,-2.9779,-2.9779,-2.9779,-2.9779,-2.9779,-2.9779,-2.9779,-2.9779,-2.9779,-2.9779,-2.9779,-2.9779,-2.9779,-2.9779,-2.9238,-2.8809,-2.7947,-2.7221,-2.6521,-2.5189,-2.4211,-2.3551,-2.3309,-2.3144,-2.3144,-2.3144,-2.3144,-2.3144,-2.3144,-2.3144,-2.3144,-2.3144,-2.3144,-2.3144,-2.3144,-2.3144,-2.3144,-2.3144]}]]